[[{"header":{"parameterUnit":"m.s-1","parameterCategory":1,"la1":30.6,"la2":28.766,"lo1":-90.7593,"lo2":-88.6598,"dx":0.0162,"dy":0.0183,"nx":116,"ny":114,"refTime":"2023-01-07T06:00:00:Z","depth":0,"parameterNumber":2,"parameterNumberName":"U-component_of_WINDS"},"data":[0.0,0.0,0.0,0.0,0.0,0.0,0.0,0.0,0.0,0.0,0.0,0.0,0.0,0.0,0.0,0.0,0.0,0.0,0.0,0.0,0.0,0.0,0.0,0.0,0.0,0.0,0.0,0.0,0.0,0.0,0.0,0.0,0.0,0.0,0.0,0.0,0.0,0.0,0.0,0.0,0.0,0.0,0.0,0.0,0.0,0.0,0.0,0.0,0.0,0.0,0.0,0.0,0.0,0.0,0.0,0.0,0.0,0.0,0.0,0.0,0.0,0.0,0.0,0.0,0.0,0.0,0.0,0.0,0.0,0.0,0.0,0.0,0.0,0.0,0.0,0.0,0.0,0.0,0.0,0.0,0.0,0.0,0.0,0.0,0.0,0.0,0.0,0.0,0.0,0.0,0.0,0.0,0.0,0.0,0.0,0.0,0.0,0.0,0.0,0.0,0.0,0.0,0.0,0.0,0.0,0.0,0.0,0.0,0.0,0.0,0.0,0.0,0.0,0.0,0.0,0.0,0.0,0.0,0.0,0.0,0.0,0.0,0.0,0.0,0.0,0.0,0.0,0.0,0.0,0.0,0.0,0.0,0.0,0.0,0.0,0.0,0.0,0.0,0.0,0.0,0.0,0.0,0.0,0.0,0.0,0.0,0.0,0.0,0.0,0.0,0.0,0.0,0.0,0.0,0.0,0.0,0.0,0.0,0.0,0.0,0.0,0.0,0.0,0.0,0.0,0.0,0.0,0.0,0.0,0.0,0.0,0.0,0.0,0.0,0.0,0.0,0.0,0.0,0.0,0.0,0.0,0.0,0.0,0.0,0.0,0.0,0.0,0.0,0.0,0.0,0.0,0.0,0.0,0.0,0.0,0.0,0.0,0.0,0.0,0.0,0.0,0.0,0.0,0.0,0.0,0.0,0.0,0.0,0.0,0.0,0.0,0.0,0.0,0.0,0.0,0.0,0.0,0.0,0.0,0.0,0.0,0.0,0.0,0.0,0.0,0.0,0.0,0.0,0.0,0.0,0.0,0.0,0.0,0.0,0.0,0.0,0.0,0.0,0.0,0.0,0.0,0.0,0.0,0.0,0.0,0.0,0.0,0.0,0.0,0.0,0.0,0.0,0.0,0.0,0.0,0.0,0.0,0.0,0.0,0.0,0.0,0.0,0.0,0.0,0.0,0.0,0.0,0.0,0.0,0.0,0.0,0.0,0.0,0.0,0.0,0.0,0.0,0.0,0.0,0.0,0.0,0.0,0.0,0.0,0.0,0.0,0.0,0.0,0.0,0.0,0.0,0.0,0.0,0.0,0.0,0.0,0.0,0.0,0.0,0.0,0.0,0.0,0.0,0.0,0.0,0.0,0.0,0.0,0.0,0.0,0.0,0.0,0.0,0.0,0.0,0.0,0.0,0.0,0.0,0.0,0.0,0.0,0.0,0.0,0.0,0.0,0.0,0.0,0.0,0.0,0.0,0.0,0.0,0.0,0.0,0.0,0.0,0.0,0.0,0.0,0.0,0.0,0.0,0.0,0.0,0.0,0.0,0.0,0.0,0.0,0.0,0.0,0.0,0.0,0.0,0.0,0.0,0.0,0.0,0.0,0.0,0.0,0.0,0.0,0.0,0.0,0.0,0.0,0.0,0.0,0.0,0.0,0.0,0.0,0.0,0.0,0.0,0.0,0.0,0.0,0.0,0.0,0.0,0.0,0.0,0.0,0.0,0.0,0.0,0.0,0.0,0.0,0.0,0.0,0.0,0.0,0.0,0.0,0.0,0.0,0.0,0.0,0.0,0.0,0.0,0.0,0.0,0.0,0.0,0.0,0.0,0.0,0.0,0.0,0.0,0.0,0.0,0.0,0.0,0.0,0.0,0.0,0.0,0.0,0.0,0.0,0.0,0.0,0.0,0.0,0.0,0.0,0.0,0.0,0.0,0.0,0.0,0.0,0.0,0.0,0.0,0.0,0.0,0.0,0.0,0.0,0.0,0.0,0.0,0.0,0.0,0.0,0.0,0.0,0.0,0.0,0.0,0.0,0.0,0.0,0.0,0.0,0.0,0.0,0.0,0.0,0.0,0.0,0.0,0.0,0.0,0.0,0.0,0.0,0.0,0.0,0.0,0.0,0.0,0.0,0.0,0.0,0.0,0.0,0.0,0.0,0.0,0.0,0.0,0.0,0.0,0.0,0.0,0.0,0.0,0.0,0.0,0.0,0.0,0.0,0.0,0.0,0.0,0.0,0.0,0.0,0.0,0.0,0.0,0.0,0.0,0.0,0.0,0.0,0.0,0.0,0.0,0.0,0.0,0.0,0.0,0.0,0.0,0.0,0.0,0.0,0.0,0.0,0.0,0.0,0.0,0.0,0.0,0.0,0.0,0.0,0.0,0.0,0.0,0.0,0.0,0.0,0.0,0.0,0.0,0.0,0.0,0.0,0.0,0.0,0.0,0.0,0.0,0.0,0.0,0.0,0.0,0.0,0.0,0.0,0.0,0.0,0.0,0.0,0.0,0.0,0.0,0.0,0.0,0.0,0.0,0.0,0.0,0.0,0.0,0.0,0.0,0.0,0.0,0.0,0.0,0.0,0.0,0.0,0.0,0.0,0.0,0.0,0.0,0.0,0.0,0.0,0.0,0.0,0.0,0.0,0.0,0.0,0.0,0.0,0.0,0.0,0.0,0.0,0.0,0.0,0.0,0.0,0.0,0.0,0.0,0.0,0.0,0.0,0.0,0.0,0.0,0.0,0.0,0.0,0.0,0.0,0.0,0.0,0.0,0.0,0.0,0.0,0.0,0.0,0.0,0.0,0.0,0.0,0.0,0.0,0.0,0.0,0.0,0.0,0.0,0.0,0.0,0.0,0.0,0.0,0.0,0.0,0.0,0.0,0.0,0.0,0.0,0.0,0.0,0.0,0.0,0.0,0.0,0.0,0.0,0.0,0.0,0.0,0.0,0.0,0.0,0.0,0.0,0.0,0.0,0.0,0.0,0.0,0.0,0.0,0.0,0.0,0.0,0.0,0.0,0.0,0.0,0.0,0.0,0.0,0.0,0.0,0.0,0.0,0.0,0.0,0.0,0.0,0.0,0.0,0.0,0.0,0.0,0.0,0.0,0.0,0.0,0.0,0.0,0.0,0.0,0.0,0.0,0.0,0.0,0.0,0.0,0.0,0.0,0.0,0.0,0.0,0.0,0.0,0.0,0.0,0.0,0.0,0.0,0.0,0.0,0.0,0.0,0.0,0.0,0.0,0.0,0.0,0.0,0.0,0.0,0.0,0.0,0.0,0.0,0.0,0.0,0.0,0.0,0.0,0.0,0.0,0.0,0.0,0.0,0.0,0.0,0.0,0.0,0.0,0.0,0.0,0.0,0.0,0.0,0.0,0.0,0.0,0.0,0.0,0.0,0.0,0.0,0.0,0.0,0.0,0.0,0.0,0.0,0.0,0.0,0.0,0.0,0.0,0.0,0.0,0.0,0.0,0.0,0.0,0.0,0.0,0.0,0.0,0.0,0.0,0.0,0.0,0.0,0.0,0.0,0.0,0.0,0.0,0.0,0.0,0.0,0.0,0.0,0.0,0.0,0.0,0.0,0.0,0.0,0.0,0.0,0.0,0.0,0.0,0.0,0.0,0.0,0.0,0.0,0.0,0.0,0.0,0.0,0.0,0.0,0.0,0.0,0.0,0.0,0.0,0.0,0.0,0.0,0.0,0.0,0.0,0.0,0.0,0.0,0.0,0.0,0.0,0.0,0.0,0.0,0.0,0.0,0.0,0.0,0.0,0.0,0.0,0.0,0.0,0.0,0.0,0.0,0.0,0.0,0.0,0.0,0.0,0.0,0.0,0.0,0.0,0.0,0.0,0.0,0.0,0.0,0.0,0.0,0.0,0.0,0.0,0.0,0.0,0.0,0.0,0.0,0.0,0.0,0.0,0.0,0.0,0.0,0.0,0.0,0.0,0.0,0.0,0.0,0.0,0.0,0.0,0.0,0.0,0.0,0.0,0.0,0.0,0.0,0.0,0.0,0.0,0.0,0.0,0.0,0.0,0.0,0.0,0.0,0.0,0.0,0.0,0.0,0.0,0.0,0.0,0.0,0.0,0.0,0.0,0.0,0.0,0.0,0.0,0.0,0.0,0.0,0.0,0.0,0.0,0.0,0.0,0.0,0.0,0.0,0.0,0.0,0.0,0.0,0.0,0.0,0.0,0.0,0.0,0.0,0.0,0.0,0.0,0.0,0.0,0.0,0.0,0.0,0.0,0.0,0.0,0.0,0.0,0.0,0.0,0.0,0.0,0.0,0.0,0.0,0.0,0.0,0.0,0.0,0.0,0.0,0.0,0.0,0.0,0.0,0.0,0.0,0.0,0.0,0.0,0.0,0.0,0.0,0.0,0.0,0.0,0.0,0.0,0.0,0.0,0.0,0.0,0.0,0.0,0.0,0.0,0.0,0.0,0.0,0.0,0.0,0.0,0.0,0.0,0.0,0.0,0.0,0.0,0.0,0.0,0.0,0.0,0.0,0.0,0.0,0.0,0.0,0.0,0.0,0.0,0.0,0.0,0.0,0.0,0.0,0.0,0.0,0.0,0.0,0.0,0.0,0.0,0.0,0.0,0.0,0.0,0.0,0.0,0.0,0.0,0.0,0.0,0.0,0.0,0.0,0.0,0.0,0.0,0.0,0.0,0.0,0.0,0.0,0.0,0.0,0.0,0.0,0.0,0.0,0.0,0.0,0.0,0.0,0.0,0.0,0.0,0.0,0.0,0.0,0.0,0.0,0.0,0.0,0.0,0.0,0.0,0.0,0.0,0.0,0.0,0.0,0.0,0.0,0.0,0.0,0.0,0.0,0.0,0.0,0.0,0.0,0.0,0.0,0.0,0.0,0.0,0.0,0.0,0.0,0.0,0.0,0.0,0.0,0.0,0.0,0.0,0.0,0.0,0.0,0.0,0.0,0.0,0.0,0.0,0.0,0.0,0.0,0.0,0.0,0.0,0.0,0.0,0.0,0.0,0.0,0.0,0.0,0.0,0.0,0.0,0.0,0.0,0.0,0.0,0.0,0.0,0.0,0.0,0.0,0.0,0.0,0.0,0.0,0.0,0.0,0.0,0.0,0.0,0.0,0.0,0.0,0.0,0.0,0.0,0.0,0.0,0.0,0.0,0.0,0.0,0.0,0.0,0.0,0.0,0.0,0.0,0.0,0.0,0.0,0.0,0.0,0.0,0.0,0.0,0.0,0.0,0.0,0.0,0.0,0.0,0.0,0.0,0.0,0.0,0.0,0.0,0.0,0.0,0.0,0.0,0.0,0.0,0.0,0.0,0.0,0.0,0.0,0.0,0.0,0.0,0.0,0.0,0.0,0.0,0.0,0.0,0.0,0.0,0.0,0.0,0.0,0.0,0.0,0.0,0.0,0.0,0.0,0.0,0.0,0.0,0.0,0.0,0.0,0.0,0.0,0.0,0.0,0.0,0.0,0.0,0.0,0.0,0.0,0.0,0.0,0.0,0.0,0.0,0.0,0.0,0.0,0.0,0.0,0.0,0.0,0.0,0.0,0.0,0.0,0.0,0.0,0.0,0.0,0.0,0.0,0.0,0.0,0.0,0.0,0.0,0.0,0.0,0.0,0.0,0.0,0.0,0.0,0.0,0.0,0.0,0.0,0.0,0.0,0.0,0.0,0.0,0.0,0.0,0.0,0.0,0.0,0.0,0.0,0.0,0.0,0.0,0.0,0.0,0.0,0.0,0.0,0.0,0.0,0.0,0.0,0.0,0.0,0.0,0.0,0.0,0.0,0.0,0.0,0.0,0.0,0.0,0.0,0.0,0.0,0.0,0.0,0.0,0.0,0.0,0.0,0.0,0.0,0.0,0.0,0.0,0.0,0.0,0.0,0.0,0.0,0.0,0.0,0.0,0.0,0.0,0.0,0.0,0.0,0.0,0.0,0.0,0.0,0.0,0.0,0.0,0.0,0.0,0.0,0.0,0.0,0.0,0.0,0.0,0.0,0.0,0.0,0.0,0.0,0.0,0.0,0.0,0.0,0.0,0.0,0.0,0.0,0.0,0.0,0.0,0.0,0.0,0.0,0.0,0.0,0.0,0.0,0.0,0.0,0.0,-2.7471,0.0,0.0,0.0,0.0,0.0,0.0,0.0,0.0,0.0,0.0,0.0,0.0,0.0,0.0,0.0,0.0,0.0,0.0,0.0,0.0,0.0,0.0,0.0,0.0,-0.756,-0.786,-0.8425,-0.8181,0.0,0.0,0.0,0.0,0.0,0.0,0.0,0.0,0.0,-0.9421,-1.0065,-1.1863,-1.4394,-1.7563,-1.6191,-1.4363,-1.2173,0.0,0.0,0.0,0.0,0.0,0.0,0.0,0.0,0.0,0.0,0.0,0.0,0.0,0.0,0.0,0.0,0.0,0.0,0.0,0.0,0.0,0.0,0.0,0.0,0.0,0.0,0.0,0.0,0.0,0.0,0.0,0.0,0.0,0.0,0.0,0.0,0.0,0.0,0.0,0.0,0.0,0.0,0.0,0.0,0.0,0.0,0.0,0.0,0.0,0.0,0.0,0.0,0.0,0.0,0.0,0.0,0.0,0.0,0.0,0.0,0.0,0.0,0.0,0.0,0.0,0.0,0.0,0.0,0.0,0.0,0.0,-2.9099,0.0,0.0,0.0,0.0,0.0,0.0,0.0,0.0,0.0,0.0,0.0,0.0,0.0,0.0,0.0,0.0,0.0,0.0,0.0,0.0,0.0,-0.6726,-0.7673,-0.804,-0.8595,-0.9504,-0.8913,-0.8565,-0.8731,-0.8048,0.0,0.0,0.0,0.0,0.0,-0.9367,-1.0219,-1.1748,-1.5646,-1.9085,-2.2036,-2.242,-2.0161,-1.5706,-1.4598,0.0,0.0,0.0,0.0,0.0,0.0,0.0,0.0,0.0,0.0,0.0,0.0,0.0,0.0,0.0,0.0,0.0,0.0,0.0,0.0,0.0,0.0,0.0,0.0,0.0,0.0,0.0,0.0,0.0,0.0,0.0,0.0,0.0,0.0,0.0,0.0,0.0,0.0,0.0,0.0,0.0,0.0,0.0,0.0,0.0,0.0,0.0,0.0,0.0,0.0,0.0,0.0,0.0,0.0,0.0,0.0,0.0,0.0,0.0,0.0,0.0,0.0,0.0,-3.3854,-3.4118,-3.4108,-3.4587,-3.5438,-3.6556,-3.5759,-3.3751,-3.0983,-3.0442,0.0,0.0,0.0,0.0,0.0,0.0,0.0,0.0,0.0,0.0,0.0,0.0,0.0,0.0,0.0,0.0,0.0,0.0,0.0,-0.7526,-0.8752,-0.9238,-0.9922,-1.1012,-1.0272,-0.9717,-0.9629,-0.8791,0.0,0.0,0.0,0.0,-0.9257,-0.9644,-1.1582,-1.5151,-2.1196,-2.3863,-2.3362,-2.4794,-2.4767,-2.3447,-2.1913,-2.0859,-2.0085,0.0,0.0,0.0,0.0,0.0,0.0,0.0,0.0,0.0,0.0,0.0,0.0,0.0,0.0,0.0,0.0,0.0,0.0,0.0,0.0,0.0,0.0,0.0,0.0,0.0,0.0,0.0,0.0,0.0,0.0,0.0,0.0,0.0,0.0,0.0,0.0,0.0,0.0,0.0,0.0,0.0,-3.1281,-2.904,0.0,0.0,0.0,0.0,0.0,0.0,0.0,0.0,0.0,0.0,0.0,0.0,0.0,-3.2975,-3.3877,-3.3355,-3.3471,-3.4265,-3.7181,-3.8531,-3.8565,-4.1399,-4.2334,-4.1741,-4.2142,0.0,-3.5284,-3.3182,0.0,0.0,0.0,0.0,0.0,0.0,0.0,0.0,0.0,0.0,0.0,0.0,0.0,0.0,0.0,0.0,0.0,0.0,0.0,0.0,0.0,-1.1765,-1.3742,-1.526,-1.6528,-1.6142,-1.3516,-1.278,0.0,0.0,0.0,-0.9239,-0.9403,-1.1847,-1.6085,-2.2149,-2.5169,-2.717,-2.822,-2.8869,-2.917,-2.918,-2.855,-2.6338,-2.2956,-2.1423,0.0,0.0,0.0,0.0,0.0,0.0,0.0,0.0,0.0,0.0,0.0,0.0,0.0,0.0,0.0,0.0,0.0,0.0,0.0,0.0,0.0,0.0,0.0,0.0,0.0,0.0,0.0,0.0,0.0,0.0,0.0,0.0,0.0,0.0,0.0,0.0,0.0,0.0,0.0,-2.9951,-3.1026,-2.883,-2.9834,-2.9472,0.0,0.0,0.0,0.0,0.0,0.0,0.0,0.0,0.0,-3.2621,-3.4866,-3.6029,-3.5912,-3.7008,-3.7728,-3.8127,-4.0063,-4.0916,-4.0868,-4.2241,-4.3094,-4.3502,-4.3121,-4.2139,-4.0623,-3.7558,-3.4908,-3.2622,0.0,0.0,0.0,0.0,-2.7083,-2.651,0.0,0.0,0.0,0.0,0.0,0.0,0.0,0.0,0.0,0.0,0.0,0.0,-1.1514,-1.5151,-1.8164,-1.9974,-2.1932,-2.123,-1.6885,-1.598,-1.3688,-0.9349,-0.9246,-0.9376,-0.9524,-1.4414,-2.0183,-2.676,-2.7759,-2.9262,-3.1074,-3.0673,-3.0857,-3.1498,-3.1545,-2.9648,-2.6271,-2.4724,-2.2685,-2.0243,0.0,0.0,0.0,0.0,0.0,0.0,0.0,0.0,0.0,0.0,0.0,0.0,0.0,0.0,0.0,0.0,0.0,0.0,0.0,0.0,0.0,0.0,0.0,0.0,0.0,0.0,0.0,0.0,0.0,0.0,0.0,0.0,0.0,0.0,0.0,0.0,0.0,-3.0423,-3.1447,-2.8935,-3.0727,-3.0882,0.0,0.0,0.0,0.0,0.0,0.0,-3.1246,-3.3944,-3.5466,-3.5463,-3.7791,-3.8839,-3.841,-4.014,-4.0992,-4.1,-4.1821,-4.216,-4.2059,-4.2137,-4.2803,-4.3846,-4.3113,-4.325,-4.3811,-4.0653,-3.7886,-3.5422,-3.3563,-3.1955,-3.0525,-2.9595,-2.8795,-2.8053,0.0,0.0,0.0,0.0,0.0,0.0,0.0,0.0,0.0,0.0,0.0,-1.3725,-1.5696,-1.9471,-2.2609,-2.4417,-2.391,-2.192,-1.8233,-1.6556,-1.4035,-1.0285,-0.9602,-0.9394,-0.9583,-1.6907,-2.2374,-2.5775,-2.8723,-2.979,-2.9138,-2.8014,-2.792,-2.8693,-2.8658,-2.9671,-3.1314,-2.9592,-2.7647,-2.5303,-2.0455,0.0,0.0,0.0,0.0,0.0,0.0,0.0,0.0,0.0,0.0,0.0,0.0,0.0,0.0,0.0,0.0,0.0,0.0,0.0,0.0,0.0,0.0,0.0,0.0,0.0,0.0,0.0,0.0,0.0,0.0,0.0,0.0,0.0,0.0,0.0,0.0,0.0,0.0,-3.0886,-3.1996,0.0,0.0,0.0,0.0,-3.2611,-3.3684,-3.3906,-3.3119,-3.6274,-3.8118,-3.8101,-3.9838,-4.1146,-4.1948,-4.1322,-4.1001,-4.1007,-4.1886,-4.2266,-4.2205,-4.2915,-4.3156,-4.3099,-4.3599,-4.3535,-4.2913,-4.0867,-3.8977,-3.698,-3.4118,-3.1952,-3.0241,-2.8954,-2.8296,-2.7948,0.0,0.0,0.0,-0.5862,-0.5879,-0.5982,-0.6098,-0.6049,-0.6347,-0.7273,-1.0779,-1.4003,-1.6227,-2.1962,-2.6413,-2.8273,-3.0253,-2.9613,-2.5391,-2.2079,-1.8571,-1.4814,-1.1948,-1.2682,-1.7472,-2.1762,-2.5422,-2.8464,-2.8467,-2.8184,-2.7498,-2.6399,-2.6035,-2.6367,-2.6648,-2.7703,-2.9231,-2.9521,-2.8929,-2.7508,-2.4534,-2.1739,0.0,0.0,0.0,0.0,0.0,0.0,0.0,0.0,0.0,0.0,0.0,0.0,0.0,0.0,0.0,0.0,0.0,0.0,0.0,0.0,0.0,0.0,0.0,0.0,0.0,0.0,0.0,0.0,0.0,0.0,0.0,0.0,0.0,0.0,0.0,0.0,0.0,-3.4101,-3.599,0.0,-3.2961,-3.2639,-3.2794,-3.3177,-3.5044,-3.6285,-3.6523,-3.9296,-4.0832,-4.0758,-4.1397,-4.1596,-4.1293,-4.1055,-4.0951,-4.1015,-4.1888,-4.2295,-4.2278,-4.2486,-4.2757,-4.3033,-4.2468,-4.2082,-4.175,-4.0504,-3.9911,-3.9641,-3.7789,-3.5488,-3.3107,-3.206,-3.0685,-2.931,0.0,0.0,0.0,-0.5511,-0.5578,-0.5715,-0.5751,-0.59,-0.6795,-0.8996,-1.2594,-1.6204,-1.9507,-2.535,-2.9648,-3.1182,-3.3797,-3.3039,-2.7531,-2.4392,-2.0516,-1.5551,-1.3338,-1.5613,-2.2886,-2.406,-2.5999,-2.8936,-2.731,-2.6203,-2.5589,-2.4473,-2.3949,-2.4099,-2.4361,-2.5222,-2.6561,-2.776,-2.8694,-2.9144,-2.6949,-2.4331,-2.1598,0.0,0.0,0.0,0.0,0.0,0.0,0.0,0.0,0.0,0.0,0.0,0.0,0.0,0.0,0.0,0.0,0.0,0.0,0.0,0.0,0.0,0.0,0.0,0.0,0.0,0.0,0.0,0.0,0.0,0.0,0.0,0.0,0.0,0.0,0.0,-3.5053,-3.5002,-3.7272,-3.7943,-3.5595,-3.5386,-3.5488,-3.5737,-3.737,-3.858,-3.916,-4.0811,-4.1714,-4.1606,-4.166,-4.1377,-4.074,-4.0816,-4.0889,-4.0937,-4.1568,-4.1855,-4.1863,-4.1822,-4.1982,-4.2252,-4.1564,-4.1066,-4.067,-3.9932,-3.961,-3.9487,-3.8228,-3.6126,-3.3652,-3.2514,-3.0997,-2.9659,0.0,0.0,-0.5094,-0.4737,-0.5108,-0.5473,-0.5492,-0.587,-0.7767,-1.222,-1.6173,-2.0558,-2.5745,-2.9581,-3.2161,-3.3022,-3.3926,-3.141,-2.4202,-2.3004,-1.94,-1.2308,-1.3759,-1.796,-2.4868,-2.3513,-2.4006,-2.6737,-2.5175,-2.4094,-2.3382,-2.2089,-2.1592,-2.167,-2.1732,-2.248,-2.3839,-2.4668,-2.7048,-3.0139,-2.7511,-2.609,-2.5208,0.0,0.0,0.0,0.0,0.0,0.0,0.0,0.0,0.0,0.0,0.0,0.0,0.0,0.0,0.0,0.0,0.0,0.0,0.0,0.0,0.0,0.0,0.0,0.0,0.0,0.0,0.0,0.0,0.0,0.0,0.0,0.0,0.0,-2.953,-3.332,-3.5349,-3.357,-3.5706,-3.7266,-3.7179,-3.7192,-3.8205,-4.0597,-4.0781,-4.0761,-4.0692,-4.0692,-4.0655,-4.059,-4.0649,-4.0649,-4.059,-4.073,-4.078,-4.0779,-4.0922,-4.0983,-4.0982,-4.1001,-4.0889,-4.0712,-4.102,-4.0604,-3.9686,-3.9188,-3.7909,-3.6149,-3.5086,-3.3502,-3.1661,-2.9843,-2.904,-2.8745,-0.5913,-0.5403,-0.4918,-0.4473,-0.4527,-0.4765,-0.5165,-0.5317,-0.721,-1.2207,-1.6003,-2.0305,-2.5717,-2.9505,-3.2023,-3.2958,-3.3267,-3.1526,-2.7072,-2.3662,-1.9474,-1.4222,-1.9188,-2.2522,-2.3499,-2.4517,-2.5077,-2.5131,-2.328,-2.2073,-2.1376,-2.014,-1.9267,-1.8859,-1.9509,-2.0467,-2.1616,-2.2128,-2.3527,-2.5583,-2.6851,-2.6339,-2.4777,0.0,0.0,0.0,0.0,0.0,0.0,0.0,0.0,0.0,0.0,0.0,0.0,0.0,0.0,0.0,0.0,0.0,0.0,0.0,0.0,0.0,0.0,0.0,0.0,0.0,0.0,0.0,0.0,0.0,0.0,0.0,0.0,-3.2007,-3.3051,-3.4778,-3.6192,-3.6894,-3.8653,-3.9526,-3.878,-3.9178,-3.9739,-4.0312,-4.0409,-4.0405,-4.0335,-4.0369,-4.0326,-4.0156,-4.0319,-4.0336,-4.0175,-4.0348,-4.0468,-4.052,-4.0699,-4.0809,-4.0864,-4.0912,-4.0815,-4.0599,-4.0265,-3.9129,-3.7497,-3.6833,-3.5124,-3.2993,-3.4011,-3.287,-3.0535,-2.9533,-2.8048,-2.6515,-0.6179,-0.5672,-0.5153,-0.4594,-0.4598,-0.4789,-0.5084,-0.5225,-0.761,-1.4148,-1.6816,-2.0625,-2.7249,-2.983,-3.1244,-3.1738,-3.1128,-2.9123,-2.5398,-2.1044,-1.858,-1.8484,-2.1778,-2.3754,-2.406,-2.4577,-2.4169,-2.2738,-2.1083,-1.9955,-1.9219,-1.8444,-1.7668,-1.6991,-1.7726,-1.8552,-1.9359,-1.9511,-2.02,-2.1307,-2.305,-2.3483,-2.3169,-2.3249,-2.2455,-2.1231,-2.0945,-2.1578,-2.2507,-2.2322,0.0,0.0,0.0,0.0,0.0,0.0,0.0,0.0,0.0,0.0,0.0,0.0,0.0,0.0,0.0,0.0,0.0,0.0,0.0,0.0,0.0,0.0,0.0,0.0,-3.1205,-3.3487,-3.4872,-3.596,-3.7074,-3.8326,-3.9641,-4.0172,-3.9533,-3.9868,-4.0057,-3.991,-3.9891,-3.989,-3.9926,-3.9848,-3.9804,-3.9709,-3.9859,-3.984,-3.9709,-3.9825,-3.9929,-4.0079,-4.0089,-4.0246,-4.0517,-4.0616,-4.0638,-4.0578,-3.9951,-3.8671,-3.6871,-3.5311,-3.2933,0.0,0.0,0.0,0.0,0.0,-2.5832,-2.4352,-0.6292,-0.5839,-0.5457,-0.4859,-0.4925,-0.51,-0.5203,-0.5354,-0.8424,-1.6735,-1.8014,-2.121,-2.9303,-3.0244,-3.0228,-3.0073,-2.8369,-2.5512,-2.1258,-1.7363,-1.7588,-2.2861,-2.2242,-2.2815,-2.5015,-2.3527,-2.1824,-1.9932,-1.8665,-1.7726,-1.6999,-1.678,-1.6262,-1.5649,-1.6131,-1.6678,-1.7064,-1.7064,-1.7319,-1.7716,-1.7852,-1.908,-2.0849,-2.1143,-2.0487,-1.9577,-2.0254,-2.0893,-2.1523,-2.2385,0.0,0.0,0.0,0.0,0.0,0.0,0.0,0.0,0.0,0.0,0.0,0.0,0.0,0.0,0.0,0.0,0.0,0.0,0.0,0.0,0.0,0.0,0.0,0.0,-3.1874,-3.3791,-3.5571,-3.6825,-3.7745,-3.8306,-3.9233,-3.9719,-3.9469,-3.952,-3.9542,-3.9395,-3.9258,-3.9252,-3.9364,0.0,0.0,0.0,0.0,-3.9282,-3.9178,-3.9163,-3.9252,-3.9439,-3.9284,-3.9472,-3.9964,-4.0076,-4.0208,-4.0332,-3.9658,-3.8376,-3.6588,-3.3933,-3.0669,-2.7328,-2.8138,-2.755,-2.6009,-2.4042,-2.2752,-2.204,-0.6225,-0.5316,-0.4632,-0.4508,-0.4329,-0.4491,-0.5233,-0.5212,-0.8055,-1.6321,-1.7991,-2.1235,-2.8613,-2.9894,-3.0125,-2.9878,-2.7614,-2.4321,-1.9881,-1.9288,-1.9337,-1.9852,-2.1313,-2.184,-2.1259,-2.0224,-1.9018,-1.7735,-1.6228,-1.535,-1.4967,-1.4198,-1.3772,-1.3506,-1.37,-1.4364,-1.5233,-1.5432,-1.5844,-1.6251,-1.6057,-1.7001,-1.8499,-1.9251,-1.9769,-2.0151,-2.0311,-2.1611,-2.328,-2.3192,-2.3356,-2.3595,-2.3636,-2.2937,0.0,0.0,0.0,0.0,0.0,0.0,0.0,0.0,0.0,0.0,0.0,0.0,0.0,0.0,0.0,0.0,0.0,0.0,0.0,-3.1264,-3.3039,-3.477,-3.6362,-3.6948,-3.7153,-3.6998,-3.8277,-3.8846,-3.8021,-3.8516,-3.883,-3.87,-3.8615,-3.8566,-3.8524,-3.8752,-3.8818,-3.8658,-3.877,-3.8722,-3.8493,-3.8395,-3.837,-3.8382,0.0,0.0,-3.9218,-3.9018,-3.8963,-3.8925,-3.7725,-3.5627,-3.2895,-3.0541,-2.6208,-2.112,-2.25,-2.2186,-2.1008,-2.0327,-1.9554,-1.8846,-0.6051,-0.5538,-0.5089,-0.4894,-0.4706,-0.4839,-0.5548,-0.5323,-0.7489,-1.4169,-1.5406,-1.7802,-2.3488,-2.4503,-2.4612,-2.4187,-2.2485,-2.0547,-1.839,-1.8807,-1.9568,-2.0524,-2.104,-2.0754,-1.9512,-1.8328,-1.6924,-1.5164,-1.3742,-1.2735,-1.2199,-1.1806,-1.1742,-1.1847,-1.1812,-1.2131,-1.2666,-1.2774,-1.2771,-1.2795,-1.2762,-1.311,-1.3855,-1.5885,-1.6752,-1.7015,-1.7913,-1.9253,-2.0769,-2.1721,-2.2424,-2.3027,-2.3464,-2.3201,-2.2633,0.0,0.0,0.0,0.0,0.0,0.0,0.0,0.0,0.0,0.0,0.0,0.0,0.0,0.0,-2.6088,0.0,0.0,-3.0046,-3.1384,-3.3352,-3.4975,-3.5697,-3.6539,-3.7154,-3.7429,-3.8074,-3.8273,-3.7694,-3.8027,-3.8234,-3.7998,-3.8032,-3.8065,-3.8065,-3.8029,-3.8047,-3.8101,-3.7548,-3.7212,-3.7196,-3.6538,-3.6218,-3.6269,-3.6164,-3.6548,-3.7294,-3.7169,-3.7343,-3.7733,-3.6746,-3.4255,-3.0406,-2.4104,-1.87,-1.4305,-1.3806,-1.482,-1.6637,-1.635,-1.5587,-1.4632,-0.5853,-0.5853,-0.5744,-0.5354,-0.5211,-0.5326,-0.5937,-0.5645,-0.7121,-1.2037,-1.2829,-1.4435,-1.844,-1.9112,-1.8847,-1.7824,-1.7613,-1.7388,-1.7089,-1.7807,-1.9182,-2.1329,-2.033,-1.9124,-1.7935,-1.6367,-1.4542,-1.2432,-1.0872,-0.9742,-0.913,-0.9118,-0.9306,-0.9577,-0.9617,-0.9723,-0.9992,-1.0073,-0.9903,-0.9635,-0.9821,-0.9602,-0.9506,-1.2177,-1.3112,-1.3079,-1.4592,-1.6071,-1.7524,-1.9193,-2.0762,-2.209,-2.2444,-2.2681,-2.2903,-2.2881,-2.3606,0.0,0.0,0.0,0.0,0.0,0.0,0.0,0.0,0.0,-2.5199,-2.4924,-2.5288,-2.5855,-2.6556,-2.8109,-2.9711,-3.1053,-3.2969,-3.4362,-3.4666,-3.5859,-3.6956,-3.7774,-3.7827,-3.7756,-3.7632,-3.7685,-3.7613,-3.7395,-3.7504,-3.7541,-3.7559,-3.7339,-3.7193,-3.7199,-3.6227,-3.5615,-3.5478,-3.437,-3.3852,-3.3977,-3.3556,-3.3987,-3.5166,-3.5192,-3.5007,-3.4512,-3.1889,-2.8794,-2.4846,-1.5458,-0.9813,-0.6961,-0.4799,-0.6369,-0.9989,-1.0925,-1.0526,-0.9493,-0.5726,-0.5726,-0.5645,-0.5356,-0.506,-0.521,-0.6261,-0.6182,-0.7514,-1.1733,-1.2936,-1.471,-1.8109,-1.8643,-1.7777,-1.5261,-1.7718,-1.8505,-1.6361,-1.7834,-1.8832,-1.8972,-1.77,-1.6232,-1.4728,-1.2778,-1.1069,-0.9719,-0.7013,-0.5782,-0.5918,-0.5513,-0.5289,-0.5316,-0.6113,-0.6828,-0.7517,-0.8217,-0.8741,-0.9185,-0.9299,-0.895,-0.8449,-0.8854,-0.9751,-1.0893,-1.1153,-1.3484,-1.6483,-1.6302,-1.8203,-2.0447,-1.9467,-1.9533,-2.0341,-2.2262,-2.263,-2.2895,-2.5116,0.0,0.0,-2.5816,-2.589,-2.5763,0.0,0.0,-2.4288,-2.3781,-2.3873,-2.4548,-2.6214,-2.7025,-2.8217,-3.0797,-3.1639,-3.2512,-3.4131,-3.5019,-3.5691,-3.6187,-3.6843,-3.7167,-3.7017,-3.7069,-3.7048,-3.6895,-3.6992,-3.697,-3.6736,-3.6974,-3.6601,-3.5491,-3.5347,-3.4668,-3.3372,-3.2437,-3.215,-3.243,-3.1753,-3.2152,-3.3562,-3.3734,-3.1081,-2.5812,-1.6189,-1.1439,-1.0082,-0.3922,-0.0283,0.1527,0.193,0.2905,0.3547,-0.2154,-0.3641,-0.2736,-0.6008,-0.6034,-0.6086,-0.6246,-0.5809,-0.5695,-0.6403,-0.6415,-0.7206,-0.9624,-1.0236,-1.1085,-1.2635,-1.2707,-1.2536,-1.2282,-1.5337,-1.6778,-1.5707,-1.7493,-1.8303,-1.7664,-1.5292,-1.3682,-1.2964,-0.9938,-0.7982,-0.7078,-0.4066,-0.2522,-0.2561,-0.1584,-0.1629,-0.2618,-0.316,-0.4106,-0.5415,-0.6241,-0.6756,-0.6968,-0.6614,-0.6443,-0.6453,-0.577,-0.6634,-0.8458,-1.1285,-1.3666,0.0,-1.6994,-1.8438,-1.9638,-1.9172,-1.9552,-2.0625,-2.2614,-2.331,-2.3881,-2.5824,0.0,0.0,0.0,-2.5672,-2.518,-2.4751,-2.4055,-2.3513,-2.3582,-2.4113,-2.4845,-2.5841,-2.6926,-2.8189,0.0,-3.0797,-3.1743,-3.2851,-3.4083,-3.4875,-3.4932,-3.5861,-3.6516,-3.6416,-3.6333,-3.6266,-3.6343,-3.6266,-3.6249,-3.6207,-3.5608,-3.5087,-3.4695,-3.355,-3.2467,-3.1483,-2.9915,-2.896,-2.859,-2.5511,-2.2908,-2.0818,-1.8573,-1.4955,-1.0089,-0.3672,-0.0682,0.0118,0.5432,0.8112,0.8917,1.0063,1.1747,1.2652,0.4999,0.2685,0.3428,-0.6354,-0.6601,-0.6865,-0.6975,-0.6667,-0.6528,-0.68,-0.6737,-0.705,-0.8166,-0.8287,-0.8465,-0.8908,-0.8953,-0.9432,-1.0557,-1.3277,-1.4999,-1.5163,-1.6235,-1.6576,-1.6012,-1.2998,-1.0918,-0.9929,-0.6894,-0.4452,-0.2745,-0.0133,0.1425,0.1946,0.2764,0.2274,0.0691,0.023,-0.1108,-0.3084,-0.386,-0.4613,-0.5142,-0.4536,-0.4552,-0.4925,-0.427,-0.5439,-0.7919,-1.1481,-1.3849,-1.5625,-1.7621,-1.9086,-1.9964,-1.9321,-1.9837,-2.1056,-2.2935,-2.4163,-2.5056,-2.5877,0.0,0.0,-2.5586,-2.5047,-2.443,-2.38,-2.2777,-2.2055,-2.2351,-2.3005,-2.381,-2.4499,-2.5913,-2.7373,-2.8419,-2.9652,-3.0671,-3.1337,-3.2766,-3.3691,-3.3677,-3.4391,-3.5037,-3.5399,-3.5701,-3.5881,-3.5827,-3.565,-3.5557,-3.547,-3.4259,-3.3428,-3.3256,-3.1466,-3.002,-2.909,-2.6793,-2.504,-2.3788,-1.8844,-1.4366,-1.0276,-0.441,-0.0321,0.2431,0.7363,0.9362,0.9528,1.3784,1.5749,1.6094,1.7083,1.8902,2.0105,1.3633,1.0854,1.0322,-0.6691,-0.7409,-0.7907,-0.7132,-0.7416,-0.7734,-0.7766,-0.7381,-0.7384,-0.8195,-0.8301,-0.8561,-0.9302,-1.0129,-1.0666,-1.0779,-1.2429,-1.3869,-1.4862,-1.3703,-1.3149,-1.3579,-1.0766,-0.777,-0.4766,-0.3119,-0.0133,0.4121,0.545,0.6756,0.8127,0.7444,0.6508,0.5245,0.4466,0.2458,-0.0334,-0.0833,-0.231,-0.4277,-0.3932,-0.4076,-0.4597,-0.5021,-0.7173,-1.0139,-1.0706,-1.3232,-1.6474,-1.7325,-1.9701,-2.1859,-1.9307,-1.9324,-2.075,-2.2947,-2.481,-2.5946,0.0,0.0,-2.5373,-2.4353,-2.3974,-2.3482,-2.1869,-2.0485,-1.9503,-1.9408,-1.9635,-2.0172,-2.1545,-2.3116,-2.479,-2.6584,-2.784,-2.8907,-2.9769,-3.0888,-3.1795,-3.2273,-3.2116,-3.2403,0.0,-3.527,-3.6028,-3.547,-3.5292,-3.4949,-3.4374,-3.3278,-3.2011,-3.0585,-2.9203,-2.761,-2.5774,-2.2916,-2.0399,-1.8187,-1.2978,-0.9095,-0.6206,0.4195,0.8425,0.8069,1.7095,2.022,1.9144,2.1305,2.2694,2.327,2.2048,2.3571,2.6301,2.5199,2.2204,1.8653,-0.8046,-0.8334,-0.8619,-0.8664,-0.8878,-0.9056,-0.9,-0.8369,-0.806,-0.8578,-0.9062,0.0,0.0,0.0,0.0,0.0,-1.3976,-1.5244,-1.5987,-1.424,-1.3195,-1.3154,-0.8509,-0.5276,-0.3983,0.0592,0.3526,0.4668,0.9173,1.1014,1.0313,1.1597,1.1091,0.8933,0.7504,0.4898,0.1518,0.017,-0.191,-0.4287,-0.3765,-0.4287,-0.56,-0.7923,-0.9769,-1.1625,0.0,-1.7779,-1.8375,-1.9677,-2.0846,-2.1583,-2.0695,-2.1166,-2.2327,-2.3916,-2.5596,-2.6754,0.0,0.0,-2.6054,-2.453,-2.308,-2.1644,-2.0218,-1.8692,-1.7736,-1.8282,-2.0602,-2.251,-2.257,-2.4241,-2.5744,-2.6028,-2.6155,-2.6622,-2.7894,-2.9506,-3.0661,-3.119,-3.1986,0.0,0.0,0.0,0.0,-3.4326,-3.3889,-3.3554,-3.3444,-3.1864,-3.0307,-2.8909,-2.7255,-2.5258,-2.2845,-1.9369,-1.5984,-1.2623,0.0111,0.8804,1.3811,2.1321,2.4804,2.5102,2.8327,2.88,2.734,2.8657,2.8804,2.8163,2.7873,2.889,3.043,2.991,2.8893,2.7472,0.0,-0.9239,-0.9663,-0.9953,-1.0079,0.0,0.0,0.0,0.0,0.0,0.0,0.0,0.0,0.0,0.0,0.0,0.0,-1.5449,-1.6126,-1.436,-1.3356,-1.3468,-0.9377,-0.6629,-0.5558,-0.1718,0.0698,0.1495,0.8614,1.1437,1.0247,1.4897,1.5479,1.2425,1.0226,0.7293,0.3773,0.0756,-0.2424,-0.5468,-0.5577,-0.708,-0.9479,-1.1539,-1.3148,0.0,-1.8821,-2.0334,-2.0649,-2.1627,-2.2202,-2.246,-2.2098,-2.2853,-2.4069,-2.4924,-2.6158,0.0,0.0,-2.6162,-2.5748,-2.3862,-2.2001,-2.0208,-1.8613,-1.6914,-1.5941,-1.6557,-1.9579,-2.2078,-2.1879,-2.4384,-2.6637,-2.7176,-2.7295,-2.7489,-2.8028,-2.9445,-3.0192,-2.9662,-3.0413,-3.0981,0.0,0.0,0.0,-3.2821,-3.2208,-3.1725,-3.1498,-2.9652,-2.8035,-2.6753,-2.4259,-2.1756,-1.9271,-1.4917,-0.9361,-0.2518,1.0262,1.9598,2.5749,3.0452,3.3134,3.4022,3.3928,3.3216,3.2086,3.2268,3.1966,3.1358,3.1271,3.2092,3.3244,3.3273,3.3651,3.3675,0.0,0.0,-1.091,0.0,0.0,0.0,0.0,0.0,0.0,0.0,0.0,0.0,0.0,0.0,0.0,0.0,0.0,0.0,-1.5462,-1.4012,-1.3479,-1.4285,-1.2837,-1.1041,-0.8984,-0.88,-0.7337,-0.4464,0.4065,0.8033,0.7747,1.6146,1.8143,1.4497,1.1505,0.8495,0.536,0.0552,-0.3988,-0.8005,-0.9152,-1.2024,-1.5709,-1.5605,-1.7229,-1.9568,-1.9547,-2.1062,-2.3088,-2.307,-2.3767,-2.4448,-2.3472,-2.4337,-2.5757,-2.5904,-2.648,-2.6948,-2.6489,-2.5652,-2.4484,-2.2439,-2.0789,-1.9099,-1.6915,-1.5216,-1.4148,-1.4349,-1.681,-1.9122,0.0,0.0,-2.6979,-2.9434,-3.0359,-3.0348,-2.9379,-3.0068,-2.9856,0.0,0.0,0.0,0.0,0.0,0.0,-3.0522,0.0,-2.9384,-2.852,-2.6606,-2.5026,-2.3861,-2.0148,-1.716,-1.4908,-0.9443,-0.0802,1.0974,1.7048,2.3126,2.9076,3.1641,3.3539,3.4792,3.4234,3.3881,3.3634,3.252,3.2463,3.2972,3.246,3.3316,3.4942,3.5549,3.6573,3.725,0.0,0.0,0.0,0.0,0.0,0.0,0.0,0.0,0.0,0.0,0.0,0.0,0.0,0.0,0.0,0.0,0.0,0.0,-1.6973,-1.4792,-1.3726,-1.428,-1.2172,-1.0461,-0.9365,-0.6763,-0.5374,-0.5301,-0.0363,0.1039,-0.0814,0.203,0.2268,0.022,-0.1344,-0.3326,-0.5645,-0.7676,-1.0113,-1.261,-1.3118,-1.4366,-1.622,-1.9046,-2.0397,-2.1066,-2.3406,-2.4192,0.0,0.0,0.0,0.0,0.0,-2.5731,-2.6235,-2.6266,-2.6422,-2.6477,-2.592,-2.5192,-2.3958,-2.1575,-1.9259,-1.7022,-1.5026,-1.3108,-1.2498,-1.5521,-1.8535,-2.148,0.0,0.0,0.0,-2.6111,-2.3492,0.0,-2.339,-2.4469,0.0,-2.503,0.0,-2.495,-2.4902,-2.3838,0.0,0.0,-2.4551,-2.5588,-2.4242,-2.2154,-2.013,-1.8398,-1.5681,-1.2368,-0.8456,-0.0266,0.7028,1.3459,1.9897,2.5032,2.8859,3.1781,3.3834,3.5092,3.5095,3.5086,3.5048,3.4562,3.4491,3.4641,3.4323,3.4864,3.5937,3.6517,3.7287,3.8028,0.0,0.0,0.0,0.0,0.0,0.0,0.0,0.0,0.0,0.0,0.0,0.0,0.0,0.0,0.0,0.0,0.0,0.0,0.0,-1.6386,-1.5937,-1.5886,-1.5287,-1.4744,-1.4345,-1.2367,-1.199,-1.3276,-0.7106,-0.5387,-0.7762,-0.3159,-0.1983,-0.3846,-0.5759,-0.7424,-0.8952,-1.173,-1.4349,0.0,0.0,-1.8761,-2.0883,-2.2697,-2.3161,-2.3097,-2.4843,0.0,0.0,0.0,0.0,-2.6457,-2.6174,-2.6379,-2.6675,-2.6349,0.0,-2.6484,-2.5519,-2.426,-2.2683,-2.0589,-1.824,-1.6274,-1.5262,-1.4281,-1.4439,-1.7245,-2.0587,0.0,0.0,0.0,0.0,0.0,0.0,0.0,-2.2147,-2.2961,-2.3028,0.0,-2.1704,0.0,-2.0164,-1.8963,-1.7134,0.0,-1.8731,-2.0608,-1.886,-1.6777,-1.4778,-1.2933,-0.999,-0.5683,0.013,0.6764,1.2494,1.7342,2.2636,2.6794,2.9915,3.2428,3.415,3.5165,0.0,3.5582,3.5635,3.5454,3.5611,3.5949,3.5717,3.6169,3.6973,3.7738,3.8248,3.8658,0.0,0.0,0.0,0.0,0.0,0.0,0.0,0.0,0.0,0.0,-1.3358,0.0,0.0,0.0,0.0,0.0,0.0,0.0,0.0,0.0,-1.8737,-1.8102,-1.9641,-2.0513,-2.0513,-2.0627,-2.1479,-2.3091,-1.5034,-1.2265,-1.4299,-0.6092,-0.3353,-0.5398,-0.8087,-0.9584,-1.0362,-1.4732,-1.8062,-2.0474,-2.1275,-2.3588,-2.6459,0.0,-2.5398,-2.5177,0.0,0.0,0.0,0.0,-2.6764,-2.6284,-2.6184,-2.6534,-2.6804,-2.6204,-2.6239,-2.6161,-2.49,-2.3037,-2.0975,-1.9363,-1.7368,-1.58,-1.6215,-1.6529,-1.7206,-1.9194,0.0,0.0,-2.4777,0.0,-2.5634,-2.67,0.0,-2.2991,-2.2467,-2.2628,-2.1627,-1.8366,-1.7756,-1.6723,-1.4726,-1.3686,-1.1715,-0.8237,-1.213,-1.4006,-1.2575,-1.0621,-0.8692,-0.6836,-0.3153,0.197,0.8563,1.2012,1.6245,2.1302,2.5009,2.8344,3.1373,3.322,3.4472,3.5148,3.5488,3.5655,3.5714,3.5645,3.6036,3.667,3.6652,3.7127,3.7951,3.8866,3.9205,3.9329,0.0,0.0,0.0,0.0,0.0,0.0,0.0,0.0,0.0,0.0,-1.5583,-1.5389,0.0,0.0,0.0,0.0,0.0,0.0,0.0,0.0,0.0,-1.8984,-2.0016,-2.0585,-2.0585,-2.1237,-2.2046,-2.3017,-2.2055,-2.2133,-2.3178,-2.1587,-2.1074,-2.1482,-2.2028,-2.2315,-2.2461,-2.3341,-2.4046,-2.4573,-2.4736,-2.5177,-2.576,-2.6337,0.0,0.0,0.0,0.0,0.0,0.0,-2.7333,-2.7265,-2.6733,-2.6336,-2.5972,-2.556,-2.4563,-2.3515,-2.3099,-2.1105,-1.8929,-1.8129,-1.5839,-1.4109,-1.566,-1.4879,0.0,0.0,0.0,-2.3464,-2.6681,-2.5226,0.0,-2.32,0.0,0.0,0.0,0.0,-1.6476,0.0,0.0,0.0,0.0,0.0,0.0,0.0,0.0,-0.3851,-0.5785,-0.3387,-0.0737,0.1981,0.5934,0.9132,1.1363,1.5099,1.8751,2.2233,2.611,2.9145,3.138,3.3528,3.4823,3.5356,3.5582,0.0,3.5858,3.5795,3.5858,3.6027,3.6628,3.7314,3.8064,3.8888,3.9642,4.0273,0.0,0.0,0.0,0.0,0.0,0.0,0.0,-1.7936,-1.8404,-1.9178,-1.8858,-1.8752,-1.9182,-1.9261,-1.9645,0.0,0.0,0.0,0.0,0.0,0.0,0.0,0.0,0.0,-2.1223,-2.2015,0.0,0.0,0.0,-2.4563,-2.5346,0.0,0.0,-2.5398,-2.5398,-2.5398,-2.5406,-2.5434,-2.5498,-2.5593,-2.6083,-2.6269,-2.6314,0.0,0.0,0.0,0.0,0.0,0.0,0.0,-2.7256,-2.6821,-2.6739,-2.6289,-2.5697,-2.4909,-2.3879,-2.2765,-2.1369,-1.9626,-1.7846,-1.6088,-1.4193,-1.3397,-1.608,0.0,0.0,0.0,0.0,-2.5485,-2.6941,0.0,0.0,0.0,0.0,0.0,0.0,0.0,0.0,0.0,0.0,0.0,0.0,0.0,0.0,0.0,0.0,0.3218,0.0076,0.2663,0.5376,0.7834,1.0695,1.3141,1.5083,1.8316,2.1545,2.4876,2.7841,3.0356,3.2506,3.4476,3.5598,3.5997,3.6299,0.0,3.654,3.6092,3.6147,3.6555,3.6927,3.7783,3.8883,3.9313,3.9973,4.0662,0.0,0.0,0.0,0.0,0.0,0.0,0.0,-1.98,-2.0414,-2.1281,-2.1899,-2.2196,-2.2048,-2.1483,-2.1289,0.0,0.0,0.0,0.0,0.0,0.0,0.0,0.0,0.0,0.0,0.0,0.0,0.0,0.0,0.0,0.0,0.0,0.0,0.0,0.0,0.0,-2.5312,-2.5376,-2.555,0.0,0.0,0.0,0.0,0.0,0.0,0.0,0.0,0.0,0.0,0.0,-2.7255,-2.6194,-2.653,-2.6026,-2.5209,-2.4283,-2.3404,-2.2244,-1.9985,-1.8496,-1.6902,-1.4343,-1.2769,-1.2807,-1.6468,-1.7792,0.0,0.0,0.0,-2.707,-2.6437,0.0,0.0,0.0,0.0,0.0,0.0,0.0,0.0,0.0,0.0,0.0,0.0,0.0,0.0,0.0,0.0,0.0,0.5663,0.8089,1.0362,1.2073,1.397,1.6203,1.8782,2.1239,2.4079,2.7257,2.9399,3.1392,3.3323,3.5021,3.5964,3.6251,3.6801,0.0,0.0,3.6428,3.6504,3.6944,3.7113,3.7955,3.9112,3.954,4.0051,4.0577,0.0,0.0,0.0,0.0,0.0,0.0,0.0,-2.0352,-2.146,-2.2575,-2.3504,-2.4234,-2.47,-2.3419,-2.2554,0.0,0.0,0.0,0.0,0.0,0.0,0.0,0.0,0.0,0.0,0.0,0.0,0.0,0.0,0.0,0.0,0.0,0.0,0.0,0.0,0.0,0.0,-2.5398,0.0,0.0,0.0,0.0,0.0,0.0,0.0,0.0,0.0,0.0,0.0,0.0,0.0,-2.6296,-2.6351,-2.5075,-2.3644,-2.3654,0.0,0.0,-1.9496,-1.7573,-1.5616,-1.4041,-1.188,-1.1377,-1.5978,0.0,0.0,0.0,-2.5101,-2.5298,-2.5398,0.0,0.0,0.0,0.0,-2.1425,0.0,0.0,0.0,0.0,0.0,0.0,0.0,0.0,0.0,0.0,0.0,0.0,1.1518,1.2892,1.419,1.5061,1.7071,1.9318,2.1805,2.3658,2.5671,2.7775,3.0194,3.1773,3.254,3.4124,3.5002,3.5366,3.6451,0.0,0.0,3.6704,3.6618,3.6092,3.6816,3.7196,3.7523,3.9114,3.9674,3.9741,0.0,0.0,0.0,0.0,0.0,0.0,-2.0515,-2.1662,-2.2807,-2.3725,-2.4351,-2.4829,-2.5062,-2.4679,-2.4194,-2.3745,0.0,0.0,0.0,0.0,0.0,0.0,0.0,0.0,0.0,0.0,-2.4942,-2.4829,0.0,0.0,0.0,0.0,0.0,0.0,0.0,0.0,0.0,0.0,0.0,0.0,0.0,0.0,0.0,0.0,0.0,0.0,0.0,0.0,0.0,0.0,0.0,0.0,-2.6089,-2.4846,0.0,0.0,-2.249,-2.1365,-1.9802,-1.832,-1.6831,-1.4792,-1.3853,-1.4238,-1.7082,0.0,0.0,-2.3915,-2.4904,-2.5057,-2.5264,-2.533,0.0,0.0,0.0,0.0,0.0,0.0,0.0,0.0,0.0,0.0,0.0,0.0,0.0,0.0,0.0,0.0,1.5248,1.5272,1.5928,1.7177,1.8946,2.0933,2.3062,2.5241,2.7369,2.9368,3.0938,3.2488,3.4079,3.5625,3.6673,3.7352,3.804,0.0,0.0,3.7024,3.6507,3.5811,3.6138,3.6869,3.7853,3.8596,3.9455,4.0349,0.0,0.0,0.0,0.0,0.0,-2.0845,-2.133,-2.2479,-2.3614,-2.4482,-2.4818,-2.5042,-2.5177,-2.5369,-2.526,-2.4737,-2.3981,0.0,0.0,0.0,0.0,0.0,0.0,0.0,0.0,0.0,-2.5599,-2.573,-2.5795,-2.5945,0.0,0.0,0.0,0.0,0.0,0.0,0.0,0.0,0.0,0.0,0.0,0.0,0.0,0.0,0.0,0.0,0.0,0.0,0.0,0.0,0.0,0.0,0.0,0.0,0.0,0.0,-2.325,-2.2474,-2.1073,-1.9902,-1.8466,-1.5953,-1.5549,-1.6201,0.0,0.0,0.0,-2.4148,-2.4904,-2.5069,-2.5303,-2.5371,-2.5413,-2.5428,-2.4974,-2.3783,-2.1462,0.0,0.0,0.0,0.0,0.0,0.0,0.0,0.0,0.0,0.0,0.0,1.8397,1.804,1.8212,1.9169,2.0828,2.272,2.4745,2.6914,2.8841,3.0468,3.1709,3.3176,3.4866,3.6261,3.739,3.8287,3.8882,0.0,0.0,3.7304,3.6552,3.5573,3.5566,3.6424,3.775,3.8064,3.9092,4.0458,0.0,0.0,0.0,0.0,0.0,0.0,-2.1277,-2.2479,-2.3659,-2.4662,-2.4917,-2.5094,-2.5376,-2.5398,-2.5453,-2.5576,-2.4859,0.0,0.0,0.0,0.0,0.0,0.0,0.0,0.0,0.0,-2.5993,-2.6783,-2.6783,-2.7235,-2.8077,-2.8077,0.0,0.0,0.0,0.0,0.0,0.0,0.0,0.0,0.0,0.0,0.0,0.0,0.0,0.0,0.0,0.0,0.0,0.0,0.0,0.0,0.0,-2.6835,-2.5911,-2.5492,-2.4826,-2.41,-2.3378,-2.2009,-2.0164,-1.7626,-1.6329,-1.6121,0.0,0.0,0.0,-2.4056,-2.4904,-2.5083,-2.5356,-2.5394,-2.5421,-2.5498,-2.6152,0.0,-1.985,0.0,0.0,0.0,0.0,0.0,0.0,0.0,0.0,0.0,0.0,0.0,2.1049,2.1608,2.1768,2.1378,2.2994,2.4911,2.716,2.8853,2.997,3.0628,3.2552,3.3707,3.4136,3.5216,3.6269,3.7257,0.0,0.0,0.0,3.751,3.6863,3.5295,3.5229,3.5748,3.6622,3.7564,3.8497,3.9573,0.0,0.0,0.0,0.0,0.0,0.0,0.0,-2.3063,-2.4054,-2.3941,-2.455,-2.508,-2.5312,-2.536,-2.5408,-2.5459,-2.5308,0.0,0.0,0.0,0.0,0.0,0.0,0.0,0.0,-2.5601,-2.5993,-2.6802,-2.6841,-2.7306,-2.8168,-2.8227,-2.8234,-2.8214,0.0,0.0,0.0,0.0,0.0,0.0,0.0,0.0,0.0,0.0,0.0,0.0,0.0,0.0,0.0,0.0,0.0,0.0,0.0,0.0,0.0,-2.5677,-2.5139,-2.4405,-2.3328,-2.2735,-2.2,-2.0322,-2.0135,-2.0485,-2.0721,0.0,0.0,-2.4511,-2.4828,-2.4974,-2.5321,-2.5441,-2.5698,-2.636,-2.6707,-2.6346,0.0,0.0,0.0,0.0,0.0,0.0,0.0,0.0,0.0,0.0,0.0,0.0,2.1768,2.2455,2.2988,2.3161,2.4753,2.6458,2.8298,2.9746,3.0996,3.205,3.2732,3.3633,3.4587,3.5224,3.6,0.0,0.0,0.0,0.0,3.6348,3.578,3.4756,3.4775,3.559,3.6842,3.7483,3.8999,4.0921,0.0,0.0,0.0,0.0,0.0,0.0,0.0,-2.301,-2.3843,-2.3531,-2.4043,-2.4655,-2.5254,-2.5339,-2.5368,-2.5398,-2.5508,0.0,0.0,0.0,0.0,0.0,0.0,0.0,-2.5636,-2.5935,-2.6673,-2.7855,-2.8178,-2.8962,-3.0169,-3.0195,-3.0059,-2.9766,-2.9434,-2.9101,0.0,0.0,0.0,0.0,0.0,0.0,-3.3612,0.0,0.0,0.0,0.0,0.0,0.0,0.0,0.0,0.0,0.0,0.0,0.0,0.0,-2.5375,-2.4917,-2.4367,-2.4071,-2.3639,-2.24,-2.257,0.0,0.0,0.0,0.0,-2.476,-2.4893,-2.5077,-2.5383,-2.5471,-2.5699,-2.6305,-2.6443,0.0,0.0,0.0,0.0,0.0,0.0,0.0,0.0,0.0,0.0,0.0,0.0,0.0,2.2628,2.3467,2.4226,2.4872,2.6148,2.7519,2.9036,3.022,3.138,3.2553,3.2795,3.355,3.4772,3.5073,3.5721,0.0,0.0,0.0,0.0,3.5572,3.5231,3.475,3.4689,3.5744,3.728,3.7646,3.9126,4.1036,0.0,0.0,0.0,0.0,0.0,0.0,0.0,-2.2446,-2.3061,-2.3366,-2.3491,-2.398,-2.5168,-2.5303,-2.5321,-2.5379,0.0,0.0,0.0,0.0,0.0,0.0,0.0,0.0,-2.5781,-2.6529,-2.7817,-2.9687,-3.0355,-3.1626,-3.3398,-3.3398,-3.2969,-3.2168,-3.1348,-3.0508,-2.9746,0.0,0.0,0.0,0.0,-3.2812,0.0,0.0,0.0,0.0,0.0,0.0,0.0,0.0,0.0,0.0,0.0,0.0,0.0,0.0,0.0,0.0,0.0,-2.5664,-2.4941,-2.3849,-2.3729,-2.3714,-2.2917,-2.3813,0.0,-2.481,-2.5076,-2.5361,-2.5543,-2.5546,-2.557,-2.5751,-2.5723,0.0,0.0,0.0,0.0,0.0,0.0,0.0,0.0,0.0,0.0,0.0,0.0,0.0,2.3695,2.4469,2.537,2.6351,2.7203,2.8255,2.952,3.0385,3.1321,3.2283,3.2681,3.3471,3.46,3.4728,3.5349,0.0,0.0,0.0,0.0,3.5058,3.5016,3.5064,3.4842,3.5964,3.7766,3.8003,3.887,4.0266,0.0,0.0,0.0,0.0,0.0,0.0,0.0,0.0,0.0,0.0,-2.324,-2.4125,-2.5197,-2.5303,-2.534,0.0,0.0,0.0,0.0,0.0,0.0,0.0,0.0,0.0,-2.668,-2.6822,-2.8056,-3.0445,-3.0555,-3.1553,-3.3317,-3.3317,-3.292,-3.2187,-3.1992,-3.1406,-3.0605,-3.0801,0.0,0.0,-3.168,-3.1777,0.0,0.0,0.0,0.0,-2.8781,-2.8775,0.0,0.0,0.0,0.0,0.0,0.0,0.0,0.0,-2.4764,-2.4537,-2.4813,0.0,-2.5156,-2.4264,-2.4076,-2.4127,0.0,-2.433,-2.4631,-2.4888,-2.5069,-2.5416,-2.6323,-2.5944,-2.5956,-2.7368,0.0,-2.3932,0.0,0.0,0.0,0.0,0.0,0.0,0.0,0.0,0.0,0.0,0.0,2.3754,2.461,2.4937,2.5673,2.6779,2.8141,2.9136,2.9816,3.0584,3.1334,3.2161,3.2472,3.2859,3.3342,3.3575,3.3862,0.0,0.0,0.0,3.372,3.3615,3.3797,3.415,3.4231,3.5413,3.7098,3.7609,3.8932,4.0736,0.0,0.0,0.0,0.0,0.0,0.0,0.0,0.0,0.0,0.0,0.0,-2.3821,-2.5194,-2.536,0.0,0.0,0.0,0.0,0.0,0.0,0.0,0.0,0.0,-2.6021,-2.6928,-2.729,-2.8716,-3.1308,-3.1621,-3.268,-3.4399,-3.4464,-3.3844,-3.2668,-3.1933,-3.1348,-3.0937,-3.1328,-3.1543,-3.1601,-3.1523,0.0,0.0,0.0,0.0,0.0,-2.8296,-2.8142,0.0,-2.8055,-2.8481,-2.883,0.0,0.0,0.0,0.0,-2.467,-2.4246,-2.445,-2.4948,-2.5197,-2.4392,-2.454,-2.48,-2.4448,-2.4542,-2.4754,-2.4879,-2.5059,-2.5386,-2.6048,-2.5768,0.0,0.0,-2.4,0.0,0.0,0.0,0.0,0.0,0.0,0.0,0.0,0.0,0.0,0.0,0.0,2.4439,2.5258,2.573,2.6383,2.7398,2.8815,2.9586,2.954,3.0596,3.1318,3.1728,3.2055,3.2404,3.277,3.306,3.3244,0.0,0.0,0.0,3.2939,3.2699,3.2995,3.3617,3.4093,3.5309,3.6844,3.7771,3.9184,4.0829,0.0,0.0,0.0,0.0,0.0,0.0,0.0,0.0,0.0,0.0,0.0,0.0,0.0,0.0,0.0,0.0,0.0,0.0,0.0,0.0,0.0,0.0,-2.5692,-2.6197,-2.7231,-2.7926,-2.9552,-3.2143,-3.2966,-3.4114,-3.5516,-3.5885,-3.5077,-3.3256,-3.1755,-3.1016,-3.0957,-3.1699,-3.1582,-3.0957,-3.1699,0.0,0.0,0.0,0.0,0.0,0.0,0.0,0.0,-2.7796,-2.7979,-2.8012,-2.7432,0.0,0.0,0.0,0.0,0.0,-2.4489,-2.5224,-2.5649,-2.4561,-2.4912,-2.5301,-2.4506,-2.4676,-2.4989,-2.4889,-2.5124,-2.5387,-2.5572,-2.5613,0.0,0.0,0.0,0.0,0.0,0.0,0.0,0.0,0.0,0.0,0.0,0.0,0.0,0.0,0.0,2.509,2.5729,2.6412,2.7167,2.792,2.938,2.9902,2.9422,3.0762,3.1506,3.1674,3.2093,3.2529,3.296,3.3084,3.3239,3.3412,0.0,0.0,3.2553,3.2021,3.2381,3.3397,3.408,3.533,3.691,3.82,3.9438,4.0731,0.0,0.0,0.0,0.0,0.0,0.0,0.0,0.0,0.0,0.0,0.0,0.0,0.0,0.0,0.0,0.0,0.0,0.0,0.0,0.0,0.0,-2.6468,-2.6533,-2.7332,-2.8899,-2.9044,-3.0348,-3.2859,-3.3713,-3.4329,-3.4718,-3.6158,-3.5602,-3.3339,-3.2402,-3.1582,-3.0918,-3.1035,-3.1016,-3.0918,-3.1055,0.0,0.0,0.0,0.0,0.0,0.0,0.0,0.0,-2.5561,-2.6039,-2.6631,-2.5218,0.0,0.0,0.0,0.0,0.0,-2.4636,-2.6451,-2.7635,-2.53,-2.47,-2.4712,-2.4847,-2.4947,-2.5034,-2.5177,-2.5348,-2.5674,-2.6374,-2.6581,-2.6896,0.0,0.0,0.0,0.0,0.0,0.0,0.0,0.0,0.0,0.0,0.0,0.0,0.0,0.0,2.566,2.5839,2.6397,2.7181,2.811,2.9687,3.0651,3.0908,3.189,3.2694,3.3321,3.3873,3.4211,3.4464,3.3967,3.3883,3.3996,0.0,3.2144,3.2056,3.1232,3.1884,3.3393,3.3519,3.4978,3.7193,3.8527,3.9516,4.0533,0.0,0.0,0.0,0.0,0.0,0.0,0.0,0.0,0.0,0.0,0.0,0.0,0.0,0.0,0.0,0.0,0.0,0.0,0.0,0.0,-2.7673,-2.8602,-2.8261,-2.8222,-2.8592,-2.9477,-3.1172,-3.3693,-3.4583,-3.5241,-3.5667,-3.5169,-3.4369,-3.3289,-3.2049,-3.1289,-3.0898,-3.0898,-3.0898,-3.0898,0.0,0.0,0.0,0.0,0.0,0.0,0.0,0.0,0.0,0.0,-2.5741,-2.5965,-2.512,0.0,0.0,0.0,0.0,0.0,-2.4561,-2.552,-2.6414,-2.6336,-2.722,-2.801,-2.7627,-2.7561,-2.737,-2.6629,-2.6683,-2.668,0.0,0.0,-2.1016,-1.363,0.0,0.0,0.0,0.0,0.0,0.0,0.0,0.0,0.0,0.0,0.0,0.0,0.0,0.0,2.6204,2.7335,2.8277,2.8857,3.0357,3.1524,3.2313,3.2804,3.315,3.3414,3.3768,3.4202,3.4635,3.4464,3.4217,3.3841,0.0,3.2152,3.155,3.1274,3.1725,3.2614,3.3601,3.5225,3.7347,4.0096,4.1401,4.2133,0.0,0.0,0.0,0.0,0.0,0.0,0.0,0.0,0.0,0.0,0.0,0.0,0.0,0.0,0.0,0.0,0.0,0.0,0.0,-2.7306,-2.7871,-3.0006,-2.964,-2.931,-2.9138,-3.0238,-3.2048,-3.4569,-3.5278,-3.5999,-3.671,-3.4539,-3.3453,-3.3246,-3.1832,-3.1094,-3.0898,-3.0898,-3.0898,-3.0898,0.0,0.0,0.0,0.0,0.0,0.0,0.0,0.0,0.0,0.0,0.0,0.0,0.0,0.0,0.0,-2.4392,-2.419,-2.4247,-2.4462,-2.4887,-2.5643,-2.7235,-2.8704,-2.9827,-3.0122,-2.9773,-2.9179,-2.8456,-2.8447,0.0,0.0,-2.226,0.0,0.0,0.0,0.0,0.0,0.0,0.0,0.0,0.0,0.0,0.0,0.0,0.0,0.0,0.0,0.0,2.6472,2.7827,2.8823,2.9134,3.038,3.1706,3.3056,3.3209,3.3307,3.3369,3.388,3.4335,3.4613,3.4731,3.4272,3.3424,3.2855,3.195,3.0877,3.1169,3.1544,3.2164,3.3873,3.5949,3.8374,4.1484,4.309,4.3893,0.0,0.0,0.0,0.0,0.0,0.0,0.0,0.0,0.0,0.0,0.0,0.0,0.0,0.0,0.0,0.0,0.0,0.0,0.0,-2.7843,-2.8217,-2.914,-2.991,-3.1006,-3.2499,-3.1979,-3.2926,-3.5405,-3.5543,-3.6054,-3.6859,-3.5243,-3.4062,-3.3266,-3.2457,-3.166,-3.0898,-3.0898,-3.0898,-3.0898,-3.0898,0.0,0.0,0.0,0.0,0.0,0.0,0.0,0.0,0.0,0.0,0.0,0.0,0.0,-2.4263,-2.4226,-2.419,-2.4247,-2.4462,-2.5987,-2.7587,-2.768,-2.661,-2.6603,-3.0639,-2.9771,-2.8617,-3.0302,-3.0484,0.0,0.0,-2.0876,0.0,0.0,0.0,0.0,0.0,0.0,0.0,0.0,0.0,0.0,0.0,0.0,0.0,0.0,0.0,0.0,2.634,2.6943,2.7698,2.8479,2.9046,3.032,3.2329,3.2736,3.3224,3.3884,3.5386,3.5683,3.4954,3.4709,3.404,3.2976,3.1873,3.0852,2.9941,3.0253,3.1228,3.2661,3.4071,3.731,4.1251,4.1912,4.3287,4.4968,0.0,0.0,0.0,0.0,0.0,0.0,0.0,0.0,0.0,0.0,0.0,0.0,0.0,0.0,0.0,0.0,0.0,0.0,0.0,-2.789,-2.8736,-3.0621,-3.0506,-3.1179,-3.2852,-3.2625,-3.3723,-3.6257,-3.6812,-3.6736,-3.5997,-3.4447,-3.3268,-3.2396,-3.1692,-3.1211,-3.0898,-3.0898,-3.0898,-3.0859,-3.0312,-2.9375,0.0,0.0,0.0,0.0,0.0,0.0,0.0,0.0,-2.4575,-2.4303,-2.4228,-2.419,-2.419,-2.419,-2.419,-2.4209,-2.4284,-2.6151,-2.7961,-2.7596,-2.7501,-2.8281,-3.147,-3.1126,-3.0504,-3.1864,-3.1734,0.0,0.0,0.0,0.0,0.0,0.0,0.0,0.0,0.0,0.0,0.0,0.0,0.0,0.0,0.0,0.0,0.0,0.0,0.0,2.6165,2.6953,2.7662,2.8246,2.891,3.0064,3.1785,3.1773,3.1778,3.1789,3.3723,3.4158,3.3282,3.3383,3.2649,3.131,3.1365,3.0767,2.9915,3.0825,3.1624,3.2595,3.5457,3.8363,4.1024,4.2441,4.3765,4.4972,0.0,0.0,0.0,0.0,0.0,0.0,0.0,0.0,0.0,0.0,0.0,0.0,0.0,0.0,0.0,0.0,0.0,0.0,-2.739,-2.7486,-2.8506,-3.0775,-3.0314,-3.0775,-3.2487,-3.2776,-3.4026,-3.6334,-3.693,-3.6334,-3.4641,-3.3364,-3.2608,-3.2273,-3.1274,-3.1016,-3.1269,-3.0723,-3.0488,-3.041,-2.9531,-2.8672,0.0,0.0,0.0,0.0,0.0,0.0,0.0,0.0,-2.4559,-2.4284,-2.4209,-2.419,-2.419,-2.419,-2.419,-2.4209,-2.4266,-2.5671,-2.7083,-2.697,-2.7656,-2.8974,-3.1282,-3.1508,-3.167,-3.3264,-3.2279,-2.9795,-2.5493,0.0,0.0,0.0,0.0,0.0,0.0,0.0,0.0,0.0,0.0,0.0,0.0,0.0,0.0,0.0,0.0,0.0,0.0,2.682,2.7374,2.7973,2.8647,2.9681,3.1102,3.1029,3.0706,3.0038,3.1261,3.1566,3.102,3.1365,3.0784,2.9485,3.0383,3.0228,2.9441,3.1016,3.2331,3.3657,3.6603,3.9071,4.1085,4.2684,4.3924,4.4956,0.0,0.0,0.0,0.0,0.0,0.0,0.0,0.0,-2.5376,-2.5303,-2.5303,0.0,0.0,0.0,0.0,0.0,0.0,0.0,-2.6544,-2.6601,-2.7351,-2.9025,-2.9102,-2.991,-3.166,-3.2487,-3.3737,-3.5488,-3.5493,-3.4603,-3.2852,-3.2126,-3.2286,-3.3087,-3.1424,-3.123,-3.2051,-3.0312,-2.959,-2.9512,-2.8633,-2.7773,-2.6992,0.0,0.0,0.0,0.0,0.0,0.0,0.0,-2.467,-2.4461,-2.4247,-2.419,-2.419,-2.419,-2.419,-2.4228,-2.4444,-2.4636,-2.4996,-2.5712,-2.6565,-2.7758,-2.9819,-3.053,-3.1619,-3.4467,-3.2072,-2.9242,-2.8504,0.0,0.0,0.0,0.0,0.0,0.0,0.0,0.0,0.0,0.0,0.0,0.0,0.0,0.0,0.0,0.0,0.0,0.0,2.6336,2.664,2.7464,2.8097,2.8982,3.0164,3.0649,3.0211,2.897,2.8331,2.8179,2.849,2.8829,2.8455,2.7651,2.8928,2.8923,2.8197,3.0517,3.3292,3.6197,3.7285,3.9381,4.1848,4.2539,4.3695,4.5093,0.0,0.0,0.0,0.0,0.0,0.0,0.0,0.0,-2.5387,-2.5303,-2.5303,0.0,0.0,0.0,0.0,0.0,0.0,0.0,-2.6544,-2.6601,-2.7351,-2.9025,-2.9102,-2.9621,-3.0756,-3.1667,-3.2936,-3.4584,-3.4587,-3.3402,-3.1142,-3.0972,-3.0417,-2.9552,-2.9767,-2.9687,-2.9355,-2.8887,-2.8691,-2.8613,-2.7734,-2.7226,-2.6914,0.0,0.0,0.0,0.0,0.0,0.0,0.0,0.0,0.0,-2.4209,-2.419,-2.419,-2.419,-2.3804,-2.3382,-2.3538,-2.5072,-2.6322,-2.503,-2.7208,-2.9526,-2.9004,-3.0208,-3.1482,0.0,-3.2596,-3.1698,-2.6549,0.0,0.0,0.0,0.0,0.0,0.0,0.0,0.0,0.0,0.0,0.0,0.0,0.0,0.0,0.0,0.0,0.0,0.0,2.619,2.6692,2.747,2.7485,2.8057,2.9279,2.8697,2.7996,2.714,2.5548,2.5271,2.616,2.6241,2.6159,2.6003,2.7298,2.7904,2.8154,3.0534,3.3349,3.6147,3.6565,3.8349,4.0799,4.1956,4.3249,4.4634,0.0,0.0,0.0,0.0,0.0,0.0,-2.5371,-2.5354,-2.5348,-2.5313,-2.5303,-2.5303,0.0,0.0,0.0,-2.5832,-2.5832,-2.6043,-2.6563,-2.6274,-2.6832,-2.8555,-2.8613,-2.9344,-3.0883,-3.1506,-3.2112,-3.2733,-3.2724,-3.1584,-2.9413,-2.9786,-2.9632,-2.911,-2.9674,-2.97,-2.9238,-2.8574,-2.8085,-2.7672,-2.6794,-2.6438,-2.6349,0.0,0.0,0.0,0.0,0.0,0.0,0.0,0.0,0.0,-2.419,-2.4247,-2.4321,-2.4321,-2.4023,-2.3923,-2.4912,-2.6223,-2.7315,-2.7267,-2.8865,-3.0118,-2.8809,0.0,0.0,0.0,-2.9582,-2.8809,-2.3678,0.0,0.0,0.0,0.0,0.0,0.0,0.0,0.0,0.0,0.0,0.0,0.0,0.0,0.0,0.0,0.0,0.0,0.0,2.5122,2.5596,2.6643,2.6643,2.7143,2.834,2.737,2.6308,2.5123,2.3579,2.2815,2.2751,2.3335,2.3777,2.4186,2.6164,2.7858,2.9272,3.0925,3.3028,3.534,3.5854,3.7494,3.9761,4.1292,4.253,4.3601,0.0,0.0,0.0,0.0,0.0,0.0,-2.5303,-2.536,-2.5418,-2.5418,-2.5418,-2.5418,0.0,0.0,0.0,-2.6486,-2.6544,-2.6563,-2.6486,-2.5726,-2.6082,-2.7815,-2.8046,-2.922,-3.1537,-3.1588,-3.1158,-3.0275,-3.0274,-2.9428,-2.7802,-2.8618,-2.9477,-3.035,-3.0372,-3.0443,-3.043,-2.8769,-2.7554,-2.6715,-2.591,-2.5554,-2.5484,-2.5428,0.0,0.0,0.0,0.0,0.0,0.0,0.0,0.0,-2.419,-2.4339,-2.4478,-2.4495,-2.4689,-2.5354,-2.7523,-2.7743,-2.8046,-3.0947,-3.0712,0.0,-2.891,-2.8589,-2.7929,-2.6136,0.0,-2.3095,0.0,0.0,0.0,0.0,0.0,0.0,0.0,0.0,0.0,0.0,0.0,0.0,0.0,0.0,0.0,0.0,0.0,0.0,0.0,2.3764,2.4064,2.5562,2.5655,2.6256,2.7348,2.6437,2.5009,2.3083,2.2189,2.0849,1.9146,2.0521,2.1691,2.2703,2.5534,2.8185,3.0503,3.1195,3.2302,3.3806,3.5074,3.6692,3.8581,4.0451,4.1484,4.2143,0.0,0.0,0.0,0.0,0.0,0.0,-2.5274,-2.589,-2.6332,-2.6332,-2.6332,-2.6332,-2.6332,-2.6486,0.0,-2.563,-2.6217,-2.6313,-2.561,-2.5399,-2.6082,-2.7815,-2.9171,-3.0143,-3.0745,-3.0138,-2.9404,-2.854,-2.8548,-2.8001,-2.6983,-2.7832,-2.7995,-2.759,-2.8364,-2.8369,-2.7695,-2.6628,-2.6069,-2.5854,-2.5625,-2.5503,-2.5484,-2.5428,-2.5394,0.0,0.0,0.0,0.0,0.0,0.0,0.0,-2.419,-2.4228,-2.4303,-2.4444,-2.5031,-2.5861,-2.716,-2.7922,0.0,-2.9734,-2.8622,-2.7284,-2.7444,-2.5342,-2.3478,-2.374,0.0,0.0,0.0,0.0,0.0,0.0,0.0,0.0,0.0,0.0,0.0,0.0,0.0,0.0,0.0,0.0,0.0,0.0,0.0,0.0,2.4553,2.466,2.5218,2.6183,2.5522,2.5508,2.6261,2.5374,2.4052,0.0,2.092,2.0161,1.9996,2.0404,2.1817,2.3894,2.5551,2.6704,2.7471,2.8778,3.0045,3.1226,3.3073,3.4881,3.6734,3.8997,4.0006,4.0515,0.0,0.0,0.0,0.0,0.0,0.0,0.0,0.0,-2.7351,-2.614,-2.6351,-2.6447,-2.6024,-2.6351,0.0,0.0,-2.6351,-2.6409,-2.5947,-2.5534,-2.6082,-2.7824,-2.994,-3.0694,-2.9896,-2.953,-2.8725,-2.7422,-2.7046,-2.6592,-2.6105,-2.6964,-2.7171,-2.6836,-2.7787,-2.7725,-2.6869,-2.6418,-2.5937,-2.5493,-2.5477,-2.5202,-2.4871,-2.5108,-2.4966,-2.4668,-2.4841,0.0,0.0,0.0,0.0,0.0,0.0,0.0,-2.451,-2.4693,-2.5149,-2.61,-2.8274,0.0,0.0,-2.9972,0.0,-2.7762,-2.5476,-2.3671,-2.2105,-2.0948,0.0,0.0,0.0,0.0,0.0,0.0,0.0,0.0,0.0,0.0,0.0,0.0,0.0,0.0,0.0,0.0,0.0,0.0,0.0,2.4529,2.317,2.3107,2.3767,2.529,2.4485,2.4472,2.539,2.4413,2.2714,2.0534,1.9717,1.9154,1.8914,1.996,2.147,2.3278,2.5305,2.6589,2.7299,2.8525,2.9826,3.1159,3.1461,3.3289,3.5805,3.6783,3.7737,3.8833,0.0,0.0,0.0,0.0,0.0,0.0,0.0,0.0,0.0,-2.5813,-2.6159,-2.6332,-2.5591,-2.6178,-2.6544,0.0,0.0,0.0,-2.639,-2.5832,-2.6168,-2.7599,-2.9894,-3.0447,-2.9033,-2.8964,-2.8246,-2.6795,-2.5984,-2.5517,-2.5415,-2.6312,-2.679,-2.6912,-2.7652,-2.7507,-2.6676,-2.652,-2.5873,-2.4967,-2.4965,-2.4524,-2.3918,-2.44,-2.4171,-2.366,-2.4133,-2.4301,-2.4323,-2.4494,0.0,0.0,0.0,0.0,-2.4832,-2.4962,-2.537,0.0,-2.9433,-3.0057,-3.0047,-3.0777,-3.0263,0.0,-2.3971,-2.273,-2.1592,0.0,0.0,0.0,0.0,0.0,0.0,0.0,0.0,0.0,0.0,0.0,0.0,0.0,0.0,0.0,0.0,0.0,0.0,0.0,0.0,2.3446,2.2077,2.1507,2.2213,2.4287,2.3526,2.3677,2.4905,2.3663,2.1699,1.9083,1.8644,1.806,1.7296,1.9237,2.098,2.2461,2.5013,2.654,2.7366,2.8332,2.9538,3.0645,2.987,3.1604,3.4438,3.4413,3.5334,3.6766,0.0,0.0,0.0,0.0,0.0,0.0,0.0,0.0,0.0,0.0,-2.6524,-2.6563,-2.6447,-2.6524,-2.6294,-2.5534,-2.6168,-2.6283,-2.5514,0.0,0.0,-2.6761,-2.7843,-2.8369,-2.825,-2.7518,-2.703,-2.6805,-2.5939,-2.5473,-2.5415,-2.6415,-2.6845,-2.6824,-2.7065,-2.6635,-2.5722,-2.4972,-2.4108,-2.3224,-2.3168,-2.308,-2.2976,-2.2938,-2.2847,-2.2737,-2.2464,-2.2828,-2.3468,-2.35,-2.3934,0.0,0.0,0.0,0.0,-2.4962,-2.6144,0.0,0.0,0.0,-3.1658,0.0,-2.9082,-2.6424,0.0,0.0,0.0,0.0,0.0,0.0,0.0,0.0,0.0,0.0,0.0,0.0,0.0,0.0,0.0,0.0,0.0,0.0,0.0,0.0,0.0,0.0,2.5635,2.4506,2.3551,2.3244,2.3667,2.4996,2.4062,2.3986,2.4963,2.3464,2.1741,1.9822,1.7928,1.6711,1.6056,1.8308,2.0811,2.3453,2.4956,2.5038,2.4259,2.5893,2.6027,2.5504,2.7628,2.9184,3.0538,3.2654,3.3419,3.3606,0.0,0.0,0.0,0.0,0.0,0.0,0.0,0.0,0.0,0.0,0.0,-2.6409,-2.5928,-2.587,-2.5717,-2.5322,-2.5649,-2.5707,-2.5322,-2.6121,-2.6592,-2.6608,-2.7459,-2.7776,-2.7383,-2.6556,-2.6107,-2.6075,-2.4783,-2.4552,-2.5337,-2.541,-2.5665,-2.6046,-2.5668,-2.5249,-2.4769,-2.3881,-2.3256,-2.2829,-2.2819,-2.3048,-2.3348,-2.2689,-2.2687,-2.2964,-2.2246,-2.2244,-2.2666,-2.3352,-2.3675,-2.3852,-2.4265,0.0,0.0,0.0,-2.4691,0.0,-2.7789,-2.9147,-3.0182,0.0,-2.8661,-2.6129,-2.401,0.0,0.0,0.0,0.0,0.0,0.0,0.0,0.0,0.0,0.0,0.0,0.0,0.0,0.0,0.0,0.0,0.0,0.0,0.0,0.0,0.0,2.5702,2.4688,2.3232,2.2858,2.3287,2.4586,2.3234,2.2718,2.3258,2.165,2.0084,1.86,1.5994,1.5871,1.7934,1.9845,2.1509,2.2916,2.4273,2.5216,2.5776,2.6101,2.5383,2.4282,2.6101,2.6966,2.7373,2.8985,3.1442,3.3876,0.0,0.0,0.0,0.0,0.0,0.0,0.0,0.0,0.0,0.0,0.0,-2.588,-2.5248,0.0,0.0,0.0,-2.5205,-2.5245,-2.5303,-2.59,-2.6275,-2.6275,-2.693,-2.696,-2.6168,-2.5556,-2.5113,-2.4871,-2.3864,-2.3932,-2.4986,-2.4696,-2.4877,-2.5414,-2.4856,-2.4447,-2.4141,-2.3269,-2.2731,-2.2513,-2.2912,-2.3392,-2.3814,-2.343,-2.3604,-2.39,-2.2558,-2.2208,-2.2458,-2.2999,-2.3101,-2.3107,-2.3609,-2.3558,0.0,0.0,0.0,-2.4206,0.0,0.0,-2.7696,-2.9004,-2.7698,-2.5461,0.0,0.0,0.0,0.0,0.0,0.0,0.0,0.0,0.0,0.0,0.0,0.0,0.0,0.0,0.0,0.0,0.0,0.0,0.0,0.0,0.0,0.0,2.5061,2.4278,2.2521,2.2026,2.2405,2.3653,2.2064,2.1302,2.1523,1.9968,1.8583,1.7504,1.5223,1.6129,1.977,2.1352,2.2523,2.3372,2.4766,2.6029,2.6907,2.6457,2.5066,2.3412,2.4728,2.4962,2.4855,2.6544,2.9947,3.3556,0.0,0.0,0.0,0.0,0.0,0.0,0.0,0.0,0.0,0.0,0.0,-2.4889,-2.4832,-2.4832,-2.4832,-2.4832,-2.4943,-2.5111,-2.5284,-2.5341,-2.537,-2.537,-2.5409,0.0,-2.4349,-2.428,-2.3908,-2.313,-2.3815,-2.4148,-2.4187,-2.4899,-2.5265,-2.5322,-2.5408,-2.4991,-2.4141,-2.3269,-2.2383,-2.1691,-2.3224,-2.3789,-2.3886,-2.54,-2.5938,-2.5548,-2.3139,-2.2765,-2.3213,-2.1885,-2.1926,-2.2585,-2.2805,-2.2842,-2.2833,0.0,0.0,0.0,0.0,-2.441,0.0,-2.6531,-2.5464,0.0,0.0,0.0,0.0,0.0,0.0,0.0,0.0,0.0,0.0,0.0,0.0,0.0,0.0,0.0,0.0,0.0,0.0,0.0,0.0,0.0,0.0,0.0,2.3356,2.3077,2.1766,2.1275,2.1468,2.2313,2.0752,2.0089,2.0454,1.929,1.8249,1.7281,1.7135,1.8303,2.0532,2.1766,2.3798,2.6231,2.7826,2.7376,2.5524,2.5929,2.422,2.155,2.3196,2.3359,2.3003,2.6915,2.9357,3.0898,0.0,0.0,0.0,0.0,0.0,0.0,0.0,0.0,0.0,0.0,0.0,0.0,0.0,-2.4804,-2.4795,-2.4807,-2.4839,-2.4947,-2.5111,-2.5111,-2.5168,-2.5284,-2.5303,-2.5192,-2.4971,-2.3914,-2.3494,-2.3772,-2.2369,-2.252,-2.4091,-2.3812,-2.4274,-2.5255,-2.4234,-2.3593,-2.3207,-2.1818,0.0,-2.0908,-2.2953,-2.4332,-2.5245,-2.5839,0.0,0.0,0.0,0.0,0.0,-2.3583,-2.2778,-2.1761,-2.1929,-2.1919,-2.1845,-2.1936,-2.177,-2.179,0.0,0.0,0.0,-2.3718,-2.3098,-2.187,0.0,0.0,0.0,0.0,0.0,0.0,0.0,0.0,0.0,0.0,0.0,0.0,0.0,0.0,0.0,0.0,0.0,0.0,0.0,0.0,0.0,0.0,0.0,2.1306,2.1446,1.9259,1.9167,2.1589,1.8432,1.673,1.6851,1.4161,1.4178,1.6941,1.4057,1.5524,2.0962,2.072,2.2413,2.5644,2.7347,2.7526,2.6233,2.2579,1.933,1.6621,1.6854,1.8212,2.0202,2.2859,2.7443,3.1994,0.0,0.0,0.0,0.0,0.0,0.0,0.0,0.0,-2.467,-2.4607,0.0,0.0,0.0,0.0,-2.4623,-2.4697,-2.469,-2.4638,-2.4517,-2.4553,-2.4659,-2.4781,-2.486,-2.4915,-2.4955,-2.3605,-2.3037,-2.334,-2.1591,-2.1596,-2.3225,-2.2928,-2.3389,-2.4409,-2.2985,-2.2831,0.0,0.0,0.0,-2.1367,0.0,0.0,-2.6471,0.0,0.0,0.0,0.0,0.0,0.0,0.0,0.0,0.0,-2.1912,-2.0983,-2.0136,-2.0176,-2.0167,-2.0222,-2.0643,0.0,0.0,0.0,0.0,0.0,0.0,0.0,0.0,0.0,0.0,0.0,0.0,0.0,0.0,0.0,0.0,0.0,0.0,0.0,0.0,0.0,0.0,0.0,0.0,0.0,0.0,0.0,0.0,0.0,1.774,1.5587,1.5372,1.7562,1.5259,1.3699,1.2983,1.1874,1.2234,1.3992,1.1783,1.3298,1.8099,1.9135,2.1019,2.3724,2.6737,2.7818,2.6986,2.0964,1.8127,1.7405,1.6071,1.6958,1.923,2.1046,2.4719,2.8324,0.0,0.0,0.0,0.0,0.0,0.0,0.0,0.0,-2.4428,-2.4228,0.0,0.0,0.0,0.0,0.0,-2.4467,-2.4467,-2.4169,-2.3543,-2.3669,-2.3764,-2.377,-2.3976,-2.4088,-2.4092,-2.3313,-2.2488,-2.1636,-2.1598,-2.1538,-2.1523,-2.237,-2.2774,-2.2754,-2.1927,-2.2908,-2.5111,0.0,-2.2735,-2.303,0.0,-2.7205,-2.7422,0.0,0.0,0.0,-2.8296,-2.742,0.0,0.0,0.0,0.0,0.0,-2.0066,-1.7763,-1.7615,-1.7844,-1.7874,0.0,0.0,0.0,0.0,0.0,0.0,0.0,0.0,0.0,0.0,0.0,0.0,0.0,0.0,0.0,0.0,0.0,0.0,0.0,0.0,0.0,0.0,0.0,0.0,0.0,0.0,0.0,0.0,0.7931,0.9878,1.0318,1.0038,1.007,1.0356,1.1253,1.092,0.9515,1.2688,1.2448,0.8668,1.0922,1.1883,1.1936,1.7011,1.9574,2.0503,2.582,2.8045,2.7403,2.1504,2.0992,2.3636,2.0955,1.9713,1.9679,2.1423,2.1144,1.9669,0.0,0.0,0.0,0.0,0.0,-2.6129,-2.4801,-2.4432,-2.4247,0.0,0.0,0.0,-2.419,-2.419,-2.4208,-2.4282,-2.3747,-2.3452,-2.3496,-2.3008,-2.2823,-2.3065,-2.3726,-2.41,-2.4107,-2.3259,-2.27,-2.2469,-2.1255,-2.0951,-2.1504,-2.1754,-2.2197,-2.2793,-2.2543,-2.2831,-2.3389,-2.1696,0.0,0.0,-2.499,-2.688,0.0,0.0,0.0,0.0,0.0,-3.0309,0.0,0.0,-2.6624,-2.3471,0.0,0.0,-1.7438,-1.7054,-1.6714,-1.631,-1.5607,0.0,0.0,0.0,0.0,0.0,0.0,0.0,0.0,0.0,0.0,0.0,0.0,0.0,0.0,0.0,0.0,0.0,0.0,0.0,0.0,0.0,0.0,0.0,0.0,0.0,0.0,0.0,-0.1269,0.0521,0.4314,0.5032,0.5731,0.6513,0.6421,0.7167,0.8582,0.7256,0.7666,0.9807,0.7566,0.832,1.1592,1.2748,1.4154,1.5662,1.8284,2.1311,2.4245,2.3774,1.8349,1.0361,1.1565,1.002,0.7326,0.903,1.5069,2.1626,0.0,0.0,-2.6904,-2.6626,-2.6412,-2.6038,-2.53,-2.491,-2.4707,0.0,0.0,0.0,-2.3986,-2.3987,-2.4042,-2.419,-2.3456,-2.2949,-2.2798,-2.2136,-2.185,-2.2076,-2.2671,-2.336,-2.4072,-2.2889,-2.2447,-2.2793,-2.1119,-2.0542,-2.1004,-2.1004,-2.1273,-2.1735,-2.1378,-2.1205,-2.1128,0.0,0.0,0.0,-2.5044,0.0,0.0,-3.0689,-3.2162,0.0,0.0,0.0,-3.0546,-3.0742,-2.7724,0.0,0.0,0.0,0.0,0.0,-1.4609,-1.4329,-1.3078,-1.2481,-1.2043,0.0,0.0,0.0,0.0,0.0,0.0,0.0,0.0,0.0,0.0,0.0,0.0,0.0,0.0,0.0,0.0,0.0,0.0,0.0,0.0,0.0,0.0,0.0,0.0,-0.9901,-0.8337,-0.5008,0.0822,-0.0184,0.0565,0.3837,0.2642,0.304,0.5169,0.526,0.5763,0.6454,0.2918,0.2904,0.5884,0.4334,0.437,0.6253,1.4026,1.8017,1.9713,2.8203,2.29,0.9609,1.0934,0.8219,0.3763,0.5291,0.9855,1.4552,0.0,0.0,-2.5656,-2.6467,-2.6015,-2.5778,-2.6484,-2.589,-2.5371,0.0,-2.4472,-2.3749,-2.3694,-2.3707,-2.384,-2.4171,-2.3373,-2.2564,-2.1863,-2.1205,-2.0891,-2.0939,-2.1282,-2.2181,-2.3727,-2.2238,-2.1844,-2.2621,-2.1045,-2.0269,-2.0269,-2.0269,-2.0211,-2.0096,-1.9316,-1.8927,-1.8819,-1.8126,0.0,-2.1933,-2.5559,-2.7101,0.0,0.0,-3.1808,0.0,-3.1565,-3.1402,-3.1362,-3.1916,-2.887,0.0,0.0,0.0,0.0,0.0,-1.2204,-1.2413,-1.0027,-1.0025,-1.0529,0.0,0.0,0.0,0.0,0.0,0.0,0.0,0.0,0.0,0.0,0.0,0.0,0.0,0.0,0.0,0.0,0.0,0.0,0.0,0.0,0.0,0.0,-2.2753,-2.3245,-1.8582,-1.4078,-0.8671,-0.2262,-0.6153,-0.5854,0.0,-0.1733,-0.2118,-0.0593,0.3941,0.4352,0.04,-0.1648,-0.2798,-0.3033,-0.4322,-0.5656,-0.6121,1.077,1.5789,1.3286,2.9561,2.7841,1.4806,1.3922,0.9502,0.379,0.5075,0.5058,0.3785,-2.5262,-2.5407,-2.5654,-2.6459,-2.6459,-2.6413,-2.6581,-2.5687,-2.5205,-2.5798,-2.4885,-2.4066,-2.3728,-2.371,-2.384,-2.4171,-2.2867,-2.2025,-2.195,-2.065,-1.9919,-2.0035,-2.0778,-2.1335,-2.1677,-2.1354,-2.1304,-2.1598,-2.0556,-2.006,-2.006,-2.006,-1.9716,-1.9076,-1.8905,-1.8505,-1.7991,0.0,0.0,-2.2553,-2.4455,0.0,-2.8385,-3.1289,-3.2716,-3.3156,-3.2865,-3.2588,-3.2109,0.0,-2.8124,-2.5476,0.0,0.0,0.0,0.0,0.0,0.0,0.0,0.0,0.0,0.0,0.0,0.0,0.0,0.0,0.0,0.0,0.0,0.0,0.0,0.0,0.0,0.0,0.0,0.0,0.0,0.0,0.0,0.0,0.0,0.0,0.0,-3.4814,-3.1575,-2.3724,-1.9549,-1.5648,-1.176,-1.4839,-1.5665,-1.3498,-1.2874,-1.1505,-0.9384,-0.615,-0.4424,-0.4144,-0.1287,-0.3998,-1.0963,0.1448,-0.1985,-1.6715,0.189,0.6771,0.1979,0.753,0.9111,0.7801,0.5502,-0.053,-0.7737,-0.6291,-0.0957,0.5176,-2.4707,-2.48,-2.5182,-2.6392,-2.659,-2.6796,-2.7417,-2.6664,-2.6103,-2.6315,-2.5147,-2.4229,-2.4018,-2.3815,-2.3837,-2.417,-2.3088,-2.2258,-2.1925,-2.0829,-2.0055,-1.9707,-2.0181,-2.0663,-2.1091,-2.0663,-2.0698,-2.1195,-2.0329,-1.9901,-1.9882,-1.9494,-1.9801,-2.0604,-1.8496,-1.8086,-1.8907,0.0,-1.8757,-2.162,-2.4717,0.0,-2.9618,-3.2107,-3.3184,-3.3327,-3.3117,-3.2802,-3.2159,-3.0248,-2.7675,0.0,0.0,-2.0495,-1.8481,0.0,-1.1533,-1.1682,0.0,0.0,0.0,-0.6305,0.0,0.0,0.0,0.0,0.0,0.0,0.0,0.0,0.0,0.0,0.0,0.0,0.0,0.0,0.0,0.0,0.0,0.0,0.0,0.0,0.0,-3.9015,-3.5078,-2.6358,-2.1349,-1.8164,-1.685,-1.8202,-1.9354,-2.0051,-2.1094,-2.0159,-1.7049,-1.4835,-1.3022,-1.1704,-1.1728,-1.3595,-1.6608,-0.8189,-0.9888,-1.8476,-0.185,0.2858,-0.0844,0.3527,0.4826,0.3877,0.183,-0.5033,-1.3287,-0.9183,-0.3054,0.3293,-2.419,-2.419,-2.4667,-2.6114,-2.6326,-2.6646,-2.779,-2.7181,-2.6422,-2.5991,-2.5066,-2.4434,-2.4435,-2.4432,-2.4624,-2.5123,-2.4433,-2.3559,-2.26,-2.1717,-2.0783,-1.982,-1.9731,-2.0101,-2.0973,-2.0139,-2.007,-2.0816,-2.0113,-1.9668,-1.9529,-1.8881,-1.9555,-2.1213,-1.8394,0.0,0.0,0.0,0.0,-2.1585,0.0,-2.8154,-3.0245,-3.2557,-3.3237,-3.2961,-3.2876,-3.2521,-3.179,-3.0039,0.0,-2.356,-2.1943,-2.0222,0.0,0.0,0.0,0.0,0.0,0.0,0.0,0.0,0.0,-0.7139,0.0,0.0,0.0,0.0,0.0,0.0,0.0,0.0,0.0,0.0,0.0,0.0,0.0,0.0,0.0,0.0,0.0,0.0,0.0,-3.6908,-3.4251,-2.8822,-2.2241,-1.938,-2.1409,-2.1787,-2.3196,-2.5939,-2.8314,-2.8062,-2.4843,-2.2911,-2.1214,-1.9699,-2.2285,-2.2338,-2.0065,-1.7334,-1.6736,-1.7055,-0.2855,0.1144,-0.1992,0.3233,0.3626,0.0637,-0.1766,-0.721,-1.3129,-0.7821,-0.2888,0.1499,-2.419,-2.419,-2.4483,-2.5379,-2.5284,-2.5398,-2.624,-2.5209,-2.4069,-2.3273,-2.4227,-2.4953,-2.4829,-2.6161,-2.7501,0.0,0.0,0.0,-2.5277,-2.3638,-2.2046,-2.047,-1.9737,-1.9752,-2.0547,-1.977,-1.9489,-1.9772,-1.966,-1.9263,-1.8547,-1.8485,-1.7851,-1.6933,-1.9126,0.0,0.0,0.0,-2.2302,0.0,-2.5746,-2.6931,0.0,-3.1778,-3.2761,-3.2566,-3.2435,-3.2039,-3.1042,0.0,-2.5152,-2.2509,0.0,-1.7765,0.0,0.0,0.0,0.0,0.0,0.0,0.0,0.0,-0.6651,0.0,0.0,0.0,0.0,0.0,0.0,0.0,0.0,0.0,0.0,0.0,0.0,0.0,0.0,0.0,0.0,0.0,0.0,0.0,0.0,0.0,-2.6981,-3.3501,-2.4744,-2.2164,-2.9119,-3.1229,-3.3847,-3.7396,-3.5602,-3.4375,-3.3935,-3.083,-2.8108,-2.5777,-2.2018,-2.0301,-2.0096,-0.9383,-0.9167,-1.649,-0.1907,-0.0062,-0.7169,-0.5716,-0.4386,-0.3981,-0.9921,-0.9042,-0.442,-0.435,-0.1092,0.3368,-2.419,-2.419,-2.4447,-2.5252,-2.5278,-2.5316,-2.5693,-2.5467,-2.5236,-2.5042,-2.5374,-2.5783,0.0,0.0,0.0,0.0,0.0,-2.7862,0.0,0.0,-2.3904,-2.1357,-2.0446,-2.0152,-2.0484,-1.9711,-1.9335,-1.9442,-1.9442,-1.9017,-1.8222,-1.7742,-1.8012,-1.8903,-1.9474,0.0,-2.1739,0.0,0.0,0.0,0.0,0.0,0.0,-3.1623,-3.3176,-3.3122,-3.2266,-3.1972,-3.1579,0.0,-2.5951,0.0,0.0,0.0,0.0,0.0,0.0,0.0,0.0,0.0,0.0,0.0,0.0,0.0,-0.1505,0.0,0.2248,0.0,0.0,0.0,0.0,0.0,0.0,0.0,0.0,0.0,0.0,0.0,0.0,0.0,0.0,0.0,0.0,0.0,0.0,0.0,0.0,-2.1811,-3.3985,-3.2133,-3.3622,-4.0023,-3.9618,-3.8073,-3.5547,-3.5332,-3.2321,-2.656,-2.5957,-2.4357,-2.1573,-1.2434,-1.06,-1.4119,-0.5482,-0.3547,-0.6572,-0.9023,-0.8769,-0.7253,-0.9983,-0.9198,-0.628,-0.5187,-0.2862,0.01,-2.419,-2.419,-2.4373,-2.498,-2.4933,-2.4783,-2.4731,-2.5086,-2.5588,-2.6133,0.0,0.0,-2.71,-2.7308,0.0,0.0,-3.0781,-3.0214,0.0,0.0,-2.6079,-2.3554,-2.1779,0.0,-2.1832,-2.0326,-1.9481,-1.9305,-1.9243,-1.8825,-1.8078,-1.7275,-1.7861,-1.9587,-1.9555,-2.1438,-2.4534,0.0,0.0,-2.6687,-2.6173,-2.6699,-2.8158,-3.1524,-3.3105,-3.3406,-3.2176,-3.1913,-3.1658,-2.8526,-2.5833,0.0,-2.3096,0.0,0.0,0.0,0.0,0.0,-0.3912,0.0,0.0,0.0,0.0,0.0,0.0,0.0,0.0,0.0,0.0,0.0,0.0,0.0,0.0,0.0,0.0,0.0,0.0,0.0,0.0,0.0,0.0,0.0,0.0,0.0,0.0,0.0,0.0,0.0,-3.5396,-3.2634,-3.304,-3.8384,-3.9608,-3.8305,-3.4385,-3.5452,-3.2464,-2.5464,-2.6607,-2.4134,-1.8344,-1.3267,-1.0282,-0.8909,-0.6037,-0.4858,-0.5214,-0.8402,-0.9009,-0.7952,-0.7981,-0.7801,-0.713,-0.4895,-0.3065,-0.1502,-2.419,-2.419,-2.4208,-2.4226,-2.3707,-2.317,-2.2841,-2.3082,0.0,0.0,0.0,0.0,0.0,0.0,0.0,0.0,0.0,-3.5189,-3.2026,0.0,-2.8525,0.0,0.0,-2.2852,0.0,-2.1905,-1.9899,-1.9305,-1.9101,-1.8701,-1.8078,-1.7275,-1.667,-1.6366,-1.9322,-2.1222,-2.2396,-2.5143,-2.8652,-3.2163,-3.0231,-2.989,-3.066,0.0,-3.2072,-3.2855,-3.2121,0.0,0.0,-2.6259,-2.3421,0.0,0.0,0.0,0.0,0.0,0.0,0.0,0.0,0.0,0.0,-0.9188,0.0,0.0,0.0,0.0,0.9094,0.0,0.0,0.0,0.0,0.0,0.0,0.0,0.0,0.0,0.0,0.0,0.0,0.0,0.0,0.0,0.0,0.0,0.0,0.0,0.0,0.0,-3.2274,-3.4986,-3.5097,-3.2909,-3.4519,-3.4052,-3.1183,-2.9959,-2.718,-2.2967,-2.1007,-1.5568,-0.7421,-0.7332,-0.4645,-0.0,-0.0399,-0.2099,-0.438,-0.3501,-0.4016,-0.5325,-0.5116,-0.4347,-0.3118,-0.1306,-0.0,0.07,-2.3816,-2.3692,-2.361,-2.3816,-2.35,-2.3318,-2.3706,-2.3751,0.0,0.0,0.0,0.0,0.0,-3.4109,-3.5298,0.0,0.0,-3.6792,-3.3546,-3.2113,0.0,0.0,0.0,-2.3944,0.0,-2.298,-2.0644,-2.0097,-1.9847,-1.9176,-1.8078,-1.7275,-1.686,-1.6846,0.0,-2.1539,0.0,0.0,0.0,0.0,0.0,-2.8202,-2.9415,0.0,0.0,-3.1967,-3.2017,-3.1645,0.0,-2.7667,-2.5476,-2.3748,-2.2457,-1.9565,-1.6563,-1.5841,-1.4412,0.0,0.0,0.0,-1.4655,-0.8076,0.0,0.0,0.0,0.0,0.0,0.0,0.0,0.0,0.0,0.0,0.0,0.0,0.0,0.0,0.0,0.0,0.0,0.0,0.0,0.0,0.0,0.0,0.0,0.0,0.0,0.0,0.0,-2.8888,-2.7634,-2.5161,-2.7406,-2.6894,-2.3106,-2.2189,-1.9119,-1.3847,-1.2439,-0.9338,-0.5096,-0.703,-0.7152,-0.5736,-0.5877,-0.6589,-0.7384,-0.4916,-0.473,-0.5842,-0.4403,-0.4011,-0.4228,-0.3574,-0.298,-0.2504,-2.3513,-2.3236,-2.3117,-2.3459,-2.3554,-2.3717,0.0,0.0,0.0,0.0,-3.0524,0.0,-3.6069,0.0,-3.7405,0.0,-3.9659,-3.8278,-3.4303,-3.4345,0.0,-3.1404,-2.8555,0.0,0.0,0.0,-2.3116,-2.2636,-2.0841,-1.9561,-1.8783,-1.7489,-1.7008,-1.7206,0.0,-2.113,-2.5584,0.0,-2.7735,0.0,0.0,-2.802,0.0,0.0,-3.0526,-3.0189,0.0,-3.1263,-3.0067,-2.8168,-2.6586,-2.5333,-2.4874,-2.174,-1.8627,-2.0324,-1.8575,-1.6394,-1.7267,-1.8462,0.0,-0.9098,-0.9331,0.0,0.1083,0.0,0.0,0.0,0.0,0.0,0.0,0.0,0.0,0.0,0.0,0.0,0.0,0.0,0.0,0.0,0.0,0.0,0.0,0.0,0.0,0.0,0.0,0.0,0.0,0.0,-2.0987,-1.808,-1.9692,-1.9182,-1.6162,-1.4237,-1.142,-0.7521,-0.5383,-0.4031,-0.3513,-0.4589,-0.5968,-0.7467,-0.7298,-0.7806,-0.8403,-0.5625,-0.5436,-0.6445,-0.4133,-0.3831,-0.473,-0.4468,-0.4377,-0.462,-2.3307,-2.2933,-2.2824,-2.3146,-2.377,0.0,0.0,0.0,-2.6823,0.0,-3.0951,-3.2216,-3.6177,-3.821,-3.9303,-3.9354,-4.0992,0.0,-3.4746,-3.6706,0.0,0.0,-3.4129,-3.5094,-3.6762,0.0,0.0,0.0,0.0,-1.987,-2.0047,-1.793,-1.7102,-1.735,-1.7387,0.0,-2.4687,-2.6207,-2.9761,-3.4116,-3.1266,-2.9274,-2.8132,-2.8973,-2.8433,-2.7597,-3.0663,-3.0554,-2.8813,-2.7672,-2.6662,-2.5606,-2.4157,-2.4173,-2.4602,-2.403,-2.497,-2.4927,-1.9363,-1.8247,-1.7482,-1.2562,0.0,0.0,0.0,0.0,-0.1347,0.0,0.0,0.0,0.0,0.0,0.0,0.0,0.0,0.0,0.0,0.0,0.0,0.0,0.0,0.0,0.0,0.0,0.0,0.0,0.0,0.0,0.0,0.0,-1.4967,-1.1545,-1.1496,-1.113,-1.0223,-0.6248,-0.423,-0.414,-0.0,0.0412,-0.2124,-0.0101,-0.1308,-0.4929,-0.4526,-0.5527,-0.7232,-0.5434,-0.5639,-0.6745,-0.4234,-0.393,-0.473,-0.372,-0.4219,-0.5525,-2.2824,-2.3037,-2.3244,0.0,-2.3048,-2.3335,0.0,0.0,0.0,0.0,-3.3946,-3.5751,-4.18,-4.2845,-4.3076,-4.3033,-4.3442,0.0,0.0,0.0,0.0,-3.8502,-3.5803,-3.5599,-3.8345,-3.1578,0.0,-2.7331,0.0,0.0,-2.0065,-1.8314,-1.7739,-1.8173,0.0,0.0,-2.4617,-2.4771,-2.6824,-2.9872,-2.9209,-2.758,0.0,0.0,-2.8682,-2.6404,-3.0163,-3.0294,-2.8504,-2.7249,-2.589,-2.4886,-2.485,-2.4814,-2.4945,-2.6063,-2.6345,-2.5996,-2.4809,-2.4849,-2.3765,-1.7419,-1.6588,-1.5792,0.0,0.0,0.0,0.0,0.0,0.0,0.0,0.0,0.0,0.0,0.0,0.0,0.0,0.0,0.0,0.0,0.0,0.0,0.0,0.0,0.0,0.0,0.0,0.0,0.0,0.0,0.0,-0.2259,-0.3603,-0.3098,-0.0317,0.0215,0.054,0.0535,0.3326,0.3302,0.0734,0.073,0.0208,-0.0936,-0.2875,-0.3911,-0.4268,-0.3767,-0.3864,-0.4219,-0.3806,-0.442,-0.5433,-0.4947,-0.4824,-0.5334,-2.3048,0.0,0.0,-2.4357,0.0,0.0,-2.8012,0.0,0.0,-3.5398,-3.5575,0.0,-4.2141,-4.3853,-4.4659,-4.4693,-4.4613,0.0,-4.0262,0.0,0.0,-3.9781,-3.9148,-3.9646,-4.1415,-3.536,0.0,-3.0175,0.0,0.0,-2.0376,-1.8555,-1.799,0.0,0.0,-1.9957,0.0,-2.5244,-2.627,-2.6761,-2.8093,0.0,0.0,-2.9064,-2.8946,-2.7591,-2.9633,-2.9251,-2.7597,-2.6211,-2.5296,-2.4671,-2.4494,-2.4515,-2.48,-2.5761,-2.5836,-2.5698,-2.6151,-2.6414,-2.5788,-2.2209,-2.236,-2.1824,-1.6113,-1.5263,-1.543,0.0,0.0,0.0,0.0,0.0,0.0,0.0,0.0,0.0,0.0,0.0,0.0,0.0,0.0,0.0,0.0,0.0,0.0,0.0,0.0,0.0,0.0,0.0,0.0,0.1975,0.2215,0.2191,0.1978,0.3788,0.3683,0.1868,0.3963,0.3374,0.0319,0.0424,0.0423,0.0318,-0.2595,-0.3836,-0.377,-0.3911,-0.4293,-0.491,-0.5112,-0.511,-0.5207,-0.4949,-0.5131,-0.5636,-2.3799,0.0,0.0,0.0,0.0,0.0,0.0,-3.0094,0.0,-3.7116,0.0,-3.7604,-4.0703,-4.331,-4.487,-4.5014,0.0,-4.3555,-4.0436,-4.3159,-4.3378,-3.9967,-4.2949,-4.4613,-4.4551,-3.9811,0.0,0.0,0.0,0.0,-2.0547,-1.8681,0.0,0.0,0.0,0.0,0.0,-2.6358,-2.6766,-2.4902,-2.7632,-2.8245,-2.7588,-2.8396,-2.8952,-2.9268,-2.8834,-2.7833,-2.6465,-2.5247,-2.4791,-2.4647,-2.3875,-2.4116,-2.4657,-2.469,-2.4813,-2.514,-2.5448,-2.5587,-2.5762,-2.6129,-2.7223,-2.7093,-2.2527,-2.2509,-2.2497,-1.9072,-2.0885,-2.2074,0.0,0.0,0.0,0.0,0.0,0.0,0.0,0.0,0.0,0.0,0.0,0.0,0.0,0.0,0.0,0.0,0.0,0.0,0.0,0.0,0.0,0.0,0.6153,0.0,0.1884,0.0,0.5977,0.1962,0.3557,0.2318,-0.1396,-0.0321,0.0214,-0.0,-0.2831,-0.4062,-0.4072,-0.4481,-0.5562,-0.6986,-0.6645,-0.5739,-0.4444,-0.434,-0.5138,-0.6034,0.0,0.0,0.0,0.0,0.0,-3.4529,-3.7931,-3.6822,-3.7163,-4.1505,-4.1331,-4.1877,-4.469,-4.4943,-4.4846,-4.4789,-4.4796,0.0,0.0,0.0,0.0,-4.3739,-4.4221,-4.4421,-4.4199,-4.0195,-3.6164,0.0,0.0,-2.3169,-1.9556,-1.8792,0.0,0.0,0.0,0.0,-2.3611,-2.5374,0.0,-2.5759,-2.7646,-2.7169,-2.5627,-2.8185,-2.8116,-2.6609,-2.7076,-2.6697,-2.5928,-2.5545,-2.4743,-2.402,-2.4886,-2.5324,-2.5451,-2.5937,-2.6426,-2.6717,-2.6215,-2.6794,-2.7363,-2.6386,-2.7526,-2.8641,-2.782,-2.8862,-3.0161,-3.0521,-3.163,-3.0751,-2.4958,0.0,0.0,0.0,0.0,0.0,0.0,0.0,0.0,0.0,0.0,0.0,0.0,0.0,0.0,0.0,0.0,0.0,0.0,0.0,0.0,0.0,0.0,0.0,0.0,0.0,0.8322,0.6081,0.591,0.3824,-0.0,0.0553,0.0775,0.0664,-0.1522,-0.2268,-0.1945,-0.3093,-0.4446,-0.5684,-0.5507,-0.5286,-0.4836,-0.4259,-0.4533,-0.5135,0.0,0.0,0.0,0.0,0.0,0.0,0.0,-4.3583,0.0,-4.3403,-4.248,-4.2228,-4.3057,-4.4284,-4.5033,-4.4938,-4.4991,-4.5103,-4.5192,-4.5109,-4.4972,-4.4745,-4.4621,0.0,-4.3849,-4.1092,-3.7243,-3.2315,0.0,-2.437,-2.007,-1.914,-1.9047,-1.9687,0.0,-2.1328,0.0,0.0,0.0,-2.4234,-2.6691,-2.6566,-2.5161,-2.7271,-2.7196,-2.6038,-2.6506,-2.5906,-2.4921,-2.4743,-2.4599,-2.4527,-2.4527,-2.4991,-2.5506,-2.5922,-2.6546,-2.7086,-2.6916,-2.7596,-2.8068,-2.6987,-2.7856,-2.9075,-2.9444,-3.0462,-3.1686,-3.2864,-3.3098,-3.1892,-2.7903,-1.7243,0.0,0.0,0.0,0.0,0.0,0.0,0.0,0.0,0.0,0.0,0.0,0.0,0.0,0.0,0.0,0.0,0.0,0.0,0.0,0.0,0.0,0.0,0.0,0.0,0.0,0.5448,0.5226,0.2948,-0.1009,-0.0112,-0.0559,-0.2123,-0.272,-0.3135,-0.3268,-0.3288,-0.3987,-0.5133,-0.5043,-0.4598,-0.4085,-0.4091,-0.447,-0.5033,0.0,-3.0751,0.0,0.0,-3.8393,0.0,-4.4414,-4.8136,-4.9226,-4.5504,-4.3997,-4.2965,-4.2117,-4.397,-4.5237,-4.5125,-4.5213,-4.5317,-4.5378,-4.5235,-4.4985,-4.4575,-4.4369,-4.3914,-4.3167,-4.1625,-3.8247,0.0,0.0,0.0,-2.124,-1.9626,-1.9419,0.0,0.0,0.0,0.0,0.0,-2.4224,-2.3084,-2.5577,-2.5781,-2.4678,-2.5812,-2.5996,-2.555,-2.58,-2.5087,-2.4116,-2.3897,-2.4322,-2.4743,-2.4093,-2.4589,-2.5365,-2.5703,-2.6398,-2.7141,-2.7527,-2.8148,-2.8521,-2.8003,-2.8777,-2.9714,-3.0175,-3.099,-3.1815,-3.2456,-3.1884,-3.0555,-2.8203,-2.1741,0.0,0.0,0.0,0.0,0.0,0.0,0.0,0.0,0.0,0.0,0.0,0.0,0.0,0.0,0.0,0.0,0.0,0.0,0.0,0.0,0.0,1.029,0.867,0.0,0.7998,0.4468,0.4547,0.2159,-0.2244,-0.1344,-0.224,-0.4482,-0.4353,-0.4432,-0.4682,-0.3885,-0.4135,-0.4961,-0.5049,-0.4387,-0.3633,-0.4302,-0.4894,-0.5429,0.0,0.0,0.0,0.0,0.0,0.0,-4.4508,-4.7738,-4.9899,-4.992,-4.8682,-4.7612,-4.7082,-4.6148,-4.5456,-4.5213,-4.5275,-4.5297,-4.5317,-4.5113,-4.4657,-4.3853,-4.3359,-4.2677,-4.1709,-4.0943,-3.837,0.0,0.0,-2.6972,0.0,-2.0292,-2.0196,0.0,0.0,0.0,0.0,-2.4609,-2.4428,-2.4356,-2.4818,-2.4299,-2.3258,-2.3973,-2.4026,-2.3699,-2.3959,-2.3998,-2.3897,-2.3677,-2.3593,-2.3655,-2.4587,-2.5111,-2.5476,-2.6077,-2.6793,-2.7449,-2.7915,-2.8616,-2.9297,-2.9675,-3.0682,-3.1668,-3.1852,-3.2724,-3.343,-3.3029,-3.1721,-2.9251,-2.4816,-2.2832,-2.0204,0.0,0.0,0.0,0.0,0.0,0.0,0.0,0.0,0.0,0.0,0.0,0.0,0.0,0.0,0.0,0.0,0.0,0.0,0.6821,0.0,0.9547,1.0597,1.0294,0.8747,0.6026,0.581,0.3056,-0.1907,-0.2465,-0.3137,-0.3811,-0.5023,-0.4639,-0.3153,-0.4306,-0.4971,-0.5379,-0.5487,-0.5142,-0.4734,-0.5847,-0.6042,-0.6129,0.0,0.0,0.0,0.0,0.0,0.0,0.0,-4.9856,-5.0755,-5.0945,-4.9465,-4.8207,-4.7733,-4.6858,-4.6128,-4.5826,-4.5456,-4.5256,-4.5359,-4.457,-4.388,-4.3352,-4.231,-4.136,-4.056,-3.9642,-3.737,0.0,0.0,0.0,0.0,-2.1708,-2.2017,0.0,0.0,-2.3491,-2.456,-2.3743,-2.3334,-2.3361,-2.3682,-2.3292,-2.2714,-2.3732,-2.3652,-2.3032,-2.3649,-2.3863,-2.3948,-2.4299,-2.4371,-2.4432,-2.5252,-2.5778,-2.6209,-2.7101,-2.7909,-2.8655,-2.9222,-3.0126,-3.0855,-3.0582,-3.1232,-3.1958,-3.2107,-3.2472,-3.2851,-3.2867,-3.1069,-2.8864,-2.6646,-2.5866,-2.4821,0.0,0.0,0.0,0.0,0.0,0.0,0.0,0.0,0.0,0.0,0.0,0.0,0.0,0.0,0.0,0.0,0.0,0.0,0.8294,0.0,0.9247,0.9485,0.8428,0.6756,0.4218,0.3644,0.1462,-0.2129,-0.3134,-0.4446,-0.6055,-0.7169,-0.7263,-0.6521,-0.6419,-0.6538,-0.6903,-0.6025,-0.5588,-0.5639,-0.6412,-0.7199,-0.8021,-4.3713,0.0,-4.287,0.0,-4.6878,-4.6742,-5.0371,-5.0928,-5.0926,-5.0829,-4.9681,-4.8619,-4.7952,-4.7204,-4.655,-4.6031,-4.5516,-4.5213,-4.5216,-4.4023,-4.3047,-4.2501,-4.1015,0.0,-3.8812,-3.794,-3.6253,-3.3695,-2.9978,0.0,0.0,-2.3705,-2.4051,0.0,-2.493,-2.4697,-2.4996,-2.3619,-2.2708,-2.2317,-2.2511,-2.2291,-2.1929,-2.2944,-2.3103,-2.2852,-2.3372,-2.3728,-2.3986,-2.4707,-2.5322,-2.5775,-2.6177,-2.6557,-2.7094,-2.82,-2.9044,-2.9711,-3.047,-3.1344,-3.2021,-3.1706,-3.2017,-3.2451,-3.2376,-3.2244,-3.2092,-3.186,-2.9933,-2.8248,-2.7934,-2.7564,-2.6855,-2.5448,0.0,0.0,0.0,0.0,0.0,0.0,0.0,0.0,0.0,0.0,0.0,0.0,0.0,0.0,0.0,0.0,0.0,0.0,0.0,0.0,0.0,0.6404,0.4564,0.2387,0.1802,-0.0,-0.2798,-0.3895,-0.5599,-0.7877,-0.8009,-0.8632,-0.9442,-0.8223,-0.7911,-0.8089,-0.6981,-0.6436,-0.6539,-0.7036,-0.7918,-0.8924,-4.6824,-4.4268,-4.3483,-5.0097,-4.8499,-4.7124,-4.9634,-5.0078,-5.0066,-4.993,-4.9958,-4.9547,-4.8416,-4.7461,-4.6519,-4.559,-4.5319,-4.5087,-4.4825,-4.3557,-4.2251,0.0,0.0,-3.7831,-3.6274,-3.5847,-3.5211,-3.4399,0.0,0.0,-2.9465,-2.6398,-2.6128,-2.8169,-2.5982,-2.5848,-2.7114,-2.4918,-2.3087,-2.1614,-2.1505,-2.1264,-2.0862,-2.104,-2.1924,-2.3001,-2.2777,-2.3191,-2.3891,-2.4743,-2.6127,-2.7486,-2.7433,-2.7544,-2.798,-2.9421,-3.0013,-3.0418,-3.1477,-3.2008,-3.2471,-3.326,-3.3471,-3.3411,-3.3054,-3.2487,-3.1526,-2.9777,-2.811,-2.7056,-2.7434,-2.7229,-2.5166,-1.9511,0.0,0.0,0.0,0.0,0.0,0.0,-0.8286,-0.4432,-0.7004,0.0,0.0,0.0,0.0,0.0,0.0,0.0,0.0,0.2406,0.5555,0.0,0.7015,0.4659,0.2717,0.1338,0.0895,-0.1008,-0.4027,-0.4845,-0.6475,-0.8563,-0.6998,-0.7935,-1.0427,-0.9071,-0.8577,-0.8758,-0.8445,-0.8052,-0.763,-0.7839,-0.8041,-0.8237,-4.989,-4.9118,-4.8857,-5.0867,-5.0392,-4.9968,-5.0706,-5.0869,-5.0874,-5.0731,-5.0784,-5.0169,-4.8469,-4.7986,-4.7653,0.0,-4.5952,-4.503,0.0,-4.3483,-4.2007,-4.0379,-3.8688,-3.7089,-3.5642,-3.4885,-3.4365,-3.4154,0.0,0.0,0.0,-2.7658,-2.8253,-3.025,-2.7867,-2.6923,-2.7003,-2.434,-2.3236,-2.3156,-2.3064,-2.3089,-2.3167,-2.3458,-2.3414,-2.3265,-2.3694,-2.4362,-2.5296,-2.6438,-2.8112,-2.9718,-3.0216,-3.0032,-2.9796,-3.08,-3.1051,-3.1221,-3.2014,-3.2214,-3.2219,-3.2291,-3.2299,-3.212,-3.1738,-3.0721,-2.9578,-2.8459,-2.7309,-2.6724,-2.7613,-2.7135,-2.6164,-2.4662,-2.498,0.0,0.0,0.0,0.0,0.0,0.0,0.1146,0.0,0.1835,0.0,0.0,0.0,0.0,0.0,0.0,0.0,0.0,0.3464,0.0,0.6224,0.3251,0.0449,-0.2014,-0.1791,-0.3114,-0.5713,-0.6792,-0.8193,-0.9615,-0.9899,-1.0634,-1.1596,-1.0335,-1.0207,-1.0583,-0.9442,-0.9032,-0.8892,-0.9194,-0.9326,-0.9525,-5.2006,-5.1694,-5.1271,-5.1152,-5.1191,-5.1261,-5.1234,-5.1291,-5.1294,-5.119,-5.1199,-5.0704,-4.9427,-4.8552,0.0,-4.7145,-4.5748,-4.4776,-4.4452,-4.2909,-4.1269,-3.9664,-3.7735,-3.6089,-3.4686,-3.4087,0.0,-3.3459,-3.145,-3.0289,-2.992,-2.9721,-3.031,-3.1456,-2.9395,-2.8182,-2.7527,-2.5292,-2.4366,-2.4431,-2.419,-2.4155,-2.4241,-2.4325,-2.4313,-2.4279,-2.4803,-2.5714,-2.6876,-2.8023,-2.9699,-3.1442,-3.1938,-3.2118,-3.2191,-3.2398,-3.2422,-3.2398,-3.2517,-3.2531,-3.2452,-3.198,-3.159,-3.1263,-3.0586,-2.9053,-2.7646,-2.7126,-2.6113,-2.5577,-2.6566,-2.5932,-2.5396,-2.5714,-2.4323,-2.2311,-1.9659,0.0,0.0,0.0,0.0,0.0,0.0,0.0757,0.0,0.0,0.0,0.0,0.0,0.0,0.0,0.0946,0.059,0.0,0.3538,-0.0107,-0.2682,-0.4254,-0.5025,-0.606,-0.7529,-0.8703,-0.9947,-1.1258,-1.163,-1.2038,-1.253,-1.1803,-1.1539,-1.1513,-1.088,-1.0509,-1.0289,-1.0087,-1.0075,-1.0216,-5.3027,-5.2193,-5.1211,0.0,-5.1162,-5.1289,-5.1284,-5.1342,-5.1363,-5.1296,-5.1244,-5.1103,-5.0807,-4.9099,-4.7281,-4.5629,0.0,0.0,0.0,-4.1995,-4.0239,-3.8893,-3.6778,-3.5041,-3.3598,-3.3507,-3.3193,-3.2579,-3.2499,-3.2476,-3.2515,-3.2283,-3.2117,-3.1875,-3.0584,-2.9537,-2.8777,-2.7349,-2.6321,-2.557,-2.5177,-2.4873,-2.4554,-2.4267,-2.4885,-2.5896,-2.614,-2.7168,-2.862,-2.9406,-3.1099,-3.2849,-3.2688,-3.3744,-3.4814,-3.3958,-3.3795,-3.3741,-3.3038,-3.2956,-3.2883,-3.2048,-3.1321,-3.0613,-2.9528,-2.7472,-2.5792,-2.5882,-2.459,-2.3746,-2.467,-2.3919,-2.3178,-2.321,-2.1053,-1.7792,-1.299,0.0,0.0,0.0,0.0,0.0,0.0,-0.2739,-0.402,0.0,0.0,0.0,0.0,0.0,-0.063,-0.3364,-0.2811,-0.1983,-0.0895,-0.4695,-0.6258,-0.5573,-0.8339,-0.9492,-0.9164,-1.0302,-1.1635,-1.2931,-1.2068,-1.2318,-1.3238,-1.307,-1.2482,-1.182,-1.2336,-1.2185,-1.1515,-1.0817,-1.0488,-1.0413,0.0,0.0,-5.1804,-5.1058,-5.1677,-5.2025,-5.1326,-5.1283,-5.1287,-5.1152,-5.121,-5.0849,-4.9716,-4.889,-4.7853,-4.6439,-4.4936,-4.3794,-4.313,-4.208,-4.044,-3.8086,-3.7015,-3.5579,-3.3555,-3.314,-3.2872,-3.2625,-3.2657,-3.2732,-3.274,-3.2353,-3.2261,-3.2377,-3.1238,-3.0558,-3.0233,-2.9103,-2.8502,-2.827,-2.8277,-2.8093,-2.7813,-2.7696,-2.7709,-2.7787,-2.8112,-2.9073,-3.0337,-3.0997,-3.2634,-3.4349,-3.4349,-3.4927,-3.5411,-3.439,-3.3989,-3.3832,-3.3562,-3.3118,-3.244,-3.1282,-2.9822,-2.8337,-2.6816,-2.5926,-2.5276,-2.5025,-2.4198,-2.3662,-2.4217,-2.3634,-2.2894,-2.2079,-1.8062,-1.4316,-1.2529,-0.6264,0.0,0.0,0.015,0.008,-0.2341,-0.316,-0.4098,0.0,0.0,0.0,0.0,-0.4242,-0.3758,-0.5483,-0.4706,-0.491,-0.6168,-0.6294,-0.6678,-0.7217,-0.8307,-0.8859,-0.888,-1.0297,-1.1316,-1.198,-1.2241,-1.2475,-1.2751,-1.2187,-1.2172,-1.2567,-1.2501,-1.2486,-1.2357,-1.2152,-1.151,-1.0726,-5.2173,-5.2377,-5.2391,-5.1951,-5.208,-5.2172,-5.1794,-5.1492,-5.1279,-5.1246,-5.126,-5.0888,-4.9778,-4.9054,-4.8143,-4.6865,-4.5094,-4.3791,-4.3077,-4.1895,-4.0386,-3.8489,-3.7649,-3.6605,-3.5261,-3.4868,-3.4535,-3.4301,-3.4258,-3.4082,-3.3716,-3.3408,-3.3076,-3.2776,-3.2382,-3.192,-3.1367,-3.0788,-3.0535,-3.0535,-2.9995,-2.9822,-2.9886,-2.9439,-2.9515,-2.9958,-3.0491,-3.1485,-3.2644,-3.3154,-3.4191,-3.5289,-3.5289,-3.5568,-3.5827,-3.5396,-3.5017,-3.4561,-3.3781,-3.3252,-3.25,-3.0558,-2.8797,-2.724,-2.6416,-2.5487,-2.4621,-2.4173,-2.3206,-2.2553,-2.3115,-2.1817,-2.081,-2.0808,-1.5183,-1.0726,-1.0324,-0.4068,-0.0,-0.1133,-0.1009,-0.1593,-0.3806,-0.4945,-0.5723,-0.6109,-0.5501,0.0,-0.733,-0.7277,-0.7277,-0.7309,-0.6883,-0.7238,-0.8182,-0.8192,-0.8471,-0.9122,-0.9869,-1.0204,-1.0348,-1.1573,-1.2164,-1.2467,-1.2595,-1.2622,-1.254,-1.1815,-1.2075,-1.2817,-1.2805,-1.3081,-1.3612,-1.3017,-1.2425,-1.1845,-5.362,-5.3251,-5.2848,-5.2851,-5.2434,-5.2163,-5.2305,-5.1737,-5.1297,-5.1367,-5.1293,-5.0977,-5.0239,-4.9338,-4.8305,-4.7093,-4.5397,-4.4065,-4.3195,-4.1654,-4.0279,-3.9132,-3.8311,-3.7681,-3.7236,-3.7002,-3.6711,-3.636,-3.6168,-3.5743,-3.4961,-3.4734,-3.4192,-3.3298,-3.3649,-3.33,-3.2582,-3.2486,-3.2462,-3.24,-3.1215,-3.107,-3.1468,-3.0734,-3.1102,-3.214,-3.2988,-3.4062,-3.5078,-3.5305,-3.5756,-3.619,-3.6082,-3.6174,-3.6425,-3.6614,-3.6199,-3.5447,-3.4041,-3.3336,-3.2481,-2.9986,-2.8154,-2.6978,-2.695,-2.5502,-2.403,-2.3359,-2.2036,-2.1125,-2.1488,-1.9499,-1.7963,-1.8354,-1.1844,-0.6672,-0.6732,0.0,0.0802,-0.125,-0.2891,-0.4487,-0.6205,-0.686,-0.7559,-0.841,-0.8405,-0.8734,-0.9764,-1.0463,-1.0355,-0.9161,-0.9169,-0.9103,-0.8959,-0.9961,-1.0634,-1.0856,-1.1593,-1.203,-1.1964,-1.2746,-1.3127,-1.3252,-1.2699,-1.2292,-1.2166,-1.1755,-1.1926,-1.2639,-1.2931,-1.3691,-1.4616,-1.3639,-1.3159,-1.2956,-5.185,-5.2472,-5.2874,-5.2332,-5.2642,-5.2787,-5.2152,-5.1531,-5.116,-5.121,-5.1117,-5.0794,-5.0102,-4.9485,-4.8613,-4.7366,-4.5908,-4.4276,-4.2405,-4.165,-4.0458,-3.8639,-3.8388,-3.7869,-3.6967,-3.6798,-3.6711,-3.664,-3.6607,-3.6301,-3.5745,-3.5446,-3.512,-3.4781,-3.4622,-3.4541,-3.462,-3.4235,-3.3971,-3.3853,-3.3459,-3.3235,-3.3145,-3.3713,-3.3966,-3.4184,-3.516,-3.6036,-3.6736,-3.6769,-3.7316,-3.7945,-3.765,-3.7598,-3.7568,-3.7326,-3.66,-3.5698,-3.5085,-3.3226,-3.1127,-2.9781,-2.8318,-2.7079,-2.6423,-2.5154,-2.3842,-2.2514,-2.1407,-2.0457,-1.9519,-1.7956,-1.5777,-1.2644,-0.6086,-0.1459,-0.1562,0.0832,0.132,-0.2187,-0.58,-0.7914,-0.7889,-0.7359,-0.7517,-0.873,-0.7179,-0.7421,-1.0344,-1.0839,-1.1383,-1.1998,-1.1008,-1.0498,-1.0789,-1.1186,-1.1274,-1.1159,-1.1283,-1.1261,-1.1005,-1.1472,-1.1878,-1.2342,-1.1731,-1.1305,-1.1128,-1.1436,-1.1527,-1.1566,-1.2556,-1.3351,-1.3805,-1.4237,-1.3698,-1.2943,-5.2227,-5.2808,-5.3219,-5.2977,-5.327,-5.3454,-5.3282,-5.2813,-5.2518,-5.2537,-5.2455,-5.2124,-5.1412,-5.0628,-4.9538,-4.7908,-4.6667,-4.4997,-4.267,-4.1818,-4.0951,-3.9847,-3.9581,-3.9244,-3.8841,-3.8841,-3.869,-3.8417,-3.8264,-3.7615,-3.6539,-3.6489,-3.6054,-3.5295,-3.5531,-3.5514,-3.5307,-3.5078,-3.4971,-3.4961,-3.484,-3.4855,-3.5021,-3.5587,-3.5812,-3.6065,-3.7131,-3.7836,-3.8235,-3.8252,-3.8371,-3.8556,-3.8025,-3.7829,-3.7617,-3.7365,-3.6275,-3.4978,-3.4041,-3.2064,-3.0088,-2.9238,-2.7696,-2.6155,-2.587,-2.4525,-2.3091,-2.2155,-2.0846,-1.9434,-1.8334,-1.6644,-1.4031,-0.976,-0.5375,-0.271,-0.3249,-0.1668,-0.1892,-0.5897,-0.783,-0.8643,-0.7852,-0.7683,-0.7639,-0.797,-0.7947,-0.8647,-1.0129,-1.1129,-1.1803,-1.2137,-1.149,-1.0906,-1.0282,-1.0914,-1.1072,-1.0745,-1.0856,-1.086,-1.0741,-1.0648,-1.0871,-1.1412,-1.0555,-1.0309,-1.0527,-1.0613,-1.1069,-1.1812,-1.2639,-1.3407,-1.3905,-1.4097,-1.3811,-1.333,-5.2652,-5.2944,-5.3274,-5.3777,-5.3786,-5.3894,-5.4463,-5.4058,-5.3689,-5.3669,-5.362,-5.3301,-5.2583,-5.1555,-5.0183,-4.8379,-4.7201,-4.5635,-4.3546,-4.2439,-4.1559,-4.0836,-4.0442,-4.0255,-4.0387,-4.0551,-4.0404,-3.9986,-3.9782,-3.9008,-3.7719,-3.7728,-3.7089,-3.6085,-3.6485,-3.6357,-3.5899,-3.583,-3.5878,-3.6017,-3.6,-3.6252,-3.6709,-3.7087,-3.7369,-3.7686,-3.8723,-3.9306,-3.9535,-3.9486,-3.9323,-3.9042,-3.8417,-3.7925,-3.7614,-3.7308,-3.5889,-3.4042,-3.2595,-3.0852,-2.9151,-2.8347,-2.6702,-2.5223,-2.5201,-2.3754,-2.2255,-2.152,-1.9987,-1.848,-1.7258,-1.555,-1.293,-0.8587,-0.5883,-0.4622,-0.5354,-0.418,-0.4653,-0.8491,-0.8944,-0.8656,-0.778,-0.795,-0.8125,-0.7915,-0.9023,-0.9757,-0.9939,-1.1019,-1.1449,-1.1108,-1.1394,-1.1048,-1.0202,-1.0805,-1.094,-1.0816,-1.0669,-1.0674,-1.0923,-1.0162,-1.0277,-1.1067,-1.0079,-0.9892,-1.0461,-1.0498,-1.1011,-1.2011,-1.2762,-1.3562,-1.4109,-1.3918,-1.3933,-1.3864,-5.2005,-5.2026,-5.2508,-5.3976,-5.38,-5.3869,-5.5129,-5.4343,-5.3614,-5.3613,-5.3553,-5.325,-5.2578,-5.1389,-4.9955,-4.8335,-4.7051,-4.59,-4.4892,-4.3871,-4.2299,-4.0232,-4.0027,-3.9952,-3.9952,-4.0205,-4.0271,-4.0187,-4.0353,-4.0155,-3.9675,-3.9138,-3.8611,-3.8153,-3.7562,-3.7279,-3.7126,-3.6816,-3.6967,-3.7361,-3.7113,-3.7313,-3.7855,-3.8567,-3.8854,-3.8956,-3.9732,-4.0252,-4.0563,-4.0319,-4.022,-4.0035,-3.9345,-3.8632,-3.7971,-3.752,-3.5554,-3.3116,-3.1519,-2.9885,-2.8318,-2.6673,-2.5546,-2.474,-2.4304,-2.3074,-2.1495,-1.9664,-1.887,-1.788,-1.5879,-1.4654,-1.2697,-0.8922,-0.5996,-0.4234,-0.4282,-0.3545,-0.4039,-0.68,-0.8404,-0.9147,-0.8468,-0.8461,-0.8915,-0.9758,-0.9188,-0.9201,-1.0339,-1.0404,-1.0042,-0.912,-1.0497,-1.1584,-1.2221,-1.1778,-1.1666,-1.1873,-1.1093,-1.0988,-1.1437,-1.0127,-1.0252,-1.1598,-1.0599,-1.0481,-1.0915,-1.1824,-1.1874,-1.1611,-1.2909,-1.3658,-1.3937,-1.3931,-1.4045,-1.4256,-5.1344,-5.1702,-5.2362,-5.3636,-5.3991,-5.448,-5.5703,-5.5397,-5.5045,-5.5073,-5.499,-5.47,-5.4111,-5.2285,-5.0472,-4.8936,-4.7287,-4.5749,-4.4485,-4.3864,-4.2797,-4.1098,-4.0374,-4.0238,-4.0648,-4.0745,-4.0793,-4.0776,-4.0229,-3.9704,-3.9098,-3.8434,-3.7947,-3.7651,-3.7536,-3.7503,-3.7466,-3.7243,-3.7334,-3.7595,-3.7974,-3.8448,-3.8938,-3.9637,-3.9878,-3.9831,-4.0036,-4.0356,-4.0639,-4.0087,-3.9935,-3.9846,-3.8941,-3.8313,-3.7694,-3.6305,-3.3839,-3.1254,-2.9457,-2.8369,-2.7255,-2.5529,-2.4231,-2.3148,-2.2443,-2.1087,-1.9684,-1.8635,-1.7342,-1.6082,-1.5004,-1.4145,-1.1989,-0.7011,-0.7023,-0.6623,-0.3595,-0.4042,-0.549,-0.7831,-0.7572,-0.7931,-1.0075,-0.9128,-0.8908,-1.0416,-1.014,-0.9983,-1.0087,-0.9511,-0.8972,-0.8361,-0.8756,-0.9166,-0.9704,-0.9931,-1.0293,-1.0578,-1.0357,-1.0252,-1.0472,-0.9706,-0.9783,-1.0486,-1.0327,-1.028,-1.058,-1.137,-1.1417,-1.095,-1.2407,-1.3117,-1.3144,-1.3191,-1.3528,-1.3935,-5.0752,-5.1321,-5.2163,-5.3642,-5.4263,-5.4969,-5.6139,-5.6151,-5.5978,-5.5806,-5.5591,-5.52,-5.446,-5.2394,-5.0434,-4.8962,-4.7186,-4.5583,-4.4185,-4.3539,-4.274,-4.1713,-4.0893,-4.0724,-4.129,-4.1215,-4.1215,-4.1215,-4.0279,-3.9669,-3.9375,-3.8226,-3.7714,-3.7817,-3.7494,-3.7449,-3.7559,-3.7449,-3.757,-3.8,-3.8633,-3.9088,-3.9521,-4.0007,-4.0031,-3.9765,-3.975,-3.9868,-4.0052,-3.9595,-3.9495,-3.9226,-3.8077,-3.7042,-3.5854,-3.4316,-3.1786,-2.9021,-2.7279,-2.6138,-2.5094,-2.3716,-2.2226,-2.0976,-2.0449,-1.9175,-1.7904,-1.7323,-1.6209,-1.5022,-1.4171,-1.3495,-1.1725,-0.7557,-0.8383,-0.8381,-0.4847,-0.5294,-0.6541,-0.8054,-0.7011,-0.7094,-0.9245,-0.8876,-0.8858,-0.9766,-0.9875,-0.9781,-0.9518,-0.9043,-0.8546,-0.7925,-0.7895,-0.8115,-0.8484,-0.8716,-0.9261,-0.9809,-0.9798,-0.9806,-0.9809,-0.9482,-0.9677,-1.0069,-0.9892,-0.9964,-1.0393,-1.098,-1.1147,-1.1062,-1.2314,-1.285,-1.287,-1.2618,-1.285,-1.3259,-5.0259,-5.0779,-5.1782,-5.4099,-5.4685,-5.5206,-5.6434,-5.6433,-5.6071,-5.5384,-5.4955,-5.4303,-5.3221,-5.1412,-4.9656,-4.8137,-4.6722,-4.5397,-4.4267,-4.3031,-4.2146,-4.1822,-4.1476,-4.141,-4.1709,-4.1507,-4.1391,-4.1391,-4.055,-4.045,-4.1041,-3.8885,-3.8356,-3.9122,-3.7584,-3.7132,-3.7505,-3.7337,-3.7854,-3.8714,-3.8918,-3.9242,-3.9623,-3.9606,-3.9193,-3.864,-3.8875,-3.8891,-3.879,-3.8944,-3.8843,-3.8423,-3.6956,-3.4588,-3.2334,-3.1832,-2.9482,-2.6707,-2.5124,-2.3277,-2.1742,-2.1049,-1.9574,-1.828,-1.8401,-1.7394,-1.633,-1.5862,-1.5548,-1.4914,-1.3342,-1.2807,-1.2288,-1.1448,-1.026,-0.9115,-0.8452,-0.7371,-0.6681,-0.68,-0.6955,-0.6643,-0.5488,-0.7449,-0.8553,-0.784,-0.8047,-0.833,-0.8475,-0.9219,-0.8991,-0.7601,-0.8356,-0.8886,-0.9357,-0.8813,-0.8923,-0.9798,-0.9798,-0.9798,-0.9798,-0.9471,-0.9937,-1.0766,-0.9421,-0.9522,-1.0573,-1.0966,-1.1462,-1.1873,-1.2747,-1.3232,-1.3414,-1.2365,-1.2257,-1.2436,-5.0429,-5.1324,-5.2265,-5.4177,-5.5062,-5.5753,-5.6548,-5.6302,-5.595,-5.5812,-5.4831,-5.3742,-5.2731,-5.0813,-4.8839,-4.6903,-4.6284,-4.538,-4.4039,-4.3614,-4.3238,-4.2781,-4.1805,-4.1499,-4.1959,-4.1805,-4.1631,-4.1542,-4.055,-4.0065,-3.9932,-3.8178,-3.7569,-3.7965,-3.7097,-3.6843,-3.7152,-3.7167,-3.7787,-3.88,-3.813,-3.8659,-3.9708,-3.8874,-3.8539,-3.8573,-3.869,-3.8496,-3.8209,-3.8078,-3.763,-3.6794,-3.4564,-3.3038,-3.1651,-2.9212,-2.7263,-2.5281,-2.2886,-2.0873,-1.9387,-1.9455,-1.8451,-1.7227,-1.6227,-1.5159,-1.4366,-1.3609,-1.3383,-1.3319,-1.2964,-1.2327,-1.1729,-1.1523,-1.027,-0.905,-0.8367,-0.6657,-0.4909,-0.3372,-0.4196,-0.4433,-0.3603,-0.539,-0.7027,-0.7753,-0.7569,-0.7704,-0.8588,-0.7374,-0.6893,-0.7265,-0.7889,-0.854,-0.9347,-0.9574,-1.0237,-1.1341,-1.1122,-1.0903,-1.0684,-0.9581,-0.9669,-1.0724,-0.9896,-1.0077,-1.094,-1.1408,-1.1564,-1.1476,-1.1727,-1.2257,-1.2829,-1.158,-1.1775,-1.2575,-4.9369,-5.1061,-5.2434,-5.3629,-5.5129,-5.6112,-5.5887,-5.5993,-5.584,-5.5208,-5.4103,-5.2809,-5.1242,-4.9472,-4.7647,-4.5846,-4.5301,-4.4628,-4.3681,-4.3648,-4.3523,-4.3232,-4.2422,-4.2074,-4.2414,-4.1801,-4.1321,-4.0998,-3.9606,-3.8958,-3.8984,-3.7221,-3.6724,-3.7348,-3.6543,-3.6457,-3.6843,-3.6799,-3.7393,-3.8287,-3.7693,-3.7946,-3.8589,-3.7683,-3.7178,-3.6992,-3.6835,-3.6614,-3.6279,-3.5937,-3.5008,-3.3804,-3.1963,-3.0737,-2.948,-2.7245,-2.4995,-2.2853,-2.0893,-1.8909,-1.7359,-1.6693,-1.6075,-1.5445,-1.4624,-1.3779,-1.3259,-1.3192,-1.3105,-1.309,-1.326,-1.2555,-1.1836,-1.1678,-1.0221,-0.8954,-0.8461,-0.6244,-0.4093,-0.2488,-0.2489,-0.2251,-0.1658,-0.3642,-0.5706,-0.738,-0.7271,-0.7633,-0.8906,-0.7737,-0.7541,-0.8447,-0.8219,-0.8729,-1.0002,-1.001,-1.0457,-1.1122,-1.1013,-1.0684,-1.0245,-0.9471,-0.9475,-1.0143,-0.9187,-0.9272,-1.0016,-1.0715,-1.0972,-1.1039,-1.1618,-1.2124,-1.2495,-1.2003,-1.1806,-1.1727,-4.7638,-5.0272,-5.2302,-5.2732,-5.5051,-5.6364,-5.4834,-5.5477,-5.5582,-5.4012,-5.301,-5.1591,-4.9295,-4.7793,-4.6389,-4.4949,-4.4052,-4.3511,-4.3358,-4.3338,-4.3338,-4.3338,-4.3069,-4.2882,-4.2844,-4.1694,-4.0789,-4.0147,-3.8253,-3.7686,-3.8317,-3.6319,-3.6019,-3.7136,-3.6034,-3.5924,-3.6539,-3.6367,-3.674,-3.7491,-3.7411,-3.7219,-3.6918,-3.6307,-3.5492,-3.4549,-3.4077,-3.3776,-3.3427,-3.289,-3.1603,-3.0021,-2.9353,-2.8004,-2.6376,-2.543,-2.2767,-1.9987,-1.9028,-1.7554,-1.5708,-1.3631,-1.3143,-1.3267,-1.3515,-1.2959,-1.2726,-1.3964,-1.3996,-1.3898,-1.383,-1.3181,-1.246,-1.2192,-1.0374,-0.8937,-0.8753,-0.6212,-0.4023,-0.3303,-0.1819,-0.0601,-0.0,-0.2175,-0.4561,-0.6612,-0.697,-0.7637,-0.9252,-0.9379,-0.9701,-1.0265,-0.9054,-0.9179,-1.0891,-1.0127,-0.9798,-0.9908,-0.9798,-0.9467,-0.892,-0.903,-0.914,-0.9237,-0.7898,-0.7732,-0.8458,-0.9526,-1.0205,-1.0795,-1.221,-1.2563,-1.245,-1.3041,-1.2128,-1.0615,-4.7386,-5.0357,-5.2293,-5.2789,-5.5393,-5.6781,-5.4896,-5.4814,-5.4716,-5.3975,-5.2452,-5.0675,-4.8766,-4.7946,-4.6596,-4.4219,-4.3612,-4.345,-4.3686,-4.3734,-4.3734,-4.3686,-4.3339,-4.2882,-4.2378,-4.1806,-4.1244,-4.0654,-3.964,-3.8956,-3.8635,-3.6852,-3.6366,-3.697,-3.5688,-3.5526,-3.6224,-3.6088,-3.6693,-3.7589,-3.6745,-3.6823,-3.7297,-3.5964,-3.474,-3.3742,-3.3454,-3.2595,-3.1472,-3.0724,-2.9452,-2.7939,-2.6691,-2.5727,-2.4492,-2.2082,-2.0633,-1.953,-1.7901,-1.6256,-1.4771,-1.3718,-1.3055,-1.2544,-1.205,-1.1991,-1.2327,-1.3063,-1.3526,-1.3923,-1.4341,-1.3485,-1.2753,-1.3034,-1.1143,-0.9279,-0.8491,-0.6679,-0.4836,-0.295,-0.2704,-0.2084,-0.0614,-0.184,-0.3552,-0.5256,-0.5458,-0.6577,-0.9126,-0.8232,-0.7952,-0.8729,-0.9075,-0.9322,-0.9732,-0.9812,-1.0017,-1.0453,-1.0233,-0.979,-0.9123,-0.7697,-0.7538,-0.8422,-0.698,-0.724,-0.8839,-1.0219,-1.081,-1.0914,-1.221,-1.2741,-1.2782,-1.2055,-1.2162,-1.2342,-4.6203,-4.9279,-5.1776,-5.3124,-5.5285,-5.6238,-5.4437,-5.4169,-5.3896,-5.3109,-5.1986,-5.0541,-4.8694,-4.7684,-4.6157,-4.3779,-4.3379,-4.3286,-4.3391,-4.3461,-4.3495,-4.3548,-4.316,-4.2747,-4.2414,-4.1648,-4.0799,-3.9822,-3.8791,-3.8068,-3.7568,-3.6474,-3.626,-3.6734,-3.5645,-3.5632,-3.6382,-3.5912,-3.625,-3.697,-3.6011,-3.5702,-3.5687,-3.4159,-3.3021,-3.2139,-3.1369,-2.9849,-2.8234,-2.7498,-2.6439,-2.5296,-2.4368,-2.3801,-2.2993,-2.0951,-1.9594,-1.8384,-1.6636,-1.5275,-1.4123,-1.2995,-1.3011,-1.2941,-1.188,-1.1918,-1.2465,-1.329,-1.367,-1.3971,-1.4905,-1.4153,-1.3398,-1.3108,-1.1341,-0.9565,-0.8587,-0.6087,-0.391,-0.2665,-0.2329,-0.222,-0.2467,-0.1726,-0.259,-0.581,-0.5829,-0.6539,-0.8724,-0.8196,-0.8157,-0.8713,-0.8667,-0.914,-1.0036,-0.9919,-0.9798,-0.9786,-0.9794,-0.9464,-0.891,-0.7633,-0.7245,-0.7612,-0.6847,-0.7115,-0.8371,-0.9641,-1.0385,-1.0776,-1.1817,-1.2294,-1.2387,-1.2477,-1.2794,-1.2961,-4.5247,-4.8481,-5.1369,-5.3297,-5.4934,-5.5405,-5.3682,-5.3439,-5.3073,-5.2029,-5.1521,-5.056,-4.875,-4.7159,-4.5416,-4.3377,-4.3178,-4.3069,-4.2903,-4.2903,-4.2977,-4.3142,-4.2711,-4.2432,-4.2432,-4.1248,-4.0092,-3.8891,-3.7614,-3.6853,-3.6532,-3.5934,-3.6031,-3.6524,-3.5829,-3.5877,-3.6548,-3.5993,-3.602,-3.6332,-3.5498,-3.4725,-3.3864,-3.2316,-3.1219,-3.0434,-2.9036,-2.7138,-2.5222,-2.4586,-2.3783,-2.2947,-2.2601,-2.2164,-2.1733,-2.0634,-1.907,-1.733,-1.5821,-1.479,-1.3776,-1.2442,-1.3107,-1.3723,-1.2326,-1.2428,-1.3043,-1.4163,-1.4276,-1.4511,-1.5506,-1.4967,-1.4003,-1.2955,-1.1424,-0.9842,-0.8445,-0.5317,-0.2817,-0.1794,-0.1585,-0.2342,-0.4442,-0.259,-0.2838,-0.6929,-0.6916,-0.7206,-0.845,-0.8742,-0.892,-0.903,-0.8339,-0.8699,-1.0319,-1.0021,-0.9585,-0.913,-0.9357,-0.9016,-0.8112,-0.7771,-0.7373,-0.6792,-0.6698,-0.6972,-0.7574,-0.8738,-0.961,-1.0373,-1.1367,-1.1604,-1.1647,-1.3007,-1.3414,-1.2815,-4.6939,-4.9923,-5.2119,-5.2816,-5.4585,-5.5093,-5.2696,-5.2373,-5.2191,-5.1549,-5.0977,-5.0042,-4.8512,-4.6389,-4.4502,-4.2995,-4.2902,-4.2826,-4.2559,-4.2444,-4.2444,-4.2598,-4.2115,-4.177,-4.1736,-4.0642,-3.9952,-3.9631,-3.8351,-3.7614,-3.7483,-3.6287,-3.6048,-3.6653,-3.64,-3.6171,-3.6054,-3.6572,-3.6666,-3.6434,-3.5849,-3.5064,-3.4036,-3.2624,-3.0939,-2.9188,-2.8452,-2.6735,-2.4792,-2.4462,-2.329,-2.207,-2.1914,-2.1379,-2.0699,-1.9618,-1.8446,-1.7329,-1.6374,-1.4779,-1.3415,-1.322,-1.3615,-1.3901,-1.307,-1.3415,-1.4173,-1.5083,-1.5593,-1.6069,-1.6729,-1.5933,-1.4522,-1.2798,-1.1437,-0.9743,-0.6961,-0.5994,-0.4014,0.0122,-0.1846,-0.4076,-0.5571,-0.5806,-0.6302,-0.7195,-0.8064,-0.853,-0.8743,-0.9024,-0.9079,-0.8853,-0.8252,-0.8263,-0.8783,-0.9688,-1.0143,-1.0139,-1.0127,-0.8736,-0.6349,-0.6872,-0.6645,-0.5834,-0.5909,-0.6363,-0.7409,-0.8752,-0.9395,-0.9564,-1.1022,-1.1268,-1.0967,-1.2483,-1.2919,-1.2447,-4.8161,-5.0126,-5.1816,-5.302,-5.367,-5.3595,-5.2399,-5.1923,-5.1575,-5.1211,-5.0741,-5.0071,-4.9097,-4.6613,-4.4505,-4.3126,-4.2713,-4.2436,-4.2228,-4.2192,-4.2297,-4.2534,-4.2306,-4.1973,-4.1587,-4.0908,-4.0134,-3.9209,-3.7978,-3.7266,-3.7029,-3.6291,-3.6243,-3.666,-3.6315,-3.6416,-3.6795,-3.6464,-3.6428,-3.6609,-3.5171,-3.417,-3.3389,-3.1653,-3.0095,-2.8575,-2.7447,-2.5711,-2.3919,-2.3528,-2.2326,-2.0965,-2.0851,-2.0532,-1.9961,-1.9094,-1.7946,-1.6649,-1.5518,-1.4367,-1.334,-1.3118,-1.3439,-1.3749,-1.4061,-1.4742,-1.5208,-1.523,-1.5287,-1.5517,-1.5865,-1.5275,-1.4131,-1.2403,-1.1887,-1.0594,-0.7438,-0.6274,-0.4653,-0.1432,-0.2075,-0.3459,-0.5692,-0.6177,-0.6796,-0.7809,-0.7826,-0.8097,-0.8595,-0.8052,-0.7665,-0.7593,-0.7859,-0.8585,-0.9771,-1.0676,-1.1446,-1.1978,-1.1442,-0.9704,-0.6856,-0.7541,-0.6987,-0.5791,-0.6949,-0.7636,-0.817,-0.9521,-1.0158,-1.0389,-1.1806,-1.2201,-1.2091,-1.1437,-1.1611,-1.1949]},{"header":{"parameterUnit":"m.s-1","parameterCategory":1,"la1":30.6,"la2":28.766,"lo1":-90.7593,"lo2":-88.6598,"dx":0.0162,"dy":0.0183,"nx":116,"ny":114,"refTime":"2023-01-07T06:00:00:Z","depth":0,"parameterNumber":3,"parameterNumberName":"V-component_of_WINDS"},"data":[0.0,0.0,0.0,0.0,0.0,0.0,0.0,0.0,0.0,0.0,0.0,0.0,0.0,0.0,0.0,0.0,0.0,0.0,0.0,0.0,0.0,0.0,0.0,0.0,0.0,0.0,0.0,0.0,0.0,0.0,0.0,0.0,0.0,0.0,0.0,0.0,0.0,0.0,0.0,0.0,0.0,0.0,0.0,0.0,0.0,0.0,0.0,0.0,0.0,0.0,0.0,0.0,0.0,0.0,0.0,0.0,0.0,0.0,0.0,0.0,0.0,0.0,0.0,0.0,0.0,0.0,0.0,0.0,0.0,0.0,0.0,0.0,0.0,0.0,0.0,0.0,0.0,0.0,0.0,0.0,0.0,0.0,0.0,0.0,0.0,0.0,0.0,0.0,0.0,0.0,0.0,0.0,0.0,0.0,0.0,0.0,0.0,0.0,0.0,0.0,0.0,0.0,0.0,0.0,0.0,0.0,0.0,0.0,0.0,0.0,0.0,0.0,0.0,0.0,0.0,0.0,0.0,0.0,0.0,0.0,0.0,0.0,0.0,0.0,0.0,0.0,0.0,0.0,0.0,0.0,0.0,0.0,0.0,0.0,0.0,0.0,0.0,0.0,0.0,0.0,0.0,0.0,0.0,0.0,0.0,0.0,0.0,0.0,0.0,0.0,0.0,0.0,0.0,0.0,0.0,0.0,0.0,0.0,0.0,0.0,0.0,0.0,0.0,0.0,0.0,0.0,0.0,0.0,0.0,0.0,0.0,0.0,0.0,0.0,0.0,0.0,0.0,0.0,0.0,0.0,0.0,0.0,0.0,0.0,0.0,0.0,0.0,0.0,0.0,0.0,0.0,0.0,0.0,0.0,0.0,0.0,0.0,0.0,0.0,0.0,0.0,0.0,0.0,0.0,0.0,0.0,0.0,0.0,0.0,0.0,0.0,0.0,0.0,0.0,0.0,0.0,0.0,0.0,0.0,0.0,0.0,0.0,0.0,0.0,0.0,0.0,0.0,0.0,0.0,0.0,0.0,0.0,0.0,0.0,0.0,0.0,0.0,0.0,0.0,0.0,0.0,0.0,0.0,0.0,0.0,0.0,0.0,0.0,0.0,0.0,0.0,0.0,0.0,0.0,0.0,0.0,0.0,0.0,0.0,0.0,0.0,0.0,0.0,0.0,0.0,0.0,0.0,0.0,0.0,0.0,0.0,0.0,0.0,0.0,0.0,0.0,0.0,0.0,0.0,0.0,0.0,0.0,0.0,0.0,0.0,0.0,0.0,0.0,0.0,0.0,0.0,0.0,0.0,0.0,0.0,0.0,0.0,0.0,0.0,0.0,0.0,0.0,0.0,0.0,0.0,0.0,0.0,0.0,0.0,0.0,0.0,0.0,0.0,0.0,0.0,0.0,0.0,0.0,0.0,0.0,0.0,0.0,0.0,0.0,0.0,0.0,0.0,0.0,0.0,0.0,0.0,0.0,0.0,0.0,0.0,0.0,0.0,0.0,0.0,0.0,0.0,0.0,0.0,0.0,0.0,0.0,0.0,0.0,0.0,0.0,0.0,0.0,0.0,0.0,0.0,0.0,0.0,0.0,0.0,0.0,0.0,0.0,0.0,0.0,0.0,0.0,0.0,0.0,0.0,0.0,0.0,0.0,0.0,0.0,0.0,0.0,0.0,0.0,0.0,0.0,0.0,0.0,0.0,0.0,0.0,0.0,0.0,0.0,0.0,0.0,0.0,0.0,0.0,0.0,0.0,0.0,0.0,0.0,0.0,0.0,0.0,0.0,0.0,0.0,0.0,0.0,0.0,0.0,0.0,0.0,0.0,0.0,0.0,0.0,0.0,0.0,0.0,0.0,0.0,0.0,0.0,0.0,0.0,0.0,0.0,0.0,0.0,0.0,0.0,0.0,0.0,0.0,0.0,0.0,0.0,0.0,0.0,0.0,0.0,0.0,0.0,0.0,0.0,0.0,0.0,0.0,0.0,0.0,0.0,0.0,0.0,0.0,0.0,0.0,0.0,0.0,0.0,0.0,0.0,0.0,0.0,0.0,0.0,0.0,0.0,0.0,0.0,0.0,0.0,0.0,0.0,0.0,0.0,0.0,0.0,0.0,0.0,0.0,0.0,0.0,0.0,0.0,0.0,0.0,0.0,0.0,0.0,0.0,0.0,0.0,0.0,0.0,0.0,0.0,0.0,0.0,0.0,0.0,0.0,0.0,0.0,0.0,0.0,0.0,0.0,0.0,0.0,0.0,0.0,0.0,0.0,0.0,0.0,0.0,0.0,0.0,0.0,0.0,0.0,0.0,0.0,0.0,0.0,0.0,0.0,0.0,0.0,0.0,0.0,0.0,0.0,0.0,0.0,0.0,0.0,0.0,0.0,0.0,0.0,0.0,0.0,0.0,0.0,0.0,0.0,0.0,0.0,0.0,0.0,0.0,0.0,0.0,0.0,0.0,0.0,0.0,0.0,0.0,0.0,0.0,0.0,0.0,0.0,0.0,0.0,0.0,0.0,0.0,0.0,0.0,0.0,0.0,0.0,0.0,0.0,0.0,0.0,0.0,0.0,0.0,0.0,0.0,0.0,0.0,0.0,0.0,0.0,0.0,0.0,0.0,0.0,0.0,0.0,0.0,0.0,0.0,0.0,0.0,0.0,0.0,0.0,0.0,0.0,0.0,0.0,0.0,0.0,0.0,0.0,0.0,0.0,0.0,0.0,0.0,0.0,0.0,0.0,0.0,0.0,0.0,0.0,0.0,0.0,0.0,0.0,0.0,0.0,0.0,0.0,0.0,0.0,0.0,0.0,0.0,0.0,0.0,0.0,0.0,0.0,0.0,0.0,0.0,0.0,0.0,0.0,0.0,0.0,0.0,0.0,0.0,0.0,0.0,0.0,0.0,0.0,0.0,0.0,0.0,0.0,0.0,0.0,0.0,0.0,0.0,0.0,0.0,0.0,0.0,0.0,0.0,0.0,0.0,0.0,0.0,0.0,0.0,0.0,0.0,0.0,0.0,0.0,0.0,0.0,0.0,0.0,0.0,0.0,0.0,0.0,0.0,0.0,0.0,0.0,0.0,0.0,0.0,0.0,0.0,0.0,0.0,0.0,0.0,0.0,0.0,0.0,0.0,0.0,0.0,0.0,0.0,0.0,0.0,0.0,0.0,0.0,0.0,0.0,0.0,0.0,0.0,0.0,0.0,0.0,0.0,0.0,0.0,0.0,0.0,0.0,0.0,0.0,0.0,0.0,0.0,0.0,0.0,0.0,0.0,0.0,0.0,0.0,0.0,0.0,0.0,0.0,0.0,0.0,0.0,0.0,0.0,0.0,0.0,0.0,0.0,0.0,0.0,0.0,0.0,0.0,0.0,0.0,0.0,0.0,0.0,0.0,0.0,0.0,0.0,0.0,0.0,0.0,0.0,0.0,0.0,0.0,0.0,0.0,0.0,0.0,0.0,0.0,0.0,0.0,0.0,0.0,0.0,0.0,0.0,0.0,0.0,0.0,0.0,0.0,0.0,0.0,0.0,0.0,0.0,0.0,0.0,0.0,0.0,0.0,0.0,0.0,0.0,0.0,0.0,0.0,0.0,0.0,0.0,0.0,0.0,0.0,0.0,0.0,0.0,0.0,0.0,0.0,0.0,0.0,0.0,0.0,0.0,0.0,0.0,0.0,0.0,0.0,0.0,0.0,0.0,0.0,0.0,0.0,0.0,0.0,0.0,0.0,0.0,0.0,0.0,0.0,0.0,0.0,0.0,0.0,0.0,0.0,0.0,0.0,0.0,0.0,0.0,0.0,0.0,0.0,0.0,0.0,0.0,0.0,0.0,0.0,0.0,0.0,0.0,0.0,0.0,0.0,0.0,0.0,0.0,0.0,0.0,0.0,0.0,0.0,0.0,0.0,0.0,0.0,0.0,0.0,0.0,0.0,0.0,0.0,0.0,0.0,0.0,0.0,0.0,0.0,0.0,0.0,0.0,0.0,0.0,0.0,0.0,0.0,0.0,0.0,0.0,0.0,0.0,0.0,0.0,0.0,0.0,0.0,0.0,0.0,0.0,0.0,0.0,0.0,0.0,0.0,0.0,0.0,0.0,0.0,0.0,0.0,0.0,0.0,0.0,0.0,0.0,0.0,0.0,0.0,0.0,0.0,0.0,0.0,0.0,0.0,0.0,0.0,0.0,0.0,0.0,0.0,0.0,0.0,0.0,0.0,0.0,0.0,0.0,0.0,0.0,0.0,0.0,0.0,0.0,0.0,0.0,0.0,0.0,0.0,0.0,0.0,0.0,0.0,0.0,0.0,0.0,0.0,0.0,0.0,0.0,0.0,0.0,0.0,0.0,0.0,0.0,0.0,0.0,0.0,0.0,0.0,0.0,0.0,0.0,0.0,0.0,0.0,0.0,0.0,0.0,0.0,0.0,0.0,0.0,0.0,0.0,0.0,0.0,0.0,0.0,0.0,0.0,0.0,0.0,0.0,0.0,0.0,0.0,0.0,0.0,0.0,0.0,0.0,0.0,0.0,0.0,0.0,0.0,0.0,0.0,0.0,0.0,0.0,0.0,0.0,0.0,0.0,0.0,0.0,0.0,0.0,0.0,0.0,0.0,0.0,0.0,0.0,0.0,0.0,0.0,0.0,0.0,0.0,0.0,0.0,0.0,0.0,0.0,0.0,0.0,0.0,0.0,0.0,0.0,0.0,0.0,0.0,0.0,0.0,0.0,0.0,0.0,0.0,0.0,0.0,0.0,0.0,0.0,0.0,0.0,0.0,0.0,0.0,0.0,0.0,0.0,0.0,0.0,0.0,0.0,0.0,0.0,0.0,0.0,0.0,0.0,0.0,0.0,0.0,0.0,0.0,0.0,0.0,0.0,0.0,0.0,0.0,0.0,0.0,0.0,0.0,0.0,0.0,0.0,0.0,0.0,0.0,0.0,0.0,0.0,0.0,0.0,0.0,0.0,0.0,0.0,0.0,0.0,0.0,0.0,0.0,0.0,0.0,0.0,0.0,0.0,0.0,0.0,0.0,0.0,0.0,0.0,0.0,0.0,0.0,0.0,0.0,0.0,0.0,0.0,0.0,0.0,0.0,0.0,0.0,0.0,0.0,0.0,0.0,0.0,0.0,0.0,0.0,0.0,0.0,0.0,0.0,0.0,0.0,0.0,0.0,0.0,0.0,0.0,0.0,0.0,0.0,0.0,0.0,0.0,0.0,0.0,0.0,0.0,0.0,0.0,0.0,0.0,0.0,0.0,0.0,0.0,0.0,0.0,0.0,0.0,0.0,0.0,0.0,0.0,0.0,0.0,0.0,0.0,0.0,0.0,0.0,0.0,0.0,0.0,0.0,0.0,0.0,0.0,0.0,0.0,0.0,0.0,0.0,0.0,0.0,0.0,0.0,0.0,0.0,0.0,0.0,0.0,0.0,0.0,0.0,0.0,0.0,0.0,0.0,0.0,0.0,0.0,0.0,0.0,0.0,0.0,0.0,0.0,0.0,0.0,0.0,0.0,0.0,0.0,0.0,0.0,0.0,0.0,0.0,0.0,0.0,0.0,0.0,0.0,0.0,0.0,0.0,0.0,0.0,0.0,0.0,0.0,0.0,0.0,0.0,0.0,0.0,0.0,0.0,0.0,0.0,0.0,0.0,0.0,0.0,0.0,0.0,0.0,0.0,0.0,0.0,0.0,0.0,0.0,0.0,0.0,0.0,0.0,0.0,0.0,0.0,0.0,0.0,0.0,0.0,0.0,0.0,0.0,0.0,0.0,0.0,0.0,0.0,0.0,0.0,0.0,0.0,0.0,0.0,0.0,0.0,0.0,0.0,0.0,0.0,0.0,0.0,0.0,0.0,0.0,0.0,0.0,0.0,0.0,0.0,0.0,0.0,0.0,0.0,0.0,0.0,0.0,0.0,0.0,0.0,0.0,0.0,0.0,0.0,0.0,0.0,0.0,0.0,0.0,0.0,0.0,0.0,0.0,0.0,0.0,0.0,0.0,0.0,0.0,0.0,0.0,0.0,0.0,0.0,0.0,0.0,0.0,0.0,0.0,0.0,0.0,0.0,0.0,0.0,0.0,0.0,0.0,0.0,0.0,0.0,0.0,0.0,0.0,-0.6027,0.0,0.0,0.0,0.0,0.0,0.0,0.0,0.0,0.0,0.0,0.0,0.0,0.0,0.0,0.0,0.0,0.0,0.0,0.0,0.0,0.0,0.0,0.0,0.0,-0.8697,-0.8692,-0.8725,-0.8472,0.0,0.0,0.0,0.0,0.0,0.0,0.0,0.0,0.0,-0.3999,-0.3466,-0.1615,0.0094,0.1614,0.1132,-0.0596,-0.3319,0.0,0.0,0.0,0.0,0.0,0.0,0.0,0.0,0.0,0.0,0.0,0.0,0.0,0.0,0.0,0.0,0.0,0.0,0.0,0.0,0.0,0.0,0.0,0.0,0.0,0.0,0.0,0.0,0.0,0.0,0.0,0.0,0.0,0.0,0.0,0.0,0.0,0.0,0.0,0.0,0.0,0.0,0.0,0.0,0.0,0.0,0.0,0.0,0.0,0.0,0.0,0.0,0.0,0.0,0.0,0.0,0.0,0.0,0.0,0.0,0.0,0.0,0.0,0.0,0.0,0.0,0.0,0.0,0.0,0.0,0.0,-0.7053,0.0,0.0,0.0,0.0,0.0,0.0,0.0,0.0,0.0,0.0,0.0,0.0,0.0,0.0,0.0,0.0,0.0,0.0,0.0,0.0,0.0,-0.8124,-0.8597,-0.8472,-0.8446,-0.8709,-0.8312,-0.7883,-0.749,-0.6996,0.0,0.0,0.0,0.0,0.0,-0.4025,-0.3247,-0.231,0.0752,0.3666,0.6267,0.5903,0.3419,-0.072,-0.2084,0.0,0.0,0.0,0.0,0.0,0.0,0.0,0.0,0.0,0.0,0.0,0.0,0.0,0.0,0.0,0.0,0.0,0.0,0.0,0.0,0.0,0.0,0.0,0.0,0.0,0.0,0.0,0.0,0.0,0.0,0.0,0.0,0.0,0.0,0.0,0.0,0.0,0.0,0.0,0.0,0.0,0.0,0.0,0.0,0.0,0.0,0.0,0.0,0.0,0.0,0.0,0.0,0.0,0.0,0.0,0.0,0.0,0.0,0.0,0.0,0.0,0.0,0.0,-0.4984,-0.5327,-0.5631,-0.641,-0.7049,-0.7437,-0.8338,-0.8337,-0.7653,-0.7802,0.0,0.0,0.0,0.0,0.0,0.0,0.0,0.0,0.0,0.0,0.0,0.0,0.0,0.0,0.0,0.0,0.0,0.0,0.0,-0.7692,-0.8676,-0.8391,-0.8107,-0.8037,-0.7917,-0.7356,-0.6223,-0.607,0.0,0.0,0.0,0.0,-0.4366,-0.3368,-0.1783,0.0397,0.4264,0.6842,0.8159,0.7877,0.716,0.6064,0.2788,0.0046,-0.2111,0.0,0.0,0.0,0.0,0.0,0.0,0.0,0.0,0.0,0.0,0.0,0.0,0.0,0.0,0.0,0.0,0.0,0.0,0.0,0.0,0.0,0.0,0.0,0.0,0.0,0.0,0.0,0.0,0.0,0.0,0.0,0.0,0.0,0.0,0.0,0.0,0.0,0.0,0.0,0.0,0.0,-0.3012,-0.4017,0.0,0.0,0.0,0.0,0.0,0.0,0.0,0.0,0.0,0.0,0.0,0.0,0.0,-0.4781,-0.4535,-0.4465,-0.4481,-0.4587,-0.5308,-0.593,-0.6454,-0.7486,-0.8325,-0.9158,-1.0117,0.0,-0.8227,-0.7432,0.0,0.0,0.0,0.0,0.0,0.0,0.0,0.0,0.0,0.0,0.0,0.0,0.0,0.0,0.0,0.0,0.0,0.0,0.0,0.0,0.0,-0.6965,-0.6299,-0.6438,-0.557,-0.5051,-0.5121,-0.4746,0.0,0.0,0.0,-0.4357,-0.4089,-0.1983,0.1478,0.6299,0.8851,1.1115,1.3009,1.2853,1.2307,1.1347,0.9277,0.5538,0.0752,-0.0327,0.0,0.0,0.0,0.0,0.0,0.0,0.0,0.0,0.0,0.0,0.0,0.0,0.0,0.0,0.0,0.0,0.0,0.0,0.0,0.0,0.0,0.0,0.0,0.0,0.0,0.0,0.0,0.0,0.0,0.0,0.0,0.0,0.0,0.0,0.0,0.0,0.0,0.0,0.0,-0.2291,-0.2578,-0.3668,-0.3663,-0.388,0.0,0.0,0.0,0.0,0.0,0.0,0.0,0.0,0.0,-0.3717,-0.3665,-0.3628,-0.3616,-0.3645,-0.3716,-0.3839,-0.4653,-0.5387,-0.6017,-0.6974,-0.7987,-0.9049,-1.0054,-1.0702,-1.079,-1.0152,-0.9845,-0.9663,0.0,0.0,0.0,0.0,-1.2629,-1.3145,0.0,0.0,0.0,0.0,0.0,0.0,0.0,0.0,0.0,0.0,0.0,0.0,-0.6581,-0.5069,-0.4152,-0.4291,-0.3229,-0.3031,-0.421,-0.38,-0.399,-0.5129,-0.461,-0.415,-0.38,0.0031,0.5032,1.1084,1.3166,1.5314,1.7581,1.7888,1.7369,1.6136,1.5386,1.0938,0.3926,0.2435,0.0693,-0.1105,0.0,0.0,0.0,0.0,0.0,0.0,0.0,0.0,0.0,0.0,0.0,0.0,0.0,0.0,0.0,0.0,0.0,0.0,0.0,0.0,0.0,0.0,0.0,0.0,0.0,0.0,0.0,0.0,0.0,0.0,0.0,0.0,0.0,0.0,0.0,0.0,0.0,-0.1994,-0.2199,-0.3617,-0.3433,-0.345,0.0,0.0,0.0,0.0,0.0,0.0,-0.2528,-0.2597,-0.2402,-0.1781,-0.2146,-0.229,-0.2265,-0.2455,-0.2597,-0.2777,-0.3567,-0.4338,-0.5071,-0.611,-0.7163,-0.8324,-0.9558,-1.1085,-1.2666,-1.2526,-1.2585,-1.2893,-1.3645,-1.4563,-1.5721,-1.6744,-1.7302,-1.7615,0.0,0.0,0.0,0.0,0.0,0.0,0.0,0.0,0.0,0.0,0.0,-0.5063,-0.4427,-0.304,-0.1978,-0.1654,-0.162,-0.2207,-0.3544,-0.3557,-0.4058,-0.5326,-0.4683,-0.406,-0.3536,0.2867,0.8365,1.2781,1.65,1.907,2.0497,2.1691,2.1716,2.0751,2.016,1.5118,0.7014,0.7173,0.5374,0.2325,0.1162,0.0,0.0,0.0,0.0,0.0,0.0,0.0,0.0,0.0,0.0,0.0,0.0,0.0,0.0,0.0,0.0,0.0,0.0,0.0,0.0,0.0,0.0,0.0,0.0,0.0,0.0,0.0,0.0,0.0,0.0,0.0,0.0,0.0,0.0,0.0,0.0,0.0,0.0,-0.4066,-0.3504,0.0,0.0,0.0,0.0,-0.1709,-0.1765,-0.1629,-0.1301,-0.1584,-0.1414,-0.0582,-0.0695,-0.0718,-0.0641,-0.0721,-0.1074,-0.1522,-0.2378,-0.3141,-0.3878,-0.4984,-0.6161,-0.7406,-0.887,-1.0754,-1.2813,-1.3082,-1.409,-1.5602,-1.5279,-1.5931,-1.711,-1.783,-1.8288,-1.8498,0.0,0.0,0.0,-1.0796,-1.0183,-0.9666,-0.8915,-0.852,-0.7979,-0.7116,-0.5345,-0.3883,-0.3117,-0.0671,0.0807,0.0679,0.1123,0.0969,-0.0055,-0.1157,-0.2116,-0.2913,-0.3398,-0.1529,0.3041,0.7706,1.2744,1.8134,2.0025,2.1822,2.359,2.3979,2.3857,2.3225,2.2961,2.022,1.5624,1.2228,0.9052,0.6224,0.4492,0.2766,0.0,0.0,0.0,0.0,0.0,0.0,0.0,0.0,0.0,0.0,0.0,0.0,0.0,0.0,0.0,0.0,0.0,0.0,0.0,0.0,0.0,0.0,0.0,0.0,0.0,0.0,0.0,0.0,0.0,0.0,0.0,0.0,0.0,0.0,0.0,0.0,0.0,-0.231,-0.1807,0.0,-0.2088,-0.1925,-0.1575,-0.1304,-0.0994,-0.0554,0.0239,0.0257,0.0802,0.1869,0.1536,0.1453,0.1713,0.1254,0.0715,-0.0089,-0.0731,-0.1569,-0.2678,-0.381,-0.5155,-0.672,-0.8351,-1.0687,-1.3465,-1.5144,-1.7044,-1.9014,-2.0411,-2.1747,-2.2967,-2.405,-2.4518,-2.4594,0.0,0.0,0.0,-0.9942,-0.9612,-0.9326,-0.8607,-0.8387,-0.7783,-0.6358,-0.4398,-0.2566,-0.098,0.1439,0.2855,0.2591,0.2957,0.2383,0.0661,-0.0373,-0.1435,-0.2568,-0.1461,0.216,0.8614,1.2061,1.6404,2.1607,2.2815,2.4222,2.5814,2.613,2.6136,2.573,2.5671,2.4463,2.2189,1.8287,1.4541,1.1114,0.9017,0.6691,0.4247,0.0,0.0,0.0,0.0,0.0,0.0,0.0,0.0,0.0,0.0,0.0,0.0,0.0,0.0,0.0,0.0,0.0,0.0,0.0,0.0,0.0,0.0,0.0,0.0,0.0,0.0,0.0,0.0,0.0,0.0,0.0,0.0,0.0,0.0,0.0,-0.0612,-0.1605,-0.0976,-0.0662,-0.0854,-0.054,-0.0077,0.0624,0.0979,0.16,0.2481,0.2675,0.3191,0.4189,0.3828,0.3711,0.4013,0.3392,0.268,0.1787,0.1088,0.0183,-0.1005,-0.2466,-0.395,-0.5563,-0.7985,-1.0716,-1.3806,-1.6541,-1.9212,-2.1663,-2.3888,-2.5769,-2.7373,-2.8389,-2.8905,-2.8893,0.0,0.0,-1.0052,-0.9248,-0.8891,-0.8717,-0.8705,-0.8383,-0.7307,-0.4999,-0.329,-0.1077,0.197,0.3305,0.3949,0.3982,0.3641,0.1852,-0.1639,-0.1407,-0.2082,-0.4208,0.1173,0.6894,1.2671,1.5785,1.9267,2.3038,2.4957,2.6294,2.7136,2.8273,2.8654,2.8497,2.845,2.7637,2.613,2.5213,2.1903,1.7052,1.4782,1.189,0.8557,0.0,0.0,0.0,0.0,0.0,0.0,0.0,0.0,0.0,0.0,0.0,0.0,0.0,0.0,0.0,0.0,0.0,0.0,0.0,0.0,0.0,0.0,0.0,0.0,0.0,0.0,0.0,0.0,0.0,0.0,0.0,0.0,0.0,-0.1096,0.0218,0.0386,-0.2053,-0.1091,0.0,0.0811,0.1055,0.2086,0.4267,0.4376,0.4734,0.5447,0.5447,0.5714,0.6157,0.5894,0.5894,0.6157,0.5453,0.4736,0.4016,0.3041,0.2058,0.1073,-0.1074,-0.268,-0.4099,-0.7603,-1.0785,-1.3665,-1.7141,-2.0476,-2.3588,-2.5375,-2.7494,-2.9653,-3.0369,-3.0736,-3.0825,-1.1542,-1.0837,-1.014,-0.9378,-0.9179,-0.9057,-0.8813,-0.8676,-0.7698,-0.5182,-0.293,-0.0532,0.2306,0.4212,0.5072,0.4485,0.4528,0.3662,0.1419,0.0671,0.085,0.2094,0.6842,1.1724,1.653,2.0032,2.3282,2.6368,2.7378,2.8508,2.9831,2.9999,3.0243,3.0476,3.0041,2.923,2.817,2.7819,2.636,2.3857,1.996,1.7105,1.4888,0.0,0.0,0.0,0.0,0.0,0.0,0.0,0.0,0.0,0.0,0.0,0.0,0.0,0.0,0.0,0.0,0.0,0.0,0.0,0.0,0.0,0.0,0.0,0.0,0.0,0.0,0.0,0.0,0.0,0.0,0.0,0.0,0.28,0.101,0.1366,0.1659,0.1208,0.211,0.3111,0.399,0.481,0.5497,0.6295,0.631,0.658,0.7112,0.7027,0.7383,0.8352,0.7837,0.7749,0.8356,0.7478,0.6681,0.5965,0.5087,0.4109,0.3037,0.0714,-0.1425,-0.3641,-0.7281,-1.0851,-1.4206,-1.7865,-2.1104,-2.3971,-2.5745,-2.7704,-2.9617,-3.0317,-3.1014,-3.1599,-1.1933,-1.1314,-1.0742,-1.044,-1.0032,-0.9659,-0.9463,-0.9049,-0.761,-0.4427,-0.2438,0.0,0.3406,0.4925,0.5579,0.524,0.4167,0.2997,0.1609,0.1934,0.3992,0.8037,1.2196,1.6402,2.0549,2.3528,2.6146,2.8458,2.9152,3.0006,3.1058,3.1002,3.1227,3.1623,3.1172,3.0573,2.9953,2.9901,2.9392,2.8404,2.5712,2.2777,1.9788,1.8082,1.5943,1.3854,1.3863,1.3418,1.2734,1.1558,0.0,0.0,0.0,0.0,0.0,0.0,0.0,0.0,0.0,0.0,0.0,0.0,0.0,0.0,0.0,0.0,0.0,0.0,0.0,0.0,0.0,0.0,0.0,0.0,0.4733,0.5679,0.4901,0.4415,0.4142,0.4367,0.5043,0.5914,0.6704,0.7389,0.8059,0.8665,0.8752,0.8935,0.9218,0.9383,0.9648,1.0269,0.9753,0.9749,1.0269,0.9561,0.8943,0.8245,0.7793,0.6825,0.5424,0.3197,0.0709,-0.1949,-0.6328,-1.0452,-1.4524,-1.8874,-2.2634,0.0,0.0,0.0,0.0,0.0,-3.2185,-3.2761,-1.262,-1.2038,-1.1571,-1.1877,-1.1062,-1.0399,-1.0435,-0.956,-0.7486,-0.3557,-0.2172,0.0185,0.4641,0.5401,0.5807,0.6187,0.342,0.1337,0.0696,0.3414,0.7602,1.3332,1.699,2.0633,2.4368,2.636,2.8059,2.9551,3.0459,3.1014,3.1308,3.1558,3.1916,3.2264,3.2004,3.17,3.1428,3.1428,3.1244,3.0997,3.1077,2.8288,2.3878,2.2183,2.0309,1.8497,1.8078,1.7609,1.7274,1.7411,0.0,0.0,0.0,0.0,0.0,0.0,0.0,0.0,0.0,0.0,0.0,0.0,0.0,0.0,0.0,0.0,0.0,0.0,0.0,0.0,0.0,0.0,0.0,0.0,0.6921,0.866,0.9865,0.8756,0.7765,0.7446,0.7893,0.8533,0.9203,0.9579,1.0134,1.1203,1.1536,1.1627,1.166,0.0,0.0,0.0,0.0,1.1729,1.2072,1.1787,1.1348,1.0752,1.0802,0.9933,0.8222,0.59,0.3164,0.0,-0.5221,-1.0193,-1.4968,-2.0088,-2.4725,-2.8672,-2.8759,-2.9803,-3.1411,-3.294,-3.3891,-3.4266,-1.2762,-1.2299,-1.1988,-1.2056,-1.1351,-1.0909,-1.1287,-1.0627,-0.8752,-0.5068,-0.366,-0.1206,0.3513,0.5137,0.6129,0.6898,0.4559,0.3202,0.355,0.8588,1.3105,1.651,1.9701,2.3217,2.7088,2.7965,2.8869,2.9811,3.1341,3.1823,3.1379,3.246,3.3046,3.3219,3.3076,3.2644,3.2117,3.2174,3.1952,3.1724,3.2739,3.164,2.932,2.8408,2.7209,2.6143,2.7076,2.6807,2.5742,2.4439,2.2852,2.0875,1.741,1.3511,0.0,0.0,0.0,0.0,0.0,0.0,0.0,0.0,0.0,0.0,0.0,0.0,0.0,0.0,0.0,0.0,0.0,0.0,0.0,0.6503,0.963,1.2398,1.3505,1.3266,1.2251,1.0347,1.0705,1.1415,1.2171,1.2608,1.3087,1.3704,1.3769,1.3847,1.4021,1.3438,1.3366,1.388,1.3444,1.3522,1.4105,1.3975,1.3871,1.3781,0.0,0.0,1.0968,0.7673,0.3923,-0.0255,-0.5638,-1.1062,-1.649,-2.1286,-2.6438,-3.1459,-3.1836,-3.3048,-3.4451,-3.4337,-3.5096,-3.6011,-1.3512,-1.3287,-1.3172,-1.3267,-1.2587,-1.2053,-1.2174,-1.1547,-0.9984,-0.6949,-0.6342,-0.4645,-0.0615,0.0642,0.1667,0.2863,0.3612,0.4414,0.5447,1.1809,1.6935,1.9993,2.2761,2.5289,2.7609,2.8223,2.9019,3.0086,3.1231,3.1719,3.1573,3.2658,3.3158,3.3224,3.3589,3.3558,3.3214,3.3277,3.3487,3.3771,3.3908,3.3712,3.3244,3.2389,3.1507,3.0854,3.1986,3.1884,3.1083,3.0593,2.9224,2.708,2.3464,2.0258,1.7055,0.0,0.0,0.0,0.0,0.0,0.0,0.0,0.0,0.0,0.0,0.0,0.0,0.0,0.0,0.779,0.0,0.0,1.176,1.1423,1.39,1.5755,1.5522,1.5888,1.539,1.3254,1.3483,1.4025,1.4564,1.4788,1.5061,1.5545,1.5462,1.5379,1.5379,1.5365,1.5372,1.5394,1.5457,1.5604,1.5693,1.5792,1.5842,1.5676,1.5819,1.4859,1.2932,1.0746,0.6417,0.0329,-0.443,-1.0801,-1.8451,-2.5512,-3.0666,-3.4114,-3.4172,-3.4914,-3.5881,-3.567,-3.6499,-3.7626,-1.4487,-1.4487,-1.4489,-1.4513,-1.3753,-1.3099,-1.3027,-1.2388,-1.1071,-0.8786,-0.8817,-0.7797,-0.4512,-0.3628,-0.2859,-0.1755,0.2908,0.6072,0.6818,1.4228,1.995,2.2973,2.5105,2.6687,2.7617,2.8349,2.9327,3.0577,3.1352,3.1864,3.2106,3.288,3.3274,3.34,3.4099,3.4475,3.4561,3.4558,3.5114,3.5958,3.5117,3.5218,3.579,3.5116,3.4381,3.385,3.4587,3.4076,3.3308,3.4626,3.3226,3.0544,2.8342,2.6322,2.3306,1.6321,1.5997,0.0,0.0,0.0,0.0,0.0,0.0,0.0,0.0,0.0,1.1817,1.5802,1.6501,1.6156,1.5332,1.689,1.794,1.6773,1.8275,1.9145,1.7663,1.8074,1.7925,1.6131,1.6057,1.6221,1.646,1.6484,1.6648,1.6944,1.6796,1.6714,1.6624,1.7115,1.7245,1.6855,1.7279,1.7467,1.7304,1.7512,1.7622,1.7593,1.822,1.7317,1.4927,1.2896,0.7681,-0.0075,-0.6271,-1.358,-2.1789,-2.9694,-3.3942,-3.5396,-3.5261,-3.5666,-3.6327,-3.6587,-3.7638,-3.8797,-1.552,-1.552,-1.5301,-1.4616,-1.3809,-1.3398,-1.3738,-1.3108,-1.191,-1.0021,-0.9442,-0.8028,-0.4937,-0.3371,-0.2617,-0.2863,0.4955,0.9327,0.7935,1.6558,2.2443,2.4066,2.5278,2.6749,2.8444,2.9564,3.0619,3.1544,3.2993,3.3647,3.3564,3.3851,3.4361,3.5048,3.5116,3.5541,3.614,3.5948,3.6407,3.7183,3.6953,3.6577,3.6235,3.6882,3.6392,3.5352,3.5373,3.3164,3.0676,3.3988,3.1529,2.7633,3.0556,2.8688,2.4566,2.04,1.7286,1.3962,0.8526,0.0,0.0,1.076,1.2768,1.5025,0.0,0.0,1.6383,1.7278,1.8071,1.8082,1.654,1.9188,2.1167,1.9525,2.1341,2.2659,2.1744,2.0938,2.009,1.914,1.8069,1.7529,1.7755,1.7781,1.787,1.8095,1.7942,1.8031,1.8416,1.7934,1.7852,1.8279,1.8303,1.8628,1.9268,1.9203,1.9605,2.0561,2.0132,1.9414,1.8128,1.1451,0.4368,-0.3398,-1.759,-2.5394,-2.8276,-3.0826,-3.2421,-3.3305,-3.3988,-3.4958,-3.6017,-3.6518,-3.7813,-3.9123,-1.6395,-1.5926,-1.5551,-1.5655,-1.4652,-1.3835,-1.3888,-1.3602,-1.3,-1.1885,-1.2037,-1.1479,-0.9521,-0.7673,-0.6285,-0.55,0.3086,0.8457,0.8484,1.7723,2.3745,2.4994,2.6353,2.7442,2.8284,2.9277,3.0052,3.0658,3.1418,3.2049,3.2536,3.297,3.3906,3.5235,3.523,3.6036,3.7344,3.6799,3.7363,3.8535,3.7507,3.7497,3.805,3.7488,3.7147,3.6634,3.3728,3.1243,0.0,3.0976,2.9795,2.8308,3.175,3.0107,2.6045,2.1934,1.956,1.7996,1.6931,0.0,0.0,0.0,2.0057,2.1792,2.3798,2.395,2.4455,2.7248,2.8233,2.7958,2.5728,2.6576,2.6985,0.0,2.4939,2.4467,2.2684,2.1818,2.0645,1.8672,1.8668,1.8807,1.8957,1.9116,1.9283,1.9222,1.9283,1.9274,1.9353,1.9434,1.9449,1.943,1.9468,1.9798,2.0445,2.0369,2.0848,2.1839,2.257,2.1083,1.7546,1.5175,0.7254,-0.528,-1.709,-2.4033,-2.7129,-2.8272,-2.9754,-3.1354,-3.1436,-3.2056,-3.3177,-3.5568,-3.7227,-3.8225,-1.7225,-1.6544,-1.6076,-1.6432,-1.5332,-1.4325,-1.4176,-1.3968,-1.3615,-1.3069,-1.359,-1.3481,-1.2093,-1.0436,-0.8757,-0.7087,0.0319,0.6098,0.8931,1.7334,2.3347,2.5876,2.7406,2.8257,2.8433,2.9277,2.9786,2.9874,3.0449,3.1081,3.1815,3.2402,3.3575,3.5169,3.5175,3.6272,3.8118,3.7517,3.8258,3.9727,3.8326,3.8462,3.94,3.8219,3.6945,3.5354,3.1758,2.9034,2.7063,2.6749,2.5676,2.5098,2.8644,2.781,2.4654,2.0471,1.8043,1.7301,1.9856,0.0,0.0,2.4281,2.6743,2.8604,3.0876,3.1349,3.2241,3.5596,3.6638,3.6144,3.3719,3.3018,3.205,2.9817,2.8139,2.6311,2.3937,2.2943,2.1671,1.9443,2.0157,2.0639,2.013,1.9993,1.9991,2.0167,1.9965,1.9811,1.9966,2.0382,2.0585,2.0379,2.0827,2.1413,2.202,2.2185,2.2745,2.3582,2.4782,2.299,1.8444,1.4888,0.5244,-0.9074,-1.7138,-2.2463,-2.5484,-2.6338,-2.7555,-2.8885,-2.8858,-2.8968,-2.9528,-3.2511,-3.4689,-3.6295,-1.8016,-1.7669,-1.7152,-1.6599,-1.5548,-1.4778,-1.4761,-1.4103,-1.3459,-1.3051,-1.303,-1.2341,-1.0468,-0.9528,-0.8333,-0.667,-0.2585,0.2759,0.9423,1.4888,2.064,2.6795,2.8231,2.8997,2.9263,3.0309,3.0507,2.9794,3.1306,3.2129,3.2294,3.2899,3.3873,3.5098,3.5108,3.6284,3.8299,3.8194,3.917,4.0694,3.9924,3.9615,3.9578,3.9467,3.5653,3.0302,3.0023,2.6685,2.2263,2.1205,1.7817,1.4814,1.9307,2.0274,1.9014,1.5332,1.0531,0.744,0.0,0.0,1.9646,2.6001,3.0963,3.4813,3.6942,3.7927,3.8485,3.8926,3.9598,3.9591,3.7695,3.6637,3.524,3.2682,3.065,2.8656,2.657,2.5013,2.385,2.3233,2.3548,2.3219,0.0,2.0159,1.9766,2.0789,1.9563,1.9174,2.0147,2.0194,2.0491,2.1119,2.2611,2.379,2.4565,2.5228,2.5876,2.6462,2.6462,2.5331,2.2763,0.6981,-0.5981,-1.6273,-2.1491,-2.4312,-2.529,-2.6427,-2.6337,-2.5618,-2.6627,-2.6294,-2.5398,-2.6438,-2.9465,-3.3138,-1.8395,-1.7772,-1.7287,-1.757,-1.6182,-1.4997,-1.5054,-1.3997,-1.3088,-1.2778,-1.2416,0.0,0.0,0.0,0.0,0.0,-0.2276,0.1973,0.4547,1.2878,1.911,2.2332,2.6581,2.9175,2.9754,3.015,3.0362,3.0326,3.0241,3.0888,3.2218,3.1861,3.2908,3.5172,3.5305,3.6588,3.8642,3.8945,3.9759,4.0791,4.0018,3.9946,3.9843,3.5373,3.2203,2.9323,0.0,1.9233,1.721,1.6077,1.4869,1.449,1.8229,1.7526,1.4569,1.0337,0.9506,1.0945,0.0,0.0,2.4724,3.1397,3.487,3.73,3.9896,4.0547,4.0548,4.0348,3.7552,3.4497,3.2383,3.1449,3.041,2.8654,3.0624,3.1586,2.9266,2.8123,2.6771,2.4478,2.4213,0.0,0.0,0.0,0.0,2.1138,2.1176,2.1376,2.1512,2.1392,2.1818,2.2892,2.3692,2.4929,2.6748,2.728,2.7825,2.8352,2.5351,2.3085,2.1166,0.9105,-0.0216,-0.7198,-1.1589,-1.5394,-1.8528,-1.8521,-1.8975,-1.9812,-2.0251,-2.0135,-1.9951,-2.1433,-2.288,-2.4627,0.0,-1.833,-1.7889,-1.8332,-1.7025,0.0,0.0,0.0,0.0,0.0,0.0,0.0,0.0,0.0,0.0,0.0,0.0,-0.0135,0.2302,0.8973,1.4198,1.7238,2.1437,2.3902,2.4314,2.4569,2.4619,2.4446,2.556,2.6781,2.8154,2.9236,3.1217,3.3908,3.4248,3.5848,3.8311,3.8489,3.8263,3.7711,3.6767,3.5592,3.3895,2.9482,2.6661,0.0,1.7705,1.4172,1.2468,1.1743,1.1619,1.2132,1.4419,1.3462,1.1096,0.9072,1.0172,0.0,0.0,2.366,2.8222,3.4719,3.7725,3.966,4.1805,4.2395,4.2353,4.2032,3.7214,3.2579,3.1102,2.8051,2.5499,2.4577,2.659,2.8218,2.7905,2.7218,2.6594,2.6013,2.5861,2.5425,0.0,0.0,0.0,2.2452,2.224,2.2318,2.2571,2.2345,2.2702,2.3878,2.4794,2.6159,2.804,2.8962,2.9467,2.9522,2.524,2.1671,1.8622,1.0784,0.3702,-0.2603,-0.6212,-0.9997,-1.3785,-1.4198,-1.4821,-1.5634,-1.6192,-1.5913,-1.5591,-1.6954,-1.7331,-1.8,0.0,0.0,-1.8802,0.0,0.0,0.0,0.0,0.0,0.0,0.0,0.0,0.0,0.0,0.0,0.0,0.0,0.0,0.0,0.238,0.3624,0.6538,1.1933,1.3586,1.4324,1.4169,1.4718,1.4477,1.3438,1.7964,2.0263,2.0583,2.4982,2.8343,3.0737,3.1396,3.345,3.6404,3.6168,3.4339,3.1519,3.041,2.7165,2.2857,2.2287,1.9388,1.5496,1.4332,1.1555,0.8346,0.8397,0.8184,0.8121,0.8718,0.8798,0.9121,1.1398,1.2489,1.4632,2.2425,2.668,3.0236,3.5909,3.9513,4.1908,4.2941,4.3572,4.3869,4.3515,3.8203,3.3456,0.0,0.0,2.1364,2.1092,2.0094,2.0566,2.3897,2.3598,2.4394,0.0,0.0,0.0,0.0,0.0,0.0,2.4937,0.0,2.2344,2.3406,2.3129,2.3337,2.4281,2.6022,2.7462,2.8637,3.0178,3.0634,2.9947,2.6003,2.1191,1.5705,1.1516,0.5237,-0.2509,-0.5346,-0.8134,-1.101,-1.3304,-1.3696,-1.3071,-1.4198,-1.363,-1.2202,-1.3115,-1.3041,-1.3466,0.0,0.0,0.0,0.0,0.0,0.0,0.0,0.0,0.0,0.0,0.0,0.0,0.0,0.0,0.0,0.0,0.0,0.0,-0.2159,0.2244,0.5651,0.7633,1.1857,1.4465,1.506,1.4926,1.4568,1.399,1.5113,1.5845,1.621,1.748,1.8809,2.0155,2.1207,2.2253,2.329,2.4161,2.4118,2.3467,2.3187,2.2551,2.133,1.685,1.4956,1.4209,1.0238,0.8389,0.0,0.0,0.0,0.0,0.0,1.5614,1.5223,1.5861,1.8587,2.1923,2.4383,2.9366,3.4535,3.7182,4.0151,4.2667,4.3638,4.4252,4.323,3.8176,3.2104,2.6057,0.0,0.0,0.0,2.1813,2.8752,0.0,3.3096,3.2917,0.0,3.175,0.0,3.0537,3.1028,3.0103,0.0,0.0,2.7749,2.6497,2.6688,2.6054,2.6233,2.7405,2.8288,2.9314,3.049,3.0448,2.9848,2.87,2.4902,2.0819,1.6578,1.284,0.7734,0.1762,-0.0383,-0.3224,-0.6496,-0.8138,-0.86,-0.8397,-0.9761,-0.9997,-0.9713,-1.0817,-1.1311,-1.1626,0.0,0.0,0.0,0.0,0.0,0.0,0.0,0.0,0.0,0.0,0.0,0.0,0.0,0.0,0.0,0.0,0.0,0.0,0.0,-0.0107,0.2098,0.2694,0.5792,0.7757,0.824,0.8031,0.7787,0.7473,0.862,0.9474,1.007,1.1589,1.3073,1.4478,1.5404,1.6385,1.7381,1.7976,1.7407,0.0,0.0,1.4658,1.324,0.981,0.9358,1.0163,0.7655,0.0,0.0,0.0,0.0,1.6372,1.8328,1.8816,1.8939,2.0586,0.0,2.5687,2.7849,3.2048,3.6125,3.7336,4.0024,4.1849,4.002,4.005,3.8619,3.2262,2.5651,0.0,0.0,0.0,0.0,0.0,0.0,0.0,3.3145,3.3253,3.3349,0.0,3.2947,0.0,3.3067,3.2193,3.2056,0.0,3.0418,2.8891,2.9182,2.8199,2.8088,2.9048,2.9012,2.9238,2.9785,2.8726,2.7575,2.6325,2.2636,1.9377,1.6412,1.2855,0.8673,0.4162,0.0,-0.0543,-0.3824,-0.4825,-0.564,-0.6339,-0.7348,-0.7853,-0.8197,-0.8799,-0.9271,-0.9728,0.0,0.0,0.0,0.0,0.0,0.0,0.0,0.0,0.0,0.0,-1.0343,0.0,0.0,0.0,0.0,0.0,0.0,0.0,0.0,0.0,-0.1845,-0.1504,-0.1029,-0.0761,-0.0761,-0.0856,-0.1032,-0.1261,0.115,0.2607,0.3268,0.6226,0.8566,1.0314,1.0781,1.1942,1.3565,1.3323,1.1562,0.8849,0.7902,0.5826,0.3425,0.0,0.4193,0.5639,0.0,0.0,0.0,0.0,2.0077,2.0351,2.0827,2.1296,2.2293,2.5527,2.6818,2.8054,3.1728,3.4477,3.6514,3.7195,3.9707,4.063,3.5173,3.4269,3.2703,2.6057,0.0,0.0,1.3876,0.0,1.4063,1.48,0.0,2.5423,2.9951,3.0441,3.1468,3.4542,3.4662,3.4479,3.4275,3.4304,3.4511,3.4981,3.2017,3.0556,3.132,2.9991,2.9345,2.9612,2.8793,2.8173,2.7793,2.6206,2.4778,2.3554,1.9982,1.7369,1.5471,1.2091,0.8595,0.5175,0.3339,0.0778,-0.2184,-0.2884,-0.4106,-0.5562,-0.6051,-0.663,-0.712,-0.7116,-0.7532,-0.7912,0.0,0.0,0.0,0.0,0.0,0.0,0.0,0.0,0.0,0.0,-0.9927,-0.9201,0.0,0.0,0.0,0.0,0.0,0.0,0.0,0.0,0.0,-0.087,-0.0393,-0.0135,-0.0135,-0.0742,-0.1397,-0.2014,-0.1542,-0.1548,-0.1977,-0.0801,-0.0046,0.0281,0.0384,0.0633,0.0932,0.0917,0.0892,0.0912,0.0702,0.1375,0.248,0.2594,0.0,0.0,0.0,0.0,0.0,0.0,2.1547,2.5203,2.8294,2.9507,3.0009,3.087,3.1866,3.2815,3.3609,3.619,3.8596,3.8223,4.0468,4.1268,3.5381,3.4017,0.0,0.0,0.0,1.3343,0.7714,1.0449,0.0,1.9296,0.0,0.0,0.0,0.0,3.6363,0.0,0.0,0.0,0.0,0.0,0.0,0.0,0.0,3.3156,3.3667,3.2225,3.0694,2.9249,2.853,2.7693,2.677,2.5129,2.3468,2.1849,1.8453,1.5824,1.3889,1.0894,0.788,0.4969,0.3583,0.0,-0.0313,-0.1798,-0.2665,-0.3231,-0.4741,-0.5743,-0.637,-0.677,-0.699,-0.7011,0.0,0.0,0.0,0.0,0.0,0.0,0.0,-0.9942,-0.9734,-0.9983,-0.9096,-0.8447,-0.849,-0.7154,-0.5679,0.0,0.0,0.0,0.0,0.0,0.0,0.0,0.0,0.0,-0.0556,-0.125,0.0,0.0,0.0,-0.3452,-0.3901,0.0,0.0,-0.34,-0.34,-0.34,-0.3345,-0.2954,-0.2343,-0.1621,-0.1253,0.0,0.1667,0.0,0.0,0.0,0.0,0.0,0.0,0.0,2.0168,2.5788,2.9959,3.161,3.2018,3.261,3.3323,3.4071,3.4872,3.6526,3.8054,3.8365,4.0081,3.9468,3.0889,0.0,0.0,0.0,0.0,0.8713,0.542,0.0,0.0,0.0,0.0,0.0,0.0,0.0,0.0,0.0,0.0,0.0,0.0,0.0,0.0,0.0,0.0,3.4204,3.4746,3.292,3.0883,2.8736,2.7861,2.6795,2.5479,2.3339,2.1545,2.0054,1.6729,1.4479,1.3133,1.0212,0.7811,0.5943,0.4216,0.0,0.1276,-0.0394,-0.1341,-0.1836,-0.3474,-0.4472,-0.5119,-0.5438,-0.5796,-0.6077,0.0,0.0,0.0,0.0,0.0,0.0,0.0,-0.9391,-0.9036,-0.9198,-0.8242,-0.7588,-0.7538,-0.6211,-0.4768,0.0,0.0,0.0,0.0,0.0,0.0,0.0,0.0,0.0,0.0,0.0,0.0,0.0,0.0,0.0,0.0,0.0,0.0,0.0,0.0,0.0,-0.4236,-0.3566,-0.2798,0.0,0.0,0.0,0.0,0.0,0.0,0.0,0.0,0.0,0.0,0.0,1.7197,2.277,2.7353,2.9677,3.0855,3.1933,3.251,3.3291,3.5504,3.6696,3.7521,3.8363,3.9593,3.7729,2.6742,2.3936,0.0,0.0,0.0,0.4956,0.4721,0.0,0.0,0.0,0.0,0.0,0.0,0.0,0.0,0.0,0.0,0.0,0.0,0.0,0.0,0.0,0.0,0.0,3.4301,3.2444,3.0309,2.7932,2.6835,2.5433,2.3718,2.1518,1.9673,1.8127,1.5304,1.3568,1.2542,0.9877,0.8055,0.6964,0.4927,0.0,0.0,0.1113,-0.0,-0.0806,-0.2026,-0.2904,-0.3594,-0.3633,-0.4033,-0.4265,0.0,0.0,0.0,0.0,0.0,0.0,0.0,-0.9221,-0.8616,-0.8272,-0.7864,-0.6892,-0.4969,-0.4288,-0.3421,0.0,0.0,0.0,0.0,0.0,0.0,0.0,0.0,0.0,0.0,0.0,0.0,0.0,0.0,0.0,0.0,0.0,0.0,0.0,0.0,0.0,0.0,-0.34,0.0,0.0,0.0,0.0,0.0,0.0,0.0,0.0,0.0,0.0,0.0,0.0,0.0,1.4802,1.9321,2.3485,2.696,2.8695,0.0,0.0,3.5173,3.7686,3.8896,3.8579,3.9788,3.8103,2.6856,0.0,0.0,0.0,0.5968,0.5262,0.465,0.0,0.0,0.0,0.0,1.7978,0.0,0.0,0.0,0.0,0.0,0.0,0.0,0.0,0.0,0.0,0.0,0.0,3.1433,3.0556,2.8934,2.6486,2.519,2.3435,2.1057,2.0117,1.8396,1.5955,1.4726,1.3323,1.1844,1.0027,0.8484,0.7115,0.5448,0.0,0.0,0.2325,0.1279,0.0394,-0.0161,-0.0893,-0.1638,-0.1451,-0.1039,-0.0607,0.0,0.0,0.0,0.0,0.0,0.0,-0.9241,-0.8424,-0.7853,-0.7881,-0.6982,-0.5846,-0.4532,-0.3468,-0.2436,-0.1452,0.0,0.0,0.0,0.0,0.0,0.0,0.0,0.0,0.0,0.0,-0.2787,-0.4044,0.0,0.0,0.0,0.0,0.0,0.0,0.0,0.0,0.0,0.0,0.0,0.0,0.0,0.0,0.0,0.0,0.0,0.0,0.0,0.0,0.0,0.0,0.0,0.0,1.2584,1.5226,0.0,0.0,2.8529,2.9815,3.4822,3.6544,3.6932,3.7312,3.5854,3.2358,2.497,0.0,0.0,0.8293,0.6036,0.5269,0.4625,0.4125,0.0,0.0,0.0,0.0,0.0,0.0,0.0,0.0,0.0,0.0,0.0,0.0,0.0,0.0,0.0,0.0,3.0415,2.9812,2.8441,2.6199,2.4803,2.3045,2.0856,1.972,1.8029,1.5946,1.4344,1.3126,1.2068,0.9963,0.872,0.811,0.628,0.0,0.0,0.3483,0.2633,0.2504,0.2844,0.2174,0.1157,0.1685,0.1723,0.1321,0.0,0.0,0.0,0.0,0.0,-0.9172,-0.8781,-0.7905,-0.7332,-0.7368,-0.6303,-0.5152,-0.4213,-0.3171,-0.2154,-0.1188,-0.0419,0.0,0.0,0.0,0.0,0.0,0.0,0.0,0.0,0.0,-0.2521,-0.3845,-0.3224,-0.2956,0.0,0.0,0.0,0.0,0.0,0.0,0.0,0.0,0.0,0.0,0.0,0.0,0.0,0.0,0.0,0.0,0.0,0.0,0.0,0.0,0.0,0.0,0.0,0.0,0.0,0.0,2.5373,2.7263,3.2449,3.4472,3.5284,3.6041,3.3156,2.8781,0.0,0.0,0.0,0.7846,0.6036,0.5214,0.4291,0.3735,0.3289,0.301,0.5996,0.8892,1.0352,0.0,0.0,0.0,0.0,0.0,0.0,0.0,0.0,0.0,0.0,0.0,2.9729,2.887,2.7646,2.5905,2.4386,2.2523,2.0308,1.9109,1.7415,1.5274,1.387,1.2818,1.2005,1.0227,0.9322,0.9192,0.7558,0.0,0.0,0.4994,0.4407,0.4525,0.5157,0.4795,0.3884,0.4421,0.4195,0.3451,0.0,0.0,0.0,0.0,0.0,0.0,-0.8651,-0.7905,-0.712,-0.6666,-0.5982,-0.4992,-0.3566,-0.34,-0.2788,-0.1228,-0.0434,0.0,0.0,0.0,0.0,0.0,0.0,0.0,0.0,0.0,-0.1476,-0.2225,-0.2225,-0.2203,-0.221,-0.221,0.0,0.0,0.0,0.0,0.0,0.0,0.0,0.0,0.0,0.0,0.0,0.0,0.0,0.0,0.0,0.0,0.0,0.0,0.0,0.0,0.0,0.6443,0.8232,1.4792,1.8623,2.1891,2.7372,3.1726,3.4749,3.4969,3.2931,2.9384,0.0,0.0,0.0,0.7874,0.6036,0.5046,0.3564,0.3287,0.3065,0.2343,0.3037,0.0,1.1634,0.0,0.0,0.0,0.0,0.0,0.0,0.0,0.0,0.0,0.0,0.0,2.9104,2.7533,2.6174,2.5252,2.3708,2.1655,1.8929,1.803,1.6188,1.3318,1.3069,1.2352,1.1422,1.0935,1.0486,1.007,0.0,0.0,0.0,0.7037,0.6666,0.6224,0.6371,0.6464,0.6458,0.6286,0.627,0.6091,0.0,0.0,0.0,0.0,0.0,0.0,0.0,-0.7829,-0.7297,-0.6415,-0.5837,-0.516,-0.4236,-0.3677,-0.3176,-0.2732,-0.1492,0.0,0.0,0.0,0.0,0.0,0.0,0.0,0.0,-0.1118,-0.1476,-0.2227,-0.17,-0.1431,-0.1415,-0.0924,-0.0678,-0.0677,0.0,0.0,0.0,0.0,0.0,0.0,0.0,0.0,0.0,0.0,0.0,0.0,0.0,0.0,0.0,0.0,0.0,0.0,0.0,0.0,0.0,1.0115,1.415,1.8307,2.2824,2.4811,2.5645,2.5663,2.2659,1.9186,1.7541,0.0,0.0,0.7202,0.6421,0.5651,0.3671,0.2899,0.2305,0.1555,0.1283,0.1785,0.0,0.0,0.0,0.0,0.0,0.0,0.0,0.0,0.0,0.0,0.0,0.0,2.8497,2.7606,2.6444,2.5056,2.3285,2.1235,1.8819,1.8407,1.6917,1.4353,1.4063,1.3418,1.2674,1.1615,1.1178,0.0,0.0,0.0,0.0,0.9063,0.8921,0.8746,0.867,0.8874,0.91,0.7967,0.7669,0.7492,0.0,0.0,0.0,0.0,0.0,0.0,0.0,-0.7923,-0.7518,-0.636,-0.5939,-0.5466,-0.4567,-0.407,-0.3622,-0.34,-0.2232,0.0,0.0,0.0,0.0,0.0,0.0,0.0,-0.0671,-0.034,-0.0582,-0.1399,-0.0553,-0.0379,-0.0658,-0.0198,0.0,0.0,0.0,0.0,0.0,0.0,0.0,0.0,0.0,0.0,0.022,0.0,0.0,0.0,0.0,0.0,0.0,0.0,0.0,0.0,0.0,0.0,0.0,0.0,1.0446,1.4026,1.8031,2.002,2.0914,2.0797,1.7713,0.0,0.0,0.0,0.0,0.7041,0.6322,0.5273,0.3511,0.2621,0.1797,0.0459,0.0346,0.0,0.0,0.0,0.0,0.0,0.0,0.0,0.0,0.0,0.0,0.0,0.0,0.0,2.7819,2.7115,2.6093,2.4764,2.3236,2.15,1.9402,1.8792,1.7394,1.518,1.4601,1.3983,1.3348,1.242,1.2039,0.0,0.0,0.0,0.0,1.0706,1.0687,1.079,1.0854,1.1013,1.1131,0.9823,0.9123,0.8629,0.0,0.0,0.0,0.0,0.0,0.0,0.0,-0.8114,-0.7772,-0.637,-0.613,-0.5702,-0.4608,-0.4519,-0.4181,-0.3398,0.0,0.0,0.0,0.0,0.0,0.0,0.0,0.0,0.0,0.0868,0.0911,0.013,0.0994,0.0966,0.0146,0.0146,0.0072,0.0,0.0,0.0,0.0,0.0,0.0,0.0,0.0,0.0,0.0,0.0,0.0,0.0,0.0,0.0,0.0,0.0,0.0,0.0,0.0,0.0,0.0,0.0,0.0,0.0,0.0,1.6746,1.9311,1.9056,1.6848,1.4532,1.4113,1.0231,0.0,0.729,0.5905,0.4301,0.3193,0.246,0.134,-0.0731,0.0,0.0,0.0,0.0,0.0,0.0,0.0,0.0,0.0,0.0,0.0,0.0,0.0,0.0,2.7019,2.624,2.537,2.4465,2.3543,2.2175,2.0289,1.9079,1.7541,1.5745,1.4807,1.4122,1.3629,1.3244,1.2866,0.0,0.0,0.0,0.0,1.1986,1.2228,1.2503,1.294,1.3001,1.2636,1.1709,1.0688,0.9481,0.0,0.0,0.0,0.0,0.0,0.0,0.0,0.0,0.0,0.0,-0.5687,-0.5238,-0.4556,-0.4519,-0.4184,0.0,0.0,0.0,0.0,0.0,0.0,0.0,0.0,0.0,0.0,0.0878,0.1286,0.1196,0.207,0.2068,0.1236,0.1236,0.079,0.0,0.0,0.0,0.0,0.0,0.0,0.0,0.0,0.0,0.0,0.0,0.0,0.0,0.4687,0.5398,0.0,0.0,0.0,0.0,0.0,0.0,0.0,0.0,0.8527,0.8991,0.9962,0.0,1.1999,1.1509,1.0846,1.0241,0.0,0.9157,0.8003,0.7019,0.6425,0.546,0.3407,0.1644,0.017,-0.0896,0.0,0.0783,0.0,0.0,0.0,0.0,0.0,0.0,0.0,0.0,0.0,0.0,0.0,2.6967,2.6162,2.5823,2.5119,2.4112,2.3404,2.2056,1.9922,1.8834,1.7638,1.6123,1.5488,1.4888,1.4325,1.3821,1.3424,0.0,0.0,0.0,1.3198,1.3411,1.3999,1.4672,1.453,1.4488,1.4427,1.2858,1.181,1.082,0.0,0.0,0.0,0.0,0.0,0.0,0.0,0.0,0.0,0.0,0.0,-0.4147,-0.399,-0.3677,0.0,0.0,0.0,0.0,0.0,0.0,0.0,0.0,0.0,0.0852,0.0529,0.1371,0.1756,0.1572,0.2489,0.2716,0.2255,0.1806,0.1256,0.0713,0.0209,0.0,0.0,0.0,0.0,0.0,0.0,0.0,0.0,0.0,0.0,0.0,0.3977,0.4836,0.0,0.6284,0.8167,0.9857,0.0,0.0,0.0,0.0,0.8797,0.8705,0.83,0.8712,0.9233,0.8878,0.8811,0.8782,0.8778,0.8271,0.7746,0.7606,0.6539,0.482,0.2107,0.1294,0.0,0.0,0.1731,0.0,0.0,0.0,0.0,0.0,0.0,0.0,0.0,0.0,0.0,0.0,0.0,2.6322,2.5591,2.5618,2.5256,2.424,2.3753,2.2497,2.0398,1.9586,1.8448,1.6959,1.6333,1.563,1.4848,1.4289,1.3855,0.0,0.0,0.0,1.4322,1.4816,1.5386,1.5945,1.5898,1.5628,1.5167,1.3748,1.2637,1.1515,0.0,0.0,0.0,0.0,0.0,0.0,0.0,0.0,0.0,0.0,0.0,0.0,0.0,0.0,0.0,0.0,0.0,0.0,0.0,0.0,0.0,0.0,0.2361,0.1947,0.1368,0.2137,0.2391,0.2036,0.2812,0.3135,0.3029,0.2273,0.1685,0.1307,0.0416,0.0,0.0,0.0,0.0,0.0,0.0,0.0,0.0,0.0,0.0,0.0,0.0,0.0,0.0,0.7189,0.8621,0.9714,0.9714,0.0,0.0,0.0,0.0,0.0,0.7545,0.8135,0.8957,0.8577,0.8457,0.8466,0.8378,0.7603,0.7165,0.7967,0.6206,0.3624,0.0837,0.0783,0.0,0.0,0.0,0.0,0.0,0.0,0.0,0.0,0.0,0.0,0.0,0.0,0.0,0.0,0.0,2.5756,2.5174,2.5395,2.5223,2.4593,2.4112,2.3048,2.1376,2.0651,1.9497,1.7829,1.7064,1.6218,1.5369,1.4816,1.4367,1.4011,0.0,0.0,1.518,1.6228,1.6767,1.6925,1.7178,1.6663,1.5667,1.4664,1.3484,1.2065,0.0,0.0,0.0,0.0,0.0,0.0,0.0,0.0,0.0,0.0,0.0,0.0,0.0,0.0,0.0,0.0,0.0,0.0,0.0,0.0,0.0,0.4311,0.314,0.2451,0.2465,0.2605,0.3123,0.4035,0.4289,0.3911,0.2961,0.3084,0.21,0.0218,0.0071,0.0,0.0,0.0,0.0,0.0,0.0,0.0,0.0,0.0,0.0,0.0,0.0,0.0,0.0,0.6551,0.8085,0.9693,0.968,0.0,0.0,0.0,0.0,0.0,0.7122,0.8467,0.9786,0.7494,0.6966,0.6853,0.6426,0.7449,0.7833,0.5639,0.4812,0.3952,0.2192,-0.1044,-0.3064,0.0,0.0,0.0,0.0,0.0,0.0,0.0,0.0,0.0,0.0,0.0,0.0,0.0,0.0,2.5216,2.5061,2.4616,2.4367,2.4436,2.3827,2.3097,2.2353,2.1107,1.9839,1.8566,1.7539,1.6871,1.6346,1.5659,1.5086,1.4782,0.0,1.6026,1.6158,1.758,1.8408,1.8797,1.8772,1.8208,1.7245,1.6156,1.4774,1.2975,0.0,0.0,0.0,0.0,0.0,0.0,0.0,0.0,0.0,0.0,0.0,0.0,0.0,0.0,0.0,0.0,0.0,0.0,0.0,0.0,0.4445,0.5043,0.435,0.3653,0.3194,0.3359,0.3827,0.4585,0.4707,0.4796,0.4854,0.3774,0.2403,0.0872,0.028,0.0,0.0,0.0,0.0,0.0,0.0,0.0,0.0,0.0,0.0,0.0,0.0,0.0,0.0,0.0,0.7993,0.894,0.933,0.0,0.0,0.0,0.0,0.0,0.7509,0.8108,0.8582,0.675,0.723,0.7966,0.6824,0.6426,0.5943,0.4755,0.3809,0.2276,0.0,0.0,-0.1562,0.7478,0.0,0.0,0.0,0.0,0.0,0.0,0.0,0.0,0.0,0.0,0.0,0.0,0.0,0.0,2.465,2.4721,2.469,2.4646,2.4147,2.3755,2.3477,2.1919,2.0514,1.9195,1.8526,1.771,1.6893,1.6346,1.6321,1.6781,0.0,1.7367,1.84,1.8978,1.9251,1.9403,1.9497,1.8828,1.7514,1.5392,1.3652,1.1784,0.0,0.0,0.0,0.0,0.0,0.0,0.0,0.0,0.0,0.0,0.0,0.0,0.0,0.0,0.0,0.0,0.0,0.0,0.0,0.4508,0.4914,0.5291,0.5226,0.4839,0.416,0.4048,0.4362,0.5089,0.4958,0.53,0.6061,0.3783,0.2339,0.1524,0.0486,0.0,0.0,0.0,0.0,0.0,0.0,0.0,0.0,0.0,0.0,0.0,0.0,0.0,0.0,0.0,0.0,0.0,0.0,0.0,0.0,0.8878,0.8804,0.8646,0.7889,0.7907,0.7779,0.61,0.7024,0.7992,0.6334,0.4915,0.3712,0.2803,0.1678,0.0,0.0,-0.3277,0.0,0.0,0.0,0.0,0.0,0.0,0.0,0.0,0.0,0.0,0.0,0.0,0.0,0.0,0.0,0.0,2.4363,2.4728,2.4835,2.4773,2.4274,2.4001,2.4016,2.2611,2.1219,1.9853,1.9364,1.8545,1.7636,1.7316,1.7746,1.8623,1.84,1.8914,2.0052,2.0533,2.0387,1.9807,2.0152,1.9215,1.7387,1.4792,1.2559,1.0437,0.0,0.0,0.0,0.0,0.0,0.0,0.0,0.0,0.0,0.0,0.0,0.0,0.0,0.0,0.0,0.0,0.0,0.0,0.0,0.4847,0.4975,0.5138,0.5274,0.5467,0.5657,0.4708,0.4847,0.6163,0.5312,0.4907,0.4934,0.2774,0.1636,0.1525,0.0496,0.0,0.0,0.0,0.0,0.0,0.0,0.0,0.0,0.0,0.0,0.0,0.0,0.0,0.0,0.0,0.0,0.0,0.0,0.0,0.8831,0.8818,0.8804,0.8646,0.7889,0.8632,0.8764,0.5506,0.4752,0.4333,0.2748,0.2998,0.2315,-0.2052,-0.3137,0.0,0.0,0.0319,0.0,0.0,0.0,0.0,0.0,0.0,0.0,0.0,0.0,0.0,0.0,0.0,0.0,0.0,0.0,0.0,2.4563,2.4047,2.3866,2.4216,2.3626,2.337,2.3488,2.2816,2.1886,2.0663,1.9716,1.9173,1.888,1.9042,1.9161,1.9328,2.1096,2.1006,1.9911,2.2488,2.2378,2.0707,2.129,1.9734,1.6981,1.567,1.2925,0.9763,0.0,0.0,0.0,0.0,0.0,0.0,0.0,0.0,0.0,0.0,0.0,0.0,0.0,0.0,0.0,0.0,0.0,0.0,0.0,0.4918,0.5067,0.5399,0.5379,0.5498,0.5793,0.5386,0.5568,0.6393,0.616,0.5901,0.5701,0.3545,0.2472,0.2336,0.0692,0.0,0.0,0.0,0.0,0.0,0.0,0.0,0.0,0.0,0.0,0.0,0.0,0.0,0.0,0.0,0.7396,0.8427,0.8699,0.8804,0.8804,0.8804,0.8804,0.8752,0.848,0.6763,0.5182,0.5427,0.2527,-0.0062,0.0961,0.1291,0.0466,-0.2858,-0.5382,0.0,0.0,0.0,0.0,0.0,0.0,0.0,0.0,0.0,0.0,0.0,0.0,0.0,0.0,0.0,0.0,0.0,0.0,0.0,2.4721,2.459,2.4473,2.4338,2.3515,2.2965,2.2672,2.1735,2.1133,2.0941,2.0665,2.0322,1.9998,2.0658,2.1304,2.1924,2.2788,2.2975,2.2645,2.3546,2.3294,2.2298,2.1835,2.0291,1.8158,1.5763,1.2756,0.9559,0.0,0.0,0.0,0.0,0.0,0.0,0.0,0.0,0.0,0.0,0.0,0.0,0.0,0.0,0.0,0.0,0.0,0.0,0.483,0.4847,0.5026,0.5426,0.5345,0.5426,0.5728,0.5779,0.6,0.6407,0.6512,0.6407,0.6108,0.4244,0.3283,0.3107,0.0956,0.0,0.0,0.0,0.0,0.0,0.0,0.0,0.0,0.0,0.0,0.0,0.0,0.0,0.0,0.0,0.745,0.848,0.8752,0.8804,0.8804,0.8804,0.8804,0.8752,0.8533,0.6104,0.3626,0.3431,-0.006,-0.3622,-0.4049,-0.3103,-0.3049,-0.6466,-0.8574,-0.8755,-0.5187,0.0,0.0,0.0,0.0,0.0,0.0,0.0,0.0,0.0,0.0,0.0,0.0,0.0,0.0,0.0,0.0,0.0,0.0,2.4792,2.4648,2.3997,2.3095,2.2468,2.2083,2.1127,2.0907,2.1624,2.2298,2.2205,2.152,2.2788,2.3728,2.4414,2.5046,2.514,2.4924,2.5228,2.492,2.4118,2.2431,2.0665,1.8832,1.6171,1.2907,0.9351,0.0,0.0,0.0,0.0,0.0,0.0,0.0,0.0,0.3566,0.4405,0.4519,0.0,0.0,0.0,0.0,0.0,0.0,0.0,0.468,0.4691,0.4823,0.5118,0.5131,0.5274,0.5583,0.5728,0.5949,0.6257,0.6338,0.6101,0.5793,0.4515,0.3893,0.377,0.1166,0.0,0.0,0.0,0.0,0.0,0.0,0.0,0.0118,0.0,0.0,0.0,0.0,0.0,0.0,0.0,0.7074,0.783,0.8586,0.8804,0.8804,0.8804,0.8804,0.8639,0.7883,0.7122,0.5085,-0.0729,-0.3203,-0.609,-1.3121,-1.0736,-0.8546,-1.4013,-1.3367,-1.2337,-1.4134,0.0,0.0,0.0,0.0,0.0,0.0,0.0,0.0,0.0,0.0,0.0,0.0,0.0,0.0,0.0,0.0,0.0,0.0,2.4452,2.4092,2.3148,2.225,2.1839,2.1916,2.1163,2.1549,2.2941,2.4628,2.4713,2.3381,2.5394,2.6419,2.6586,2.7936,2.7687,2.6409,2.7841,2.7566,2.5938,2.3185,2.0829,1.8851,1.7079,1.3463,0.9072,0.0,0.0,0.0,0.0,0.0,0.0,0.0,0.0,0.3624,0.4405,0.4519,0.0,0.0,0.0,0.0,0.0,0.0,0.0,0.468,0.4691,0.4823,0.5118,0.5131,0.5223,0.5423,0.5655,0.5882,0.6098,0.641,0.6266,0.5702,0.5322,0.509,0.4813,0.1495,0.0,0.0,0.0,0.0,0.0,0.0,0.0,0.0117,0.0,0.0,0.0,0.0,0.0,0.0,0.0,0.0,0.0,0.8752,0.8804,0.8804,0.8804,0.8664,0.8395,0.7762,0.3023,-0.1841,-0.252,-0.793,-1.3768,-1.6243,-1.4652,-1.3607,0.0,-1.901,-2.0,-1.9645,0.0,0.0,0.0,0.0,0.0,0.0,0.0,0.0,0.0,0.0,0.0,0.0,0.0,0.0,0.0,0.0,0.0,0.0,2.4637,2.4034,2.305,2.3062,2.2519,2.1273,2.202,2.3181,2.4761,2.6455,2.6747,2.5933,2.814,2.8799,2.8254,2.9531,2.9148,2.7667,2.7735,2.7126,2.6142,2.5485,2.3731,2.1239,1.8026,1.4471,1.0613,0.0,0.0,0.0,0.0,0.0,0.0,0.3735,0.3846,0.4015,0.4463,0.4519,0.4519,0.0,0.0,0.0,0.4555,0.4555,0.4592,0.4684,0.4633,0.4731,0.4971,0.4981,0.5108,0.5376,0.5555,0.5374,0.4819,0.5844,0.5996,0.5385,0.552,0.5158,0.4221,0.2075,0.0648,0.0,0.0,0.0184,0.0423,0.0409,0.0635,0.0978,0.0,0.0,0.0,0.0,0.0,0.0,0.0,0.0,0.0,0.8804,0.8586,0.8374,0.8374,0.8038,0.7257,0.5295,0.0629,-0.4204,-0.6483,-1.2327,-1.8097,-2.0455,0.0,0.0,0.0,-2.3426,-2.3854,-2.2177,0.0,0.0,0.0,0.0,0.0,0.0,0.0,0.0,0.0,0.0,0.0,0.0,0.0,0.0,0.0,0.0,0.0,0.0,2.5232,2.461,2.3884,2.3884,2.3285,2.1844,2.2865,2.4425,2.659,2.8351,2.9465,3.0055,3.1107,3.141,3.1096,3.1739,3.1212,2.9917,2.8838,2.8333,2.7985,2.641,2.4349,2.1814,1.8277,1.4644,1.0972,0.0,0.0,0.0,0.0,0.0,0.0,0.4519,0.4529,0.4539,0.4539,0.4539,0.4539,0.0,0.0,0.0,0.467,0.468,0.4684,0.467,0.4594,0.4599,0.4779,0.4819,0.5021,0.549,0.5428,0.4657,0.3249,0.4998,0.5521,0.4965,0.5175,0.4274,0.2455,0.2657,0.1662,0.0,0.0126,0.0481,0.1108,0.1188,0.1619,0.2286,0.301,0.0,0.0,0.0,0.0,0.0,0.0,0.0,0.0,0.8804,0.8321,0.7777,0.7723,0.7079,0.5563,0.1744,-0.0787,-0.4067,-1.1648,-1.6416,0.0,-2.5242,-2.5517,-2.5258,-2.6946,0.0,-2.4984,0.0,0.0,0.0,0.0,0.0,0.0,0.0,0.0,0.0,0.0,0.0,0.0,0.0,0.0,0.0,0.0,0.0,0.0,0.0,2.5934,2.5469,2.501,2.4774,2.4165,2.3255,2.3909,2.5672,2.8505,3.04,3.257,3.4898,3.4153,3.4049,3.4464,3.4194,3.3589,3.2711,3.0924,3.0653,3.0842,2.6671,2.3828,2.1606,1.8434,1.4792,1.0997,0.0,0.0,0.0,0.0,0.0,0.0,0.457,0.4565,0.4643,0.4643,0.4643,0.4643,0.4643,0.467,0.0,0.4577,0.4623,0.464,0.4573,0.4536,0.4599,0.4779,0.5078,0.5519,0.6116,0.5654,0.4987,0.4202,0.5549,0.5888,0.5306,0.4908,0.3252,0.0662,0.2046,0.1673,0.006,0.0814,0.1138,0.1129,0.1736,0.2063,0.2286,0.301,0.3287,0.0,0.0,0.0,0.0,0.0,0.0,0.0,0.8804,0.8699,0.8427,0.7883,0.6415,0.4502,0.1899,-0.4111,0.0,-1.355,-2.0042,-2.6348,-2.9047,-2.9803,-2.8864,-2.5237,0.0,0.0,0.0,0.0,0.0,0.0,0.0,0.0,0.0,0.0,0.0,0.0,0.0,0.0,0.0,0.0,0.0,0.0,0.0,0.0,2.6215,2.5873,2.5218,2.4416,2.519,2.5176,2.4275,2.6161,2.8286,0.0,3.2524,3.457,3.6637,3.6433,3.6131,3.576,3.5007,3.4334,3.3773,3.3547,3.2789,3.1776,3.0572,2.7995,2.4545,2.0845,1.7707,1.4546,0.0,0.0,0.0,0.0,0.0,0.0,0.0,0.0,0.4823,0.4609,0.4646,0.4663,0.4589,0.4646,0.0,0.0,0.4646,0.4657,0.4575,0.456,0.4599,0.4844,0.5212,0.555,0.5879,0.3888,0.34,0.4527,0.4405,0.4152,0.3843,0.391,0.2497,0.0059,0.1578,0.1635,0.0586,0.1211,0.1757,0.2174,0.2565,0.2927,0.3219,0.4033,0.429,0.4405,0.5621,0.0,0.0,0.0,0.0,0.0,0.0,0.0,0.761,0.6848,0.5403,0.3147,-0.0617,0.0,0.0,-1.9002,0.0,-2.8005,-3.0227,-3.127,-3.1278,-2.9369,0.0,0.0,0.0,0.0,0.0,0.0,0.0,0.0,0.0,0.0,0.0,0.0,0.0,0.0,0.0,0.0,0.0,0.0,0.0,2.5511,2.7369,2.6935,2.6512,2.6188,2.7074,2.706,2.6064,2.8207,3.0279,3.2077,3.415,3.6599,3.9212,3.8756,3.8142,3.7434,3.6477,3.577,3.5257,3.445,3.3565,3.2549,3.1598,2.9194,2.6014,2.3433,2.0383,1.6684,0.0,0.0,0.0,0.0,0.0,0.0,0.0,0.0,0.0,0.4551,0.4613,0.4643,0.457,0.4616,0.468,0.0,0.0,0.0,0.4653,0.4555,0.4673,0.4991,0.5137,0.5027,0.4469,0.1518,0.1419,0.4244,0.2961,0.2345,0.2391,0.2649,0.1873,0.0294,0.1147,0.1321,0.1106,0.1506,0.232,0.3232,0.3398,0.372,0.4271,0.5075,0.5303,0.5354,0.6297,0.7083,0.7553,0.6908,0.0,0.0,0.0,0.0,0.648,0.5706,0.4359,0.0,-0.3223,-0.8336,-1.4493,-2.4371,-2.7249,0.0,-3.0271,-3.172,-3.309,0.0,0.0,0.0,0.0,0.0,0.0,0.0,0.0,0.0,0.0,0.0,0.0,0.0,0.0,0.0,0.0,0.0,0.0,0.0,0.0,2.6039,2.8258,2.8155,2.8051,2.8187,2.9052,2.8979,2.7904,3.0017,3.1869,3.3388,3.6006,3.873,4.1501,4.0789,3.9876,3.8903,3.797,3.7208,3.6482,3.4987,3.413,3.359,3.1752,2.96,2.7393,2.5698,2.2618,1.8531,0.0,0.0,0.0,0.0,0.0,0.0,0.0,0.0,0.0,0.0,0.4677,0.4684,0.4663,0.4677,0.4636,0.456,0.4673,0.4694,0.4556,0.0,0.0,0.5323,0.4847,0.342,0.0801,0.024,0.1062,0.3173,0.3013,0.2959,0.3121,0.1269,0.0762,0.1288,0.0531,0.0523,0.1011,0.2075,0.2693,0.3006,0.3669,0.3966,0.4103,0.4719,0.496,0.5093,0.6335,0.7034,0.7343,0.7241,0.7489,0.0,0.0,0.0,0.0,0.5706,0.3849,0.0,0.0,0.0,-1.837,0.0,-2.7719,-2.9218,0.0,0.0,0.0,0.0,0.0,0.0,0.0,0.0,0.0,0.0,0.0,0.0,0.0,0.0,0.0,0.0,0.0,0.0,0.0,0.0,0.0,0.0,2.4541,2.5937,2.7093,2.8197,2.8456,2.7639,2.932,2.9885,2.9099,3.1279,3.3319,3.5214,3.9114,4.1361,4.2101,4.1855,4.0844,3.9226,3.8614,3.7649,3.6478,3.6301,3.5989,3.5427,3.3367,3.1988,3.0671,2.668,2.4281,2.1513,0.0,0.0,0.0,0.0,0.0,0.0,0.0,0.0,0.0,0.0,0.0,0.4657,0.4572,0.4562,0.4535,0.4522,0.458,0.4591,0.4522,0.4488,0.4629,0.4872,0.4657,0.3103,0.006,0.0579,0.154,0.3028,0.2223,0.2581,0.3956,0.2,0.1401,0.1878,0.1345,0.1489,0.2167,0.2615,0.3062,0.3565,0.387,0.329,0.2454,0.4668,0.4771,0.3946,0.6169,0.7067,0.7092,0.6421,0.6789,0.7292,0.577,0.0,0.0,0.0,0.3086,0.0,-0.6736,-1.3283,-1.9507,0.0,-2.7678,-2.9534,-3.101,0.0,0.0,0.0,0.0,0.0,0.0,0.0,0.0,0.0,0.0,0.0,0.0,0.0,0.0,0.0,0.0,0.0,0.0,0.0,0.0,0.0,2.5257,2.6942,2.8308,2.9654,3.0211,2.9825,3.1256,3.1849,3.1432,3.382,3.6232,3.8561,4.1665,4.2734,4.1995,4.2316,4.1319,3.9294,3.8286,3.7035,3.564,3.4794,3.4936,3.5497,3.3862,3.3152,3.2766,3.0411,2.7092,2.2316,0.0,0.0,0.0,0.0,0.0,0.0,0.0,0.0,0.0,0.0,0.0,0.5148,0.5022,0.0,0.0,0.0,0.4728,0.4508,0.4519,0.4509,0.4515,0.4515,0.4507,0.3191,0.0457,0.1228,0.2032,0.2724,0.1721,0.2304,0.4406,0.3197,0.267,0.2783,0.2284,0.2462,0.3071,0.296,0.3296,0.3919,0.3271,0.1995,0.0832,0.3763,0.3791,0.2617,0.5677,0.679,0.6706,0.5522,0.5921,0.6571,0.475,0.49,0.0,0.0,0.0,-0.1587,0.0,0.0,-1.8769,-2.4016,-2.71,-2.9418,0.0,0.0,0.0,0.0,0.0,0.0,0.0,0.0,0.0,0.0,0.0,0.0,0.0,0.0,0.0,0.0,0.0,0.0,0.0,0.0,0.0,0.0,2.6757,2.8426,2.9886,3.131,3.1998,3.182,3.3177,3.3925,3.3947,3.6585,3.8959,4.0989,4.299,4.3138,4.1682,4.1905,4.0842,3.8706,3.7595,3.6324,3.5066,3.356,3.403,3.554,3.4036,3.3889,3.4209,3.2488,2.7682,2.0563,0.0,0.0,0.0,0.0,0.0,0.0,0.0,0.0,0.0,0.0,0.0,0.6495,0.648,0.648,0.648,0.648,0.5245,0.4484,0.4515,0.4525,0.4473,0.4473,0.448,0.0,0.1489,0.1911,0.2144,0.2074,0.2084,0.2858,0.421,0.4334,0.4398,0.4294,0.2839,0.2516,0.3071,0.296,0.3245,0.363,0.1319,0.0104,-0.0208,0.122,0.1416,0.1395,0.4708,0.6047,0.6111,0.5053,0.4961,0.5059,0.4278,0.4079,0.4129,0.0,0.0,0.0,0.0,-1.1971,0.0,-2.2163,-2.58,0.0,0.0,0.0,0.0,0.0,0.0,0.0,0.0,0.0,0.0,0.0,0.0,0.0,0.0,0.0,0.0,0.0,0.0,0.0,0.0,0.0,0.0,0.0,2.9363,3.0348,3.123,3.276,3.3217,3.2466,3.4538,3.5871,3.6338,3.9115,4.0749,4.1211,4.2411,4.2346,4.1181,4.0298,3.8835,3.7116,3.6428,3.5838,3.5292,3.3945,3.459,3.6223,3.4228,3.4307,3.5085,3.069,2.3986,1.5154,0.0,0.0,0.0,0.0,0.0,0.0,0.0,0.0,0.0,0.0,0.0,0.0,0.0,0.6588,0.647,0.6185,0.5167,0.4511,0.4484,0.4484,0.4494,0.4515,0.4519,0.3877,0.2514,0.2672,0.2729,0.2708,0.2598,0.3115,0.4194,0.4199,0.428,0.4453,0.3676,0.3473,0.3676,0.3456,0.0,0.3452,0.0852,-0.1062,-0.2098,0.0225,0.0,0.0,0.0,0.0,0.0,0.1804,0.2797,0.4329,0.3965,0.3914,0.3656,0.1823,-0.057,-0.3744,0.0,0.0,0.0,-2.0257,-2.4554,-2.8245,0.0,0.0,0.0,0.0,0.0,0.0,0.0,0.0,0.0,0.0,0.0,0.0,0.0,0.0,0.0,0.0,0.0,0.0,0.0,0.0,0.0,0.0,0.0,3.2343,3.2555,3.4567,3.5486,3.5058,3.6968,3.8707,4.0184,4.2323,4.2996,4.2195,4.527,4.4767,4.1139,4.2482,4.128,3.8019,3.6789,3.555,3.4499,3.5103,3.5975,3.6898,3.5736,3.3894,3.1407,2.653,1.7483,0.593,0.0,0.0,0.0,0.0,0.0,0.0,0.0,0.0,0.7074,0.7289,0.0,0.0,0.0,0.0,0.7235,0.6907,0.6328,0.5632,0.4988,0.4495,0.4348,0.4761,0.4551,0.4002,0.3175,0.3108,0.3084,0.3021,0.2843,0.3228,0.4043,0.4043,0.4124,0.4304,0.4053,0.4026,0.0,0.0,0.0,0.3432,0.0,0.0,-0.3485,0.0,0.0,0.0,0.0,0.0,0.0,0.0,0.0,0.0,0.1628,0.2344,0.2517,-0.0044,-0.2075,-0.4344,-0.8498,0.0,0.0,0.0,0.0,0.0,0.0,0.0,0.0,0.0,0.0,0.0,0.0,0.0,0.0,0.0,0.0,0.0,0.0,0.0,0.0,0.0,0.0,0.0,0.0,0.0,0.0,0.0,0.0,0.0,3.5196,3.6944,3.8047,3.8315,3.975,4.1241,4.2801,4.3931,4.4116,4.3385,4.5975,4.5255,4.1626,4.2727,4.1701,3.8904,3.697,3.5446,3.4386,3.5412,3.5963,3.5884,3.3319,2.9225,2.396,1.7272,0.645,-0.615,0.0,0.0,0.0,0.0,0.0,0.0,0.0,0.0,0.7996,0.8699,0.0,0.0,0.0,0.0,0.0,0.8784,0.8784,0.797,0.5925,0.444,0.4137,0.5215,0.4606,0.3977,0.3439,0.3225,0.306,0.2945,0.2939,0.3219,0.3795,0.3944,0.4016,0.4012,0.3866,0.4039,0.4484,0.0,0.4009,0.3545,0.0,-0.3884,-0.4282,0.0,0.0,0.0,-0.1174,-0.0299,0.0,0.0,0.0,0.0,0.0,-0.0701,0.062,-0.1464,-0.3066,-0.4831,0.0,0.0,0.0,0.0,0.0,0.0,0.0,0.0,0.0,0.0,0.0,0.0,0.0,0.0,0.0,0.0,0.0,0.0,0.0,0.0,0.0,0.0,0.0,0.0,0.0,0.0,0.0,0.0,3.7311,3.8196,3.9192,3.9889,4.0767,4.1923,4.2743,4.3393,4.3823,4.3886,4.4137,4.4595,4.4218,4.3585,4.2679,4.0816,3.9912,3.9596,3.7046,3.5416,3.4605,3.4582,3.4255,3.3137,2.6581,2.006,1.3087,0.3059,-0.8921,-2.0727,0.0,0.0,0.0,0.0,0.0,0.7926,0.8419,0.8472,0.8586,0.0,0.0,0.0,0.8804,0.8804,0.8811,0.8778,0.882,0.8018,0.6186,0.5312,0.4695,0.4379,0.4237,0.4141,0.398,0.384,0.3748,0.371,0.3509,0.3553,0.3792,0.3836,0.3914,0.4019,0.3975,0.4026,0.4124,0.3826,0.0,0.0,-0.1857,-0.4077,0.0,0.0,0.0,0.0,0.0,-0.6581,0.0,0.0,-0.6885,-0.3875,0.0,0.0,-0.1219,-0.2816,-0.4557,-0.6343,-0.8298,0.0,0.0,0.0,0.0,0.0,0.0,0.0,0.0,0.0,0.0,0.0,0.0,0.0,0.0,0.0,0.0,0.0,0.0,0.0,0.0,0.0,0.0,0.0,0.0,0.0,0.0,0.0,3.8768,3.9821,4.0199,4.0981,4.2112,4.3578,4.4283,4.4623,4.4671,4.5816,4.5808,4.4698,4.6458,4.6011,4.3643,4.4093,4.2922,4.0536,3.966,3.3132,2.3619,2.9228,3.115,2.9669,1.9732,1.2318,0.5724,-0.6743,-1.8609,-2.9093,0.0,0.0,1.0463,1.0154,0.8837,0.8023,0.8711,0.8821,0.881,0.0,0.0,0.0,0.8849,0.879,0.881,0.8804,0.8364,0.7679,0.6862,0.5673,0.4944,0.4642,0.4253,0.4066,0.419,0.4036,0.3958,0.4019,0.3724,0.3622,0.3704,0.3704,0.3751,0.3832,0.3721,0.3691,0.3678,0.0,0.0,0.0,-0.1916,0.0,0.0,-0.6944,-0.9146,0.0,0.0,0.0,-0.9704,-1.1801,-0.9886,0.0,0.0,0.0,0.0,0.0,-0.689,-0.8652,-1.0035,-1.1387,-1.2858,0.0,0.0,0.0,0.0,0.0,0.0,0.0,0.0,0.0,0.0,0.0,0.0,0.0,0.0,0.0,0.0,0.0,0.0,0.0,0.0,0.0,0.0,0.0,0.0,3.7605,4.008,4.1535,4.1847,4.2148,4.316,4.4993,4.4805,4.4878,4.537,4.6166,4.6106,4.5206,4.606,4.5845,4.4692,4.4006,4.2471,4.0042,3.5157,2.6837,1.6615,1.5714,1.5886,1.5758,0.6218,-0.1412,-0.8501,-2.0278,-3.0108,-3.7908,0.0,0.0,1.0431,1.0559,0.9726,0.9002,0.899,0.8978,0.8922,0.0,1.0074,1.0574,0.9393,0.8982,0.8795,0.8798,0.7764,0.7223,0.7475,0.5831,0.5015,0.5464,0.4524,0.4111,0.4344,0.4122,0.3999,0.4091,0.3806,0.3711,0.3711,0.3711,0.37,0.3679,0.3493,0.3337,0.3276,0.3155,0.0,0.2936,-0.1843,-0.405,0.0,0.0,-0.8672,0.0,-0.9651,-0.9977,-1.0722,-1.4126,-1.3233,0.0,0.0,0.0,0.0,0.0,-0.9882,-1.1575,-1.2438,-1.3184,-1.41,0.0,0.0,0.0,0.0,0.0,0.0,0.0,0.0,0.0,0.0,0.0,0.0,0.0,0.0,0.0,0.0,0.0,0.0,0.0,0.0,0.0,0.0,3.0469,3.3508,3.7068,4.0886,4.3101,4.3163,4.3098,4.3731,4.5176,4.4106,4.409,4.5289,4.5043,4.5201,4.5779,4.4422,4.4169,4.478,4.2005,3.9618,3.7076,2.6656,1.7925,1.0149,-0.2002,-0.4972,-0.2744,-1.0539,-1.7776,-2.4988,-3.4472,-4.1194,-4.5546,0.8822,0.8997,0.9464,1.0422,1.0422,1.0271,1.027,1.0248,0.9928,0.8946,1.095,1.2395,1.2155,1.0125,0.8795,0.8798,0.8154,0.7423,0.6763,0.6068,0.5571,0.5368,0.5229,0.5171,0.5254,0.5176,0.4967,0.4542,0.4369,0.4264,0.4264,0.4264,0.4191,0.4098,0.4061,0.3681,0.3132,0.0,0.0,0.0492,-0.257,0.0,-0.4686,-0.9417,-1.1585,-1.215,-1.2863,-1.3499,-1.3878,0.0,-1.4022,-1.3617,0.0,0.0,0.0,0.0,0.0,0.0,0.0,0.0,0.0,0.0,0.0,0.0,0.0,0.0,0.0,0.0,0.0,0.0,0.0,0.0,0.0,0.0,0.0,0.0,0.0,0.0,0.0,0.0,0.0,0.0,0.0,2.5879,3.0227,3.1058,3.9641,4.3584,4.0678,4.2793,4.2748,3.9764,4.0524,4.1136,4.1471,4.1776,4.2996,4.5103,4.5372,4.3508,3.9868,4.1479,3.6352,2.5987,2.1597,0.9493,-0.7517,-1.3176,-1.2598,-0.9338,-2.1273,-2.6987,-2.9652,-3.9166,-4.3857,-4.5429,0.881,0.8782,0.9103,0.9999,1.0407,1.0894,1.1638,1.1113,1.0679,1.0833,1.2062,1.2883,1.2905,1.1042,0.951,0.8857,0.8346,0.7827,0.723,0.6618,0.6083,0.5744,0.5502,0.544,0.5504,0.544,0.5305,0.5088,0.4928,0.487,0.4865,0.4725,0.4617,0.4521,0.4101,0.368,0.3334,0.0,0.1847,-0.0189,-0.2871,0.0,-0.6634,-1.0899,-1.2905,-1.355,-1.4057,-1.4776,-1.5598,-1.6083,-1.5578,0.0,0.0,-1.4755,-1.4635,0.0,-1.5374,-1.6378,0.0,0.0,0.0,-1.3997,0.0,0.0,0.0,0.0,0.0,0.0,0.0,0.0,0.0,0.0,0.0,0.0,0.0,0.0,0.0,0.0,0.0,0.0,0.0,0.0,0.0,2.0854,2.7654,3.6279,4.2126,4.2024,3.4547,3.4054,3.4559,3.5803,3.3271,3.355,3.6982,3.6262,3.7552,4.0816,3.9914,3.612,2.9962,2.953,2.2876,1.1267,0.3922,-0.6381,-1.8418,-2.396,-2.6041,-2.6337,-3.2233,-3.4715,-3.5776,-4.2296,-4.5092,-4.5663,0.8804,0.8804,0.8978,0.9569,1.0172,1.1105,1.2445,1.1889,1.1626,1.2606,1.2841,1.2787,1.2316,1.0814,0.9207,0.7741,0.6833,0.6478,0.691,0.6176,0.596,0.644,0.5938,0.5717,0.5865,0.5727,0.5613,0.5626,0.5531,0.5454,0.537,0.5148,0.4966,0.4751,0.3534,0.0,0.0,0.0,0.0,-0.0848,0.0,-0.5728,-0.8317,-1.1449,-1.3092,-1.3822,-1.4466,-1.5338,-1.6549,-1.8228,0.0,-1.5891,-1.8576,-1.8288,0.0,0.0,0.0,0.0,0.0,0.0,0.0,0.0,0.0,-1.4967,0.0,0.0,0.0,0.0,0.0,0.0,0.0,0.0,0.0,0.0,0.0,0.0,0.0,0.0,0.0,0.0,0.0,0.0,0.0,1.5572,2.267,3.3303,3.1037,2.5601,1.7414,1.7098,2.0794,2.8682,2.3654,2.3651,2.9738,2.8041,2.8669,3.1679,2.9844,2.4592,1.6467,1.4099,0.6804,-0.449,-1.4686,-2.1825,-2.6801,-3.3575,-3.8541,-4.1733,-4.045,-4.0377,-4.1324,-4.4355,-4.5592,-4.5796,0.8804,0.8804,0.8911,0.9363,1.0151,1.0846,1.1409,1.2776,1.3342,1.231,1.2679,1.2238,1.0285,0.7749,0.5408,0.0,0.0,0.0,0.3272,0.3007,0.4086,0.7199,0.6989,0.6946,0.7276,0.6952,0.6568,0.6139,0.6105,0.5935,0.567,0.5607,0.5203,0.434,0.1884,0.0,0.0,0.0,-0.1657,0.0,-0.4366,-0.5663,0.0,-1.0402,-1.1924,-1.2664,-1.4782,-1.6149,-1.7118,0.0,-1.8611,-1.9056,0.0,-1.9219,0.0,0.0,0.0,0.0,0.0,0.0,0.0,0.0,-1.6461,0.0,0.0,0.0,0.0,0.0,0.0,0.0,0.0,0.0,0.0,0.0,0.0,0.0,0.0,0.0,0.0,0.0,0.0,0.0,0.0,0.0,1.0696,-0.249,-1.9246,-2.7616,-2.476,-1.2538,-0.0148,1.1881,1.1654,1.2852,1.6005,1.5204,1.4399,1.3634,1.4435,0.9145,-0.1273,0.1152,-0.5563,-1.9307,-2.2948,-2.8594,-3.5634,-4.0674,-4.2626,-4.2313,-4.1326,-4.2086,-4.3899,-4.5182,-4.5495,-4.5324,0.8804,0.8804,0.8898,0.9254,0.9577,1.0228,1.1439,1.2697,1.3067,1.2011,1.1099,1.0482,0.0,0.0,0.0,0.0,0.0,0.1643,0.0,0.0,0.3893,0.7563,0.7442,0.7335,0.7506,0.7174,0.6894,0.6647,0.6647,0.6502,0.623,0.6066,0.5809,0.5287,0.149,0.0,0.0902,0.0,0.0,0.0,0.0,0.0,0.0,-1.151,-1.3404,-1.4488,-1.5912,-1.7,-1.7958,0.0,-1.9467,0.0,0.0,0.0,0.0,0.0,0.0,0.0,0.0,0.0,0.0,0.0,0.0,0.0,-1.5278,0.0,-1.5502,0.0,0.0,0.0,0.0,0.0,0.0,0.0,0.0,0.0,0.0,0.0,0.0,0.0,0.0,0.0,0.0,0.0,0.0,0.0,0.0,-2.7298,-2.5843,-1.8834,-1.3499,-1.0537,-0.5921,-0.1995,0.1164,0.0077,-0.0423,-0.0348,-0.0113,-0.5456,-1.5531,-1.4884,-2.1144,-3.2665,-3.5616,-3.8607,-4.1494,-4.245,-4.3101,-4.3343,-4.2395,-4.2812,-4.3987,-4.4661,-4.5183,-4.5644,0.8804,0.8804,0.8871,0.903,0.9384,1.0139,1.1664,1.21,1.2,1.1363,0.0,0.0,1.0607,0.861,0.0,0.0,0.0134,-0.0132,0.0,0.0,0.2626,0.6422,0.7234,0.0,0.6055,0.69,0.7235,0.6979,0.7147,0.7038,0.658,0.633,0.6019,0.5524,0.1453,-0.0561,-0.091,0.0,0.0,-0.6716,-0.6103,-0.7719,-1.0739,-1.3058,-1.4913,-1.6293,-1.7199,-1.824,-1.94,-2.0347,-2.0641,0.0,-2.3197,0.0,0.0,0.0,0.0,0.0,-1.9892,0.0,0.0,0.0,0.0,0.0,0.0,0.0,0.0,0.0,0.0,0.0,0.0,0.0,0.0,0.0,0.0,0.0,0.0,0.0,0.0,0.0,0.0,0.0,0.0,0.0,0.0,0.0,0.0,0.0,-2.4669,-2.3063,-2.3028,-2.5166,-1.9964,-1.5671,-1.26,-1.4234,-1.5138,-1.53,-1.5594,-2.0341,-2.8933,-2.9797,-3.4435,-4.1915,-4.4357,-4.5267,-4.4893,-4.3731,-4.379,-4.453,-4.3592,-4.3684,-4.4392,-4.4694,-4.5248,-4.5893,0.8804,0.8804,0.8811,0.8818,0.988,1.099,1.1701,1.0948,0.0,0.0,0.0,0.0,0.0,0.0,0.0,0.0,0.0,-0.8205,-0.1258,0.0,-0.0747,0.0,0.0,0.6177,0.0,0.6229,0.7838,0.6979,0.7572,0.7414,0.658,0.633,0.5578,0.4347,0.1436,-0.0602,-0.2157,-0.4944,-0.7544,-0.9833,-1.0409,-1.2611,-1.537,0.0,-1.5643,-1.7378,-1.8545,0.0,0.0,-2.0701,-2.2617,0.0,0.0,0.0,0.0,0.0,0.0,0.0,0.0,0.0,0.0,-2.088,0.0,0.0,0.0,0.0,-1.342,0.0,0.0,0.0,0.0,0.0,0.0,0.0,0.0,0.0,0.0,0.0,0.0,0.0,0.0,0.0,0.0,0.0,0.0,0.0,0.0,0.0,-3.2415,-3.1226,-2.906,-2.6177,-2.6848,-2.6366,-2.4582,-2.6622,-2.9533,-3.3107,-3.2817,-3.6018,-4.2085,-4.212,-4.3287,-4.5273,-4.576,-4.5792,-4.5493,-4.5765,-4.5899,-4.5844,-4.4905,-4.5143,-4.6027,-4.6036,-4.5937,-4.5815,0.9562,0.9814,0.9961,0.9562,1.0218,1.0997,1.1498,1.1584,0.0,0.0,0.0,0.0,0.0,0.0893,-0.1541,0.0,0.0,-0.7152,-0.2125,-0.2457,0.0,0.0,0.0,0.6248,0.0,0.6373,0.8236,0.7315,0.7968,0.7699,0.658,0.633,0.5806,0.495,0.0,-0.1884,0.0,0.0,0.0,0.0,0.0,-1.4215,-1.7674,0.0,0.0,-1.8924,-2.0006,-2.1749,0.0,-2.3422,-2.4818,-2.6842,-2.8107,-2.7812,-2.7028,-2.7299,-2.6133,0.0,0.0,0.0,-2.1424,-2.0372,0.0,0.0,0.0,0.0,0.0,0.0,0.0,0.0,0.0,0.0,0.0,0.0,0.0,0.0,0.0,0.0,0.0,0.0,0.0,0.0,0.0,0.0,0.0,0.0,0.0,0.0,0.0,-4.0499,-4.1553,-3.5934,-3.7207,-3.7531,-3.6621,-3.7297,-3.9199,-4.2303,-4.1659,-4.2562,-4.473,-4.4388,-4.4527,-4.5086,-4.5402,-4.5443,-4.534,-4.5811,-4.5968,-4.5919,-4.5726,-4.584,-4.6017,-4.5406,-4.5469,-4.5869,1.0285,1.0712,1.0965,1.0261,1.0672,1.1249,0.0,0.0,0.0,0.0,0.504,0.0,-0.1338,0.0,-0.3602,0.0,-0.8249,-0.7181,-0.1498,-0.3383,0.0,0.1165,0.3506,0.0,0.0,0.0,0.6957,0.6224,0.7948,0.8253,0.7257,0.6539,0.5856,0.5179,0.0,-0.1617,-0.6379,0.0,-1.0026,0.0,0.0,-1.6505,0.0,0.0,-1.889,-2.0172,0.0,-2.3452,-2.5454,-2.6382,-2.7651,-2.94,-3.2563,-3.1485,-2.9239,-3.0417,-2.9156,-2.7016,-2.56,-2.3844,0.0,-2.3244,-1.9785,0.0,-1.4158,0.0,0.0,0.0,0.0,0.0,0.0,0.0,0.0,0.0,0.0,0.0,0.0,0.0,0.0,0.0,0.0,0.0,0.0,0.0,0.0,0.0,0.0,0.0,0.0,0.0,-4.6863,-4.2336,-4.3462,-4.4115,-4.4105,-4.4476,-4.5382,-4.6822,-4.6348,-4.6074,-4.592,-4.557,-4.5331,-4.5227,-4.5433,-4.5428,-4.5341,-4.5808,-4.5929,-4.5858,-4.6084,-4.6111,-4.5968,-4.5366,-4.5454,-4.5881,1.093,1.1434,1.1692,1.104,1.1274,0.0,0.0,0.0,0.9962,0.0,0.4971,0.3813,-0.3086,-0.4522,-0.4913,-0.4658,-0.9464,0.0,0.0,-0.4588,0.0,0.0,-0.1863,-0.3921,-0.8066,0.0,0.0,0.0,0.0,0.9055,0.8458,0.6973,0.5764,0.4893,0.4537,0.0,-0.743,-0.7453,-1.1949,-1.9106,-1.9066,-1.9468,-2.0159,-2.0762,-2.1039,-2.1368,-2.3211,-2.5299,-2.7463,-2.9288,-3.0807,-3.2191,-3.3557,-3.3425,-3.25,-3.0896,-3.0973,-3.0782,-2.7021,-2.6302,-2.7049,-2.8891,0.0,0.0,0.0,0.0,-1.4312,0.0,0.0,0.0,0.0,0.0,0.0,0.0,0.0,0.0,0.0,0.0,0.0,0.0,0.0,0.0,0.0,0.0,0.0,0.0,0.0,0.0,0.0,0.0,-4.506,-4.5048,-4.5685,-4.6358,-4.7086,-4.8269,-4.835,-4.7319,-4.7519,-4.7166,-4.6318,-4.623,-4.6095,-4.5928,-4.5949,-4.584,-4.5661,-4.591,-4.5925,-4.5815,-4.6075,-4.6083,-4.5968,-4.5982,-4.592,-4.582,1.1692,1.2378,1.3017,0.0,1.2645,1.2935,0.0,0.0,0.0,0.0,0.2299,-0.0858,-0.8885,-1.0286,-1.074,-1.0829,-1.2252,0.0,0.0,0.0,0.0,-0.6357,-0.3526,-0.3977,-0.8325,0.0482,0.0,0.3963,0.0,0.0,0.8465,0.7539,0.6369,0.4997,0.0,0.0,-0.4785,-0.6004,-1.1386,-1.9123,-1.9425,-2.0972,0.0,0.0,-2.302,-2.4408,-2.531,-2.692,-2.8754,-2.9867,-3.1407,-3.2726,-3.2532,-3.278,-3.2804,-3.1061,-3.1258,-3.1396,-2.8042,-2.8966,-3.0011,-2.6695,-2.6806,-2.6944,0.0,0.0,0.0,0.0,0.0,0.0,0.0,0.0,0.0,0.0,0.0,0.0,0.0,0.0,0.0,0.0,0.0,0.0,0.0,0.0,0.0,0.0,0.0,0.0,0.0,0.0,0.0,-4.7036,-4.8479,-4.8906,-4.8417,-4.9316,-4.9528,-4.9059,-4.9106,-4.8755,-4.8041,-4.7787,-4.7695,-4.7686,-4.7002,-4.7064,-4.7582,-4.6567,-4.65,-4.7038,-4.7053,-4.698,-4.6775,-4.6102,-4.5899,-4.5922,1.2645,0.0,0.0,1.4062,0.0,0.0,1.2035,0.0,0.0,0.3253,0.1475,0.0,-0.8191,-1.0934,-1.2175,-1.1975,-1.2268,0.0,-0.6107,0.0,0.0,-0.7104,-0.6639,-0.7617,-1.0134,-0.3639,0.0,0.2441,0.0,0.0,0.9072,0.7924,0.6592,0.0,0.0,0.0959,0.0,-0.9501,-1.4487,-1.9088,-2.1363,0.0,0.0,-2.4065,-2.5052,-2.6761,-2.7273,-2.8248,-2.9465,-3.0962,-3.2087,-3.2888,-3.2801,-3.298,-3.306,-3.2242,-3.1905,-3.1313,-2.9044,-2.9725,-3.0193,-2.6823,-2.7859,-2.9359,-2.7909,-2.2735,-1.897,0.0,0.0,0.0,0.0,0.0,0.0,0.0,0.0,0.0,0.0,0.0,0.0,0.0,0.0,0.0,0.0,0.0,0.0,0.0,0.0,0.0,0.0,0.0,0.0,-4.523,-4.6119,-4.7782,-5.0352,-4.8132,-4.814,-5.0356,-5.0352,-4.9808,-4.8788,-4.8533,-4.8475,-4.8514,-4.7527,-4.7423,-4.7899,-4.7064,-4.6717,-4.6715,-4.6674,-4.6655,-4.6604,-4.6122,-4.5925,-4.5905,1.374,0.0,0.0,0.0,0.0,0.0,0.0,1.1252,0.0,0.2595,0.0,-0.0985,-0.5359,-0.9206,-1.1292,-1.0703,0.0,-0.9457,-0.5144,-0.8781,-0.9716,-0.6599,-1.0014,-1.2268,-1.2565,-0.9283,0.0,0.0,0.0,0.0,0.9911,0.8317,0.0,0.0,0.0,0.0,0.0,-1.4611,-1.8742,-1.9456,-2.3914,-2.5432,-2.5169,-2.5906,-2.7117,-2.8511,-2.9087,-2.9458,-3.0045,-3.2026,-3.2749,-3.2857,-3.3471,-3.3346,-3.302,-3.3215,-3.2191,-3.0633,-2.9404,-2.9049,-2.8737,-2.7655,-2.7823,-2.8302,-2.8575,-2.5331,-2.2993,-2.554,-2.1346,-1.8359,0.0,0.0,0.0,0.0,0.0,0.0,0.0,0.0,0.0,0.0,0.0,0.0,0.0,0.0,0.0,0.0,0.0,0.0,0.0,0.0,0.0,0.0,-4.3098,0.0,-5.0766,0.0,-4.6177,-4.9942,-5.0872,-5.0552,-4.9218,-4.9081,-4.9042,-4.9062,-4.8002,-4.762,-4.7737,-4.7622,-4.6996,-4.6055,-4.5829,-4.5912,-4.6154,-4.6124,-4.5983,-4.5835,0.0,0.0,0.0,0.0,0.0,0.8689,0.5584,0.4766,0.2762,-0.2175,-0.28,-0.4771,-1.0112,-1.0998,-1.1389,-1.1688,-1.1585,0.0,0.0,0.0,0.0,-1.0905,-1.1849,-1.2737,-1.3619,-1.0022,-0.589,0.0,0.0,0.6046,1.0018,0.8963,0.0,0.0,0.0,0.0,-0.9123,-1.421,0.0,-2.1807,-2.4784,-2.6467,-2.7243,-2.7941,-2.8862,-2.9944,-3.047,-3.0983,-3.1453,-3.2114,-3.2834,-3.3366,-3.2726,-3.2413,-3.2139,-3.0911,-3.0001,-2.903,-2.7385,-2.7505,-2.7603,-2.5704,-2.5668,-2.6245,-2.6749,-2.476,-2.2935,-2.3525,-2.0541,-1.8295,-1.9764,0.0,0.0,0.0,0.0,0.0,0.0,0.0,0.0,0.0,0.0,0.0,0.0,0.0,0.0,0.0,0.0,0.0,0.0,0.0,0.0,0.0,0.0,0.0,0.0,0.0,-4.8431,-4.3266,-4.902,-5.146,-5.0879,-5.0739,-5.0717,-5.0738,-4.982,-4.9479,-4.9493,-4.8828,-4.839,-4.8024,-4.6531,-4.6399,-4.6998,-4.6348,-4.6027,-4.5964,0.0,0.0,0.0,0.0,0.0,0.0,0.0,-0.0951,0.0,-0.2845,-0.3157,-0.4438,-0.7302,-0.9413,-1.0708,-1.11,-1.0801,-1.0413,-1.0019,-1.0207,-1.0797,-1.178,-1.2165,0.0,-1.4459,-1.2759,-0.8513,-0.1764,0.0,0.3696,0.9952,0.8773,0.7169,0.5,0.0,-0.512,0.0,0.0,0.0,-2.2697,-2.6229,-2.7995,-2.8565,-2.9502,-3.0337,-3.1031,-3.1172,-3.1849,-3.2625,-3.2834,-3.2942,-3.2996,-3.2996,-3.2276,-3.1218,-2.982,-2.8843,-2.7684,-2.532,-2.5621,-2.6174,-2.4406,-2.4754,-2.5498,-2.5371,-2.4014,-2.2811,-2.2905,-2.0783,-1.9353,-2.0836,-2.1971,0.0,0.0,0.0,0.0,0.0,0.0,0.0,0.0,0.0,0.0,0.0,0.0,0.0,0.0,0.0,0.0,0.0,0.0,0.0,0.0,0.0,0.0,0.0,0.0,0.0,-4.7816,-5.0786,-5.1908,-5.1357,-5.125,-5.1227,-5.1186,-4.9828,-4.9491,-4.9854,-4.8541,-4.7979,-4.7831,-4.6996,-4.6688,-4.6697,-4.6755,-4.6426,-4.5956,0.0,1.7398,0.0,0.0,0.7202,0.0,0.0,-0.4211,-0.6153,-0.3581,-0.3559,-0.4137,-0.5078,-0.7753,-0.9719,-1.0314,-0.992,-0.9529,-0.9335,-0.9821,-1.0489,-1.1424,-1.22,-1.3216,-1.4653,-1.515,-1.1511,0.0,0.0,0.0,0.7941,0.7731,0.5891,0.0,0.0,0.0,0.0,0.0,-2.2392,-2.4325,-2.8035,-2.9528,-2.9672,-3.0761,-3.1396,-3.1835,-3.186,-3.2547,-3.3346,-3.3503,-3.3171,-3.2834,-3.3314,-3.2191,-3.0498,-2.9181,-2.7939,-2.644,-2.4034,-2.4361,-2.5123,-2.3811,-2.4469,-2.5266,-2.4435,-2.3458,-2.2798,-2.3044,-2.2533,-2.2506,-2.4088,-2.7578,0.0,0.0,0.0,0.0,0.0,0.0,0.0,0.0,0.0,0.0,0.0,0.0,0.0,0.0,0.0,0.0,0.0,0.0,0.0,0.0,0.0,-4.457,-4.8548,0.0,-4.7792,-5.1074,-5.1969,-5.2045,-5.1396,-5.133,-5.1299,-5.123,-4.9751,-4.9411,-4.9761,-4.8027,-4.7261,-4.7201,-4.7054,-4.663,-4.6166,-4.6814,-4.656,-4.5871,0.0,0.0,0.0,0.0,0.0,0.0,0.1943,-0.2293,-0.5796,-0.7683,-0.6842,-0.7009,-0.9579,-0.8657,-0.8425,-0.992,-0.9727,-0.9628,-0.9529,-1.0105,-1.0515,-1.0934,-1.2331,-1.3252,-1.3653,-1.5308,-1.3871,0.0,0.0,-0.23,0.0,0.539,0.3561,0.0,0.0,0.0,0.0,-2.255,-2.5742,-2.9026,-3.0241,-3.0685,-3.0725,-3.1384,-3.1883,-3.2321,-3.2977,-3.3335,-3.3503,-3.3658,-3.3694,-3.3626,-3.2926,-3.1711,-3.0227,-2.8583,-2.6793,-2.5263,-2.4481,-2.4657,-2.4912,-2.4245,-2.4957,-2.5416,-2.4002,-2.3341,-2.3083,-2.3451,-2.6735,-2.9636,-2.9838,-3.1139,-3.0238,0.0,0.0,0.0,0.0,0.0,0.0,0.0,0.0,0.0,0.0,0.0,0.0,0.0,0.0,0.0,0.0,0.0,0.0,-3.6358,0.0,-4.015,-3.3357,-4.6431,-4.9606,-4.2879,-4.9091,-5.1824,-5.139,-5.1327,-5.1291,-5.1284,-5.1003,-5.049,-4.9763,-4.801,-4.7298,-4.7214,-4.6356,-4.6022,-4.6007,-4.5958,-4.5893,-4.5783,0.0,0.0,0.0,0.0,0.0,0.0,0.0,-0.1632,-0.3549,-0.5018,-0.5636,-0.699,-0.9711,-0.9002,-0.9071,-1.058,-1.0181,-0.9723,-0.9331,-1.029,-1.1144,-1.1921,-1.3442,-1.485,-1.5977,-1.6929,-1.5479,0.0,0.0,0.0,0.0,0.4862,0.154,0.0,0.0,-1.7702,-2.1729,-2.4911,-2.7563,-2.9633,-3.0449,-3.1334,-3.2139,-3.2514,-3.3006,-3.3512,-3.3463,-3.3455,-3.3419,-3.314,-3.3087,-3.3018,-3.2321,-3.0586,-2.8727,-2.8186,-2.66,-2.491,-2.4304,-2.4834,-2.5209,-2.3893,-2.4074,-2.4412,-2.3758,-2.3055,-2.2684,-2.3444,-2.8221,-3.1777,-3.025,-3.069,-3.0516,0.0,0.0,0.0,0.0,0.0,0.0,0.0,0.0,0.0,0.0,0.0,0.0,0.0,0.0,0.0,0.0,0.0,0.0,-3.207,0.0,-4.4459,-3.7692,-4.7798,-5.1315,-4.8214,-5.0533,-5.1522,-5.1342,-5.1232,-5.0821,-5.0222,-5.0213,-4.9331,-4.7918,-4.7951,-4.7265,-4.6186,-4.6545,-4.6344,-4.5925,-4.6355,-4.6101,-4.549,0.8497,0.0,0.843,0.0,0.3792,0.2961,0.011,-0.1,-0.1778,-0.2664,-0.4019,-0.597,-0.8455,-0.8642,-0.9048,-1.0205,-1.0091,-0.992,-0.9817,-1.0976,-1.2141,-1.3095,-1.4827,0.0,-1.779,-1.8402,-1.7584,-1.5267,-0.9813,0.0,0.0,-0.0517,-0.4079,0.0,-1.7619,-2.1186,-2.3824,-2.6696,-2.8805,-3.016,-3.0842,-3.1983,-3.3289,-3.3383,-3.3772,-3.4201,-3.3848,-3.3575,-3.3319,-3.2788,-3.2266,-3.183,-3.1474,-2.9755,-2.7813,-2.7592,-2.6151,-2.4601,-2.4129,-2.4599,-2.4905,-2.3676,-2.3584,-2.3686,-2.3523,-2.3106,-2.3316,-2.5456,-2.9673,-3.2353,-3.0485,-3.0346,-3.0221,-2.9274,0.0,0.0,0.0,0.0,0.0,0.0,0.0,0.0,0.0,0.0,0.0,0.0,0.0,0.0,0.0,0.0,0.0,0.0,0.0,0.0,0.0,-4.8643,-5.2164,-5.2074,-5.1609,-5.1348,-5.1252,-5.0906,-5.0118,-4.9039,-4.9176,-4.8337,-4.6931,-4.7853,-4.7272,-4.5874,-4.6708,-4.653,-4.5805,-4.6383,-4.6082,-4.5381,0.6998,0.9107,0.9143,0.1421,0.233,0.3399,0.1191,-0.0109,-0.1092,-0.1744,-0.2837,-0.4444,-0.6482,-0.7093,-0.768,-0.8347,-0.9426,-1.0306,-1.1072,-1.249,-1.3626,0.0,0.0,-1.754,-1.7987,-1.9362,-2.0535,-2.1391,0.0,0.0,-0.993,-1.3018,-1.4782,-1.5534,-1.9847,-2.3685,-2.6996,-2.7919,-2.955,-3.1596,-3.1882,-3.2744,-3.3877,-3.3835,-3.3922,-3.4101,-3.425,-3.3901,-3.3339,-3.2687,-3.1414,-3.0127,-3.0334,-2.9408,-2.798,-2.6491,-2.5184,-2.4195,-2.4044,-2.3793,-2.3592,-2.3834,-2.3875,-2.3722,-2.3145,-2.3603,-2.5529,-3.0434,-3.1772,-3.196,-3.1559,-3.0777,-2.9466,-2.7227,0.0,0.0,0.0,0.0,0.0,0.0,-2.7101,-2.7595,-3.2256,0.0,0.0,0.0,0.0,0.0,0.0,0.0,0.0,-3.7971,-4.0164,0.0,-4.0827,-4.8389,-5.1843,-5.1115,-5.1301,-5.1338,-5.117,-5.0314,-4.9185,-4.7952,-4.8265,-4.806,-4.7522,-4.7779,-4.7434,-4.6686,-4.6703,-4.6257,-4.5596,-4.562,-4.5605,-4.555,0.3598,0.4189,0.4489,0.3334,0.3413,0.3604,0.3101,0.2221,0.0666,-0.1772,-0.2773,-0.4279,-0.6812,-0.7279,-0.7761,0.0,-0.9453,-1.0293,0.0,-1.2674,-1.4362,-1.5906,-1.7733,-1.9102,-1.9858,-2.1273,-2.2211,-2.2499,0.0,0.0,0.0,-1.1315,-1.534,-2.2589,-2.3487,-2.4997,-2.6886,-2.8373,-2.9607,-3.0729,-3.1599,-3.252,-3.3395,-3.3192,-3.3438,-3.385,-3.3527,-3.2924,-3.2087,-3.123,-2.9624,-2.7956,-2.7446,-2.6804,-2.6246,-2.619,-2.537,-2.4502,-2.4788,-2.4943,-2.5286,-2.6383,-2.5121,-2.4425,-2.7347,-2.8398,-2.9449,-3.2167,-3.3276,-3.3297,-3.1766,-3.2481,-3.2745,-3.1144,-3.4069,0.0,0.0,0.0,0.0,0.0,0.0,-2.9177,0.0,-2.7086,0.0,0.0,0.0,0.0,0.0,0.0,0.0,0.0,-4.1692,0.0,-4.1034,-4.7995,-5.1424,-5.1249,-5.1297,-5.092,-5.0144,-4.9103,-4.8314,-4.7792,-4.7076,-4.6995,-4.7391,-4.7602,-4.751,-4.7247,-4.7468,-4.7011,-4.6282,-4.6223,-4.5838,-4.5298,0.2953,0.2935,0.3136,0.47,0.4254,0.3585,0.3695,0.28,0.1231,-0.1452,-0.2683,-0.4213,-0.6727,-0.7581,0.0,-0.8525,-1.0037,-1.1268,-1.2119,-1.3426,-1.5327,-1.766,-1.9124,-2.0418,-2.178,-2.2776,0.0,-2.3756,-1.9844,-1.7224,-1.5909,-1.5062,-1.8757,-2.6046,-2.5666,-2.6052,-2.7051,-2.8213,-2.9297,-3.0304,-3.1241,-3.2201,-3.3061,-3.3024,-3.3008,-3.2961,-3.2617,-3.1754,-3.0646,-2.9789,-2.843,-2.6972,-2.6445,-2.6009,-2.5606,-2.5312,-2.5217,-2.5312,-2.5634,-2.6461,-2.7352,-2.8169,-2.722,-2.6701,-2.9536,-3.0885,-3.1944,-3.3349,-3.3877,-3.3942,-3.3249,-3.3795,-3.4321,-3.4279,-3.606,-3.7315,-3.6973,0.0,0.0,0.0,0.0,0.0,0.0,-3.1534,0.0,0.0,0.0,0.0,0.0,0.0,0.0,-3.612,-4.5074,0.0,-4.4959,-4.9062,-5.118,-5.1191,-5.1023,-5.0261,-4.8916,-4.8126,-4.7305,-4.6448,-4.5792,-4.6131,-4.7173,-4.734,-4.7606,-4.7954,-4.8081,-4.7404,-4.6412,-4.6457,-4.5919,-4.5148,0.4989,0.4681,0.448,0.0,0.4589,0.3474,0.3249,0.2129,0.0672,-0.1119,-0.2573,-0.4359,-0.6576,-0.7996,-0.887,-0.918,0.0,0.0,0.0,-1.4871,-1.6668,-1.9604,-2.0387,-2.1578,-2.3526,-2.379,-2.4227,-2.4886,-2.372,-2.2846,-2.2242,-2.2815,-2.4202,-2.6275,-2.6353,-2.6712,-2.7189,-2.7589,-2.8598,-3.0071,-3.0679,-3.1551,-3.2585,-3.2945,-3.2431,-3.1554,-3.1429,-3.044,-2.8997,-2.8397,-2.7514,-2.6719,-2.6946,-2.6602,-2.5879,-2.4334,-2.5121,-2.648,-2.6516,-2.8147,-2.9738,-2.9495,-2.9984,-3.0347,-3.0048,-3.1603,-3.3311,-3.3882,-3.3846,-3.423,-3.5894,-3.513,-3.4852,-3.6786,-3.7592,-3.7302,-3.5449,0.0,0.0,0.0,0.0,0.0,0.0,-3.6851,-3.9071,0.0,0.0,0.0,0.0,0.0,-3.6108,-4.8105,-4.951,-5.0469,-5.1281,-5.1093,-5.0965,-5.0887,-5.0508,-4.9409,-4.7702,-4.7449,-4.6234,-4.4365,-4.4648,-4.5572,-4.6938,-4.7127,-4.7832,-4.8764,-4.8575,-4.7545,-4.6184,-4.6392,-4.5887,-4.5103,0.0,0.0,0.5445,0.6609,0.4521,0.2954,0.4039,0.2575,0.0448,-0.201,-0.246,-0.4114,-0.8097,-0.9503,-1.0828,-1.2552,-1.3204,-1.4124,-1.5698,-1.743,-1.9289,-2.1329,-2.2241,-2.2995,-2.3824,-2.4299,-2.4103,-2.3379,-2.3401,-2.3026,-2.2501,-2.4049,-2.4755,-2.4732,-2.5296,-2.5415,-2.5256,-2.6435,-2.7166,-2.766,-2.8649,-2.9346,-2.9825,-2.9961,-2.9975,-2.9929,-2.9624,-2.857,-2.7196,-2.6591,-2.5612,-2.4728,-2.4728,-2.5028,-2.5492,-2.6151,-2.6795,-2.7275,-2.7421,-2.93,-3.1327,-3.1694,-3.3412,-3.4529,-3.2821,-3.4094,-3.511,-3.3209,-3.3768,-3.575,-3.9518,-3.914,-3.8673,-4.0038,-3.8082,-3.6344,-3.6131,-3.5526,0.0,0.0,-3.4433,-3.6621,-3.9697,-4.0149,-3.9829,0.0,0.0,0.0,0.0,-3.7967,-4.0902,-4.8126,-5.0013,-5.0994,-5.1153,-5.035,-4.9887,-4.9772,-4.9642,-4.8991,-4.7914,-4.693,-4.5811,-4.4712,-4.5289,-4.6156,-4.7174,-4.7988,-4.8818,-4.9484,-4.8775,-4.7851,-4.6936,-4.6989,-4.6165,-4.5109,0.9905,0.8765,0.8064,0.8344,0.6625,0.4909,0.4531,0.3037,0.1007,-0.1566,-0.2238,-0.4117,-0.8553,-0.998,-1.1892,-1.5228,-1.5417,-1.5939,-1.7623,-1.8653,-2.0026,-2.1887,-2.2399,-2.2873,-2.3339,-2.3852,-2.3958,-2.3574,-2.3877,-2.3754,-2.339,-2.4495,-2.4811,-2.4364,-2.4402,-2.4493,-2.4727,-2.572,-2.6079,-2.6079,-2.7485,-2.7931,-2.7748,-2.8306,-2.8255,-2.7814,-2.7696,-2.6772,-2.5504,-2.487,-2.4614,-2.4481,-2.4481,-2.5137,-2.615,-2.7406,-2.7605,-2.7614,-2.8472,-3.0204,-3.2077,-3.3642,-3.4934,-3.5499,-3.3964,-3.4131,-3.5,-3.6348,-3.5395,-3.5745,-4.0239,-4.0603,-4.0405,-4.1283,-3.8543,-3.6503,-3.7228,-3.5706,-3.5195,-3.7072,-3.8522,-4.0535,-4.3506,-4.4256,-4.3472,-4.0874,-4.1788,0.0,-4.0534,-4.2348,-4.4685,-4.7488,-4.9761,-5.0697,-5.0236,-4.9621,-4.9297,-4.922,-4.9056,-4.8528,-4.7659,-4.6853,-4.5795,-4.4578,-4.5415,-4.6298,-4.7211,-4.8282,-4.8882,-4.9117,-4.8636,-4.757,-4.6323,-4.6939,-4.6372,-4.5394,1.1887,1.1562,1.1113,1.0513,0.9128,0.7331,0.5152,0.3504,0.1791,-0.0224,-0.1903,-0.446,-0.8407,-1.015,-1.2831,-1.7373,-1.7768,-1.8252,-1.9571,-1.9645,-2.0413,-2.214,-2.2119,-2.2307,-2.2818,-2.3234,-2.3727,-2.4295,-2.4511,-2.4337,-2.4028,-2.4321,-2.4276,-2.4082,-2.3452,-2.3643,-2.433,-2.4815,-2.4909,-2.4862,-2.6425,-2.6536,-2.594,-2.7072,-2.6799,-2.5795,-2.5889,-2.5089,-2.3996,-2.359,-2.4004,-2.4757,-2.4914,-2.5803,-2.6953,-2.7968,-2.8028,-2.7944,-2.9461,-3.095,-3.2623,-3.5109,-3.5554,-3.5158,-3.434,-3.3386,-3.4318,-4.0256,-3.7976,-3.6043,-3.9782,-4.0881,-4.1067,-4.0744,-3.8145,-3.6445,-3.7228,0.0,-3.6769,-4.0899,-4.2676,-4.456,-4.7132,-4.8048,-4.7725,-4.5936,-4.7068,-4.7127,-4.5447,-4.6714,-4.7198,-4.6588,-4.8874,-4.972,-4.8933,-4.8958,-4.8976,-4.8967,-4.8758,-4.8249,-4.7541,-4.7155,-4.6158,-4.4739,-4.5791,-4.669,-4.747,-4.8498,-4.8738,-4.8437,-4.8258,-4.6971,-4.5319,-4.6416,-4.6271,-4.5557,1.5852,1.4183,1.2938,1.2685,0.9519,0.6949,0.6982,0.4169,0.1787,0.1453,-0.1897,-0.5339,-0.816,-1.1311,-1.4747,-1.8897,-2.02,-2.1,-2.149,-2.2262,-2.289,-2.3217,-2.318,-2.3206,-2.3325,-2.3556,-2.3727,-2.3908,-2.3887,-2.3462,-2.2663,-2.3129,-2.2698,-2.1628,-2.1845,-2.1899,-2.1738,-2.2446,-2.2914,-2.3158,-2.3756,-2.4036,-2.4192,-2.4607,-2.4791,-2.4723,-2.4734,-2.4078,-2.3179,-2.32,-2.3431,-2.3826,-2.4217,-2.536,-2.6673,-2.7244,-2.8084,-2.9036,-2.9834,-3.1807,-3.3969,-3.5335,-3.6245,-3.6428,-3.5065,-3.4305,-3.5182,-3.9997,-4.0689,-4.0366,-4.0243,-4.1794,-4.1643,-3.7248,-3.4962,-3.3425,-3.2521,-3.4677,-3.7809,-4.1739,-4.6397,-4.9271,-4.9116,-4.9238,-4.8839,-4.7684,-4.733,-4.6857,-4.618,-4.6949,-4.696,-4.598,-4.721,-4.7846,-4.7681,-4.8452,-4.8833,-4.8819,-4.8871,-4.8775,-4.8634,-4.7783,-4.72,-4.6879,-4.7941,-4.8485,-4.8686,-4.9537,-4.9436,-4.8644,-4.7691,-4.6561,-4.5511,-4.55,-4.5156,-4.4768,1.7856,1.665,1.5638,1.5066,1.1932,0.9305,0.8558,0.4969,0.2063,0.149,-0.2176,-0.5939,-0.9297,-1.1572,-1.4791,-1.9844,-2.0899,-2.2068,-2.3897,-2.3659,-2.3524,-2.3824,-2.3315,-2.3001,-2.2879,-2.2879,-2.3133,-2.3657,-2.3794,-2.3505,-2.2832,-2.2801,-2.2094,-2.0894,-2.0411,-2.0401,-2.0797,-2.1181,-2.1431,-2.1634,-2.2734,-2.2961,-2.2743,-2.3554,-2.3816,-2.3645,-2.3541,-2.3073,-2.2522,-2.2532,-2.2828,-2.3167,-2.3992,-2.4802,-2.5853,-2.7023,-2.8597,-3.0139,-3.1193,-3.3059,-3.4919,-3.5785,-3.6257,-3.6499,-3.6102,-3.4542,-3.4722,-4.0175,-4.181,-4.2399,-4.2673,-4.336,-4.2551,-3.8428,-3.7073,-3.6462,-3.6222,-3.8206,-4.1265,-4.5557,-4.875,-5.0298,-4.9577,-4.992,-4.963,-4.8272,-4.8137,-4.7818,-4.7147,-4.7262,-4.734,-4.7356,-4.7859,-4.8196,-4.8372,-4.8234,-4.8438,-4.8972,-4.8467,-4.8486,-4.8953,-4.8533,-4.8043,-4.7536,-4.8613,-4.9025,-4.8999,-4.94,-4.8919,-4.782,-4.6759,-4.5996,-4.548,-4.5401,-4.5529,-4.5734,2.0343,1.9401,1.8474,1.7214,1.4412,1.1825,1.0094,0.604,0.2931,0.2109,-0.1872,-0.5955,-0.9627,-1.1547,-1.4746,-2.0287,-2.1139,-2.2629,-2.5395,-2.4502,-2.3994,-2.4415,-2.3467,-2.2891,-2.2618,-2.2362,-2.2627,-2.3319,-2.3551,-2.3323,-2.2664,-2.2113,-2.1306,-2.0106,-1.8993,-1.9027,-1.9797,-1.9963,-2.0196,-2.0585,-2.1845,-2.2107,-2.184,-2.295,-2.3125,-2.2869,-2.2809,-2.2465,-2.2141,-2.2227,-2.2475,-2.2883,-2.3657,-2.4511,-2.5371,-2.6735,-2.8675,-3.0786,-3.2453,-3.4114,-3.5679,-3.6446,-3.6585,-3.6699,-3.7187,-3.5383,-3.5102,-4.0474,-4.2141,-4.3014,-4.4379,-4.4841,-4.3652,-3.9547,-3.9367,-3.9791,-3.9995,-4.1509,-4.4268,-4.8778,-5.0086,-5.0375,-4.9826,-5.0195,-4.9889,-4.8598,-4.8683,-4.8501,-4.7786,-4.7729,-4.815,-4.9091,-4.8865,-4.8824,-4.9048,-4.8238,-4.8348,-4.9296,-4.8628,-4.8647,-4.9272,-4.9395,-4.8872,-4.7938,-4.8993,-4.9171,-4.8694,-4.8865,-4.8172,-4.6864,-4.6017,-4.5421,-4.509,-4.517,-4.5574,-4.6064,2.4666,2.3028,2.1081,1.9246,1.5809,1.2809,1.1467,0.7396,0.4573,0.4808,-0.0467,-0.5127,-0.7741,-1.1393,-1.5631,-2.0393,-2.1566,-2.2885,-2.4884,-2.4948,-2.5165,-2.5507,-2.4169,-2.3416,-2.3416,-2.2979,-2.2784,-2.2853,-2.2599,-2.203,-2.0985,-2.0157,-1.9251,-1.8096,-1.7516,-1.7383,-1.7708,-1.8256,-1.9039,-1.997,-2.0467,-2.1111,-2.1855,-2.2379,-2.2546,-2.2605,-2.2939,-2.2658,-2.2138,-2.258,-2.2755,-2.2882,-2.3061,-2.4493,-2.6097,-2.6028,-2.7903,-3.0612,-3.3069,-3.4836,-3.6245,-3.7568,-3.7873,-3.7916,-3.815,-3.7653,-3.7993,-4.0997,-4.1647,-4.2124,-4.3626,-4.5778,-4.5021,-3.7889,-3.8955,-4.0286,-3.9102,-4.1568,-4.5034,-4.9161,-5.022,-5.0586,-5.0605,-4.9893,-4.9298,-4.9058,-4.8393,-4.7894,-4.7621,-4.8426,-4.936,-5.0432,-4.9385,-4.872,-4.8564,-4.8593,-4.9062,-4.9936,-5.0035,-5.0078,-5.0038,-5.0339,-4.9835,-4.8777,-4.9862,-4.9308,-4.7753,-4.832,-4.7624,-4.614,-4.5773,-4.5025,-4.4202,-4.4184,-4.4209,-4.4203,2.6444,2.4938,2.304,2.0723,1.8065,1.5493,1.3116,0.8032,0.4574,0.4697,-0.18,-0.708,-0.9055,-1.2794,-1.6888,-2.1025,-2.18,-2.3185,-2.5684,-2.5197,-2.4584,-2.4088,-2.3545,-2.2882,-2.2185,-2.2008,-2.1919,-2.1909,-2.1729,-2.1222,-2.0571,-1.9901,-1.892,-1.7557,-1.7106,-1.6894,-1.6976,-1.7367,-1.831,-1.9779,-2.0191,-2.0876,-2.1807,-2.2198,-2.2447,-2.265,-2.2999,-2.2832,-2.2527,-2.3144,-2.294,-2.2544,-2.3283,-2.4881,-2.6393,-2.6256,-2.8646,-3.1528,-3.2716,-3.5032,-3.7342,-3.8026,-3.859,-3.8908,-3.8484,-3.9244,-4.0358,-4.1368,-4.239,-4.3593,-4.5171,-4.6265,-4.5538,-4.1343,-4.3123,-4.4312,-4.2152,-4.5073,-4.8184,-5.0154,-5.0668,-5.0791,-5.0648,-4.9855,-4.926,-4.9003,-4.8223,-4.7996,-4.8493,-4.9505,-5.024,-5.0642,-5.0298,-5.0066,-4.9925,-4.9362,-4.9488,-5.0306,-4.9794,-4.9835,-5.0348,-5.0521,-5.0327,-4.9866,-5.0199,-4.9969,-4.9247,-4.8289,-4.7555,-4.6963,-4.5507,-4.5002,-4.5096,-4.4533,-4.4595,-4.4878,2.9007,2.6574,2.3772,2.1401,1.842,1.5632,1.3478,0.8142,0.416,0.3535,-0.2427,-0.7758,-1.0833,-1.3794,-1.7243,-2.1162,-2.1504,-2.2603,-2.5382,-2.4383,-2.3448,-2.2884,-2.2551,-2.1882,-2.0925,-2.1114,-2.1114,-2.1114,-2.0968,-2.0871,-2.0716,-1.9793,-1.8906,-1.7937,-1.7384,-1.6968,-1.6722,-1.6968,-1.782,-1.8946,-1.9685,-2.0674,-2.1682,-2.2176,-2.2533,-2.2843,-2.3065,-2.3018,-2.2892,-2.3674,-2.3614,-2.3453,-2.3909,-2.63,-2.8905,-2.8288,-3.0033,-3.2373,-3.2946,-3.5812,-3.8641,-3.8702,-3.9285,-3.9658,-3.9074,-4.1594,-4.3764,-4.2609,-4.4233,-4.6234,-4.7461,-4.7454,-4.6594,-4.4559,-4.6357,-4.7528,-4.6113,-4.8344,-5.0535,-5.1582,-5.1517,-5.1289,-5.1124,-5.0337,-4.9606,-4.9097,-4.8537,-4.8616,-4.9543,-5.0009,-5.0394,-5.0752,-5.0559,-5.0524,-5.0701,-5.0067,-4.9969,-5.0462,-4.9827,-4.9865,-5.0462,-5.0544,-5.0368,-5.0052,-5.0306,-5.0093,-4.9427,-4.8038,-4.7338,-4.6977,-4.5168,-4.4815,-4.5256,-4.4739,-4.4815,-4.5123,3.2951,2.8002,2.3191,2.131,1.6328,1.2492,1.1996,0.768,0.3675,0.1692,-0.1679,-0.6307,-1.2409,-1.4137,-1.6494,-2.0806,-2.0437,-2.1048,-2.3414,-2.2281,-2.1823,-2.2354,-2.1247,-2.0421,-1.9894,-2.0357,-2.0637,-2.0637,-2.0439,-2.0722,-2.1365,-1.9706,-1.9019,-1.9187,-1.8331,-1.7513,-1.6698,-1.7212,-1.7351,-1.7439,-1.8982,-2.0211,-2.129,-2.2294,-2.2857,-2.3102,-2.3128,-2.3138,-2.3307,-2.4217,-2.5105,-2.5673,-2.481,-2.9152,-3.4073,-3.2111,-3.2033,-3.2834,-3.4109,-3.7251,-4.0044,-3.9796,-3.9912,-4.0113,-4.0144,-4.5018,-4.8455,-4.4794,-4.7151,-4.995,-5.0231,-4.9523,-4.8386,-4.6784,-4.7758,-4.9182,-5.0508,-5.0835,-5.162,-5.3456,-5.2825,-5.2216,-5.2212,-5.1377,-5.0432,-4.95,-4.9408,-4.9776,-5.0643,-4.9739,-4.9721,-5.0861,-4.9931,-4.976,-5.0488,-5.0625,-5.0606,-5.0404,-5.0404,-5.0404,-5.0404,-5.0486,-4.9959,-4.9067,-5.0218,-4.9562,-4.769,-4.75,-4.6841,-4.5911,-4.4824,-4.4317,-4.4221,-4.4587,-4.4576,-4.4465,3.2905,2.9931,2.6487,2.2164,1.8557,1.5069,1.1248,0.7913,0.4526,0.0974,-0.3474,-0.8272,-1.327,-1.5899,-1.8503,-2.1747,-2.0607,-1.985,-1.9838,-1.9304,-1.88,-1.838,-1.9828,-2.024,-1.9455,-1.9828,-2.0192,-2.0374,-2.0439,-2.0745,-2.1456,-2.0514,-1.9871,-1.9448,-1.8698,-1.8069,-1.7423,-1.7529,-1.8226,-1.9134,-1.9638,-2.0772,-2.2351,-2.2784,-2.3042,-2.3062,-2.3018,-2.3938,-2.529,-2.6662,-2.709,-2.7601,-3.1258,-3.3473,-3.4998,-3.656,-3.651,-3.6612,-3.9244,-4.0965,-4.2055,-4.1959,-4.0722,-4.0831,-4.5825,-4.8077,-4.889,-4.8254,-4.706,-4.6834,-4.924,-4.9906,-4.981,-4.8935,-4.9373,-5.0048,-5.0681,-5.2332,-5.3427,-5.3233,-5.3312,-5.3351,-5.3198,-5.238,-5.1633,-5.1114,-5.0648,-5.0055,-4.9336,-5.0085,-5.0646,-5.089,-5.052,-5.0355,-5.043,-5.0427,-5.0317,-5.012,-5.0169,-5.0217,-5.0264,-5.0466,-5.0329,-4.9916,-5.0325,-5.009,-4.9349,-4.7979,-4.7258,-4.6898,-4.5344,-4.4576,-4.4374,-4.4777,-4.4726,-4.4589,3.5052,3.0833,2.6716,2.3458,1.8046,1.3083,1.0232,0.6132,0.2072,-0.1687,-0.5806,-0.9907,-1.409,-1.6553,-1.8769,-2.0772,-1.9933,-1.8829,-1.7538,-1.7304,-1.7035,-1.6487,-1.8226,-1.9063,-1.8442,-1.905,-1.9709,-2.0329,-2.0399,-2.1042,-2.2281,-2.1273,-2.0883,-2.0809,-1.9841,-1.8877,-1.8069,-1.8247,-1.8848,-1.9719,-2.0466,-2.1578,-2.2844,-2.3433,-2.3685,-2.3794,-2.5198,-2.5756,-2.6358,-2.9361,-3.0165,-3.0438,-3.4127,-3.5829,-3.6896,-3.891,-3.9424,-3.9782,-4.2135,-4.3489,-4.4068,-4.3488,-4.3574,-4.4857,-4.8977,-4.9687,-4.9485,-4.9665,-4.807,-4.7203,-4.906,-4.989,-5.0266,-5.0082,-5.024,-5.0779,-5.1952,-5.2757,-5.3496,-5.4259,-5.4279,-5.427,-5.4271,-5.3763,-5.3171,-5.2511,-5.1738,-5.1073,-5.051,-5.0267,-5.0455,-5.1163,-5.0468,-5.0144,-5.0284,-5.0323,-5.0272,-5.0169,-5.0193,-5.0264,-5.0355,-5.0486,-5.0506,-5.0416,-5.0181,-5.0027,-4.9784,-4.7838,-4.7058,-4.6882,-4.5332,-4.4855,-4.5057,-4.5191,-4.5243,-4.5344,3.8405,3.1261,2.5087,2.417,1.5267,0.8172,0.7829,0.2786,-0.2184,-0.5558,-0.8277,-1.1201,-1.4719,-1.6456,-1.7691,-1.8618,-1.8586,-1.7801,-1.6211,-1.6096,-1.6096,-1.6096,-1.6857,-1.7326,-1.7419,-1.8237,-1.9237,-2.0456,-2.0662,-2.1758,-2.3596,-2.2147,-2.1964,-2.2757,-2.1332,-1.9913,-1.8718,-1.9134,-1.9432,-1.9725,-2.1491,-2.2585,-2.3293,-2.4375,-2.4736,-2.5217,-2.8848,-2.872,-2.7678,-3.2321,-3.3742,-3.3784,-3.452,-3.6661,-3.9104,-3.9726,-4.0863,-4.2141,-4.3245,-4.4851,-4.5944,-4.4584,-4.7391,-5.0392,-5.0002,-5.0109,-5.0108,-4.9514,-4.9626,-4.9695,-4.945,-4.9627,-4.9974,-5.0301,-5.0428,-5.1337,-5.3745,-5.2485,-5.2581,-5.6016,-5.5556,-5.5075,-5.539,-5.5348,-5.4889,-5.3853,-5.2941,-5.2672,-5.3146,-5.0603,-4.9906,-5.1606,-5.0067,-4.9528,-5.0159,-5.0339,-5.0404,-5.0383,-5.0404,-5.0467,-5.0587,-5.0567,-5.0547,-5.045,-4.9867,-4.9517,-4.922,-4.7352,-4.6511,-4.6297,-4.5176,-4.5302,-4.6062,-4.5857,-4.6067,-4.6439,3.8716,3.3015,2.6215,1.7535,1.228,0.6469,-0.1677,-0.1794,-0.3107,-0.8549,-0.9249,-1.1003,-1.5376,-1.5694,-1.6272,-1.7978,-1.7289,-1.6353,-1.5363,-1.5166,-1.5166,-1.5363,-1.6204,-1.7326,-1.8427,-1.9273,-2.0228,-2.1389,-2.2313,-2.3523,-2.4851,-2.4047,-2.3504,-2.3101,-2.1869,-2.0615,-1.9362,-1.9696,-2.0339,-2.1375,-2.197,-2.3913,-2.6481,-2.6491,-2.6657,-2.7324,-3.1196,-3.3606,-3.5107,-3.5815,-3.5888,-3.5922,-3.7076,-3.7963,-3.8817,-3.9836,-4.0715,-4.1644,-4.3217,-4.5276,-4.6848,-4.6312,-4.7476,-4.8945,-4.9713,-4.9948,-4.9906,-4.9618,-4.919,-4.8957,-4.9202,-4.9464,-4.9759,-4.9948,-5.0264,-5.1316,-5.3609,-5.3432,-5.3924,-5.629,-5.6302,-5.6172,-5.6305,-5.622,-5.6059,-5.5866,-5.5415,-5.4546,-5.3108,-5.272,-5.2428,-5.2165,-5.0817,-5.0296,-5.0656,-5.0481,-5.0361,-5.0252,-5.0298,-5.0366,-5.0451,-5.0748,-5.0436,-4.9662,-4.9668,-4.9177,-4.8279,-4.7567,-4.7296,-4.7272,-4.6792,-4.6732,-4.6883,-4.7034,-4.7027,-4.6879,3.9461,3.2309,2.4419,1.6623,0.9376,0.2824,-0.2853,-0.3432,-0.4715,-0.8768,-0.9635,-1.0974,-1.3848,-1.4579,-1.5444,-1.6915,-1.6651,-1.6292,-1.6008,-1.5818,-1.5724,-1.5635,-1.6676,-1.7707,-1.8442,-1.9977,-2.1239,-2.2187,-2.3078,-2.4252,-2.582,-2.5068,-2.4689,-2.4545,-2.3037,-2.1622,-2.0375,-2.1154,-2.1997,-2.2989,-2.429,-2.6418,-2.877,-2.9174,-2.9732,-3.0767,-3.4384,-3.7025,-3.8683,-3.909,-3.9014,-3.8952,-4.0157,-4.0609,-4.0848,-4.1342,-4.226,-4.331,-4.42,-4.5986,-4.7679,-4.8079,-4.8136,-4.8296,-4.901,-4.9644,-4.9993,-4.9598,-4.9292,-4.9126,-4.9137,-4.9358,-4.9569,-4.9788,-5.012,-5.0985,-5.2723,-5.3424,-5.4215,-5.5483,-5.6143,-5.6499,-5.6509,-5.6497,-5.6484,-5.646,-5.5456,-5.4236,-5.2839,-5.2489,-5.2238,-5.2069,-5.1106,-5.0547,-5.0457,-5.044,-5.0404,-5.0347,-5.0385,-5.0448,-5.0529,-5.0323,-4.9966,-4.9457,-4.872,-4.8327,-4.8085,-4.7388,-4.7331,-4.7624,-4.7397,-4.7537,-4.7897,-4.7813,-4.7749,-4.7542,3.8987,3.0147,2.1541,1.5787,0.6623,-0.0725,-0.2696,-0.4558,-0.6399,-0.8474,-0.9782,-1.0978,-1.2042,-1.3745,-1.5196,-1.6326,-1.6574,-1.6857,-1.7117,-1.7117,-1.6929,-1.656,-1.7692,-1.845,-1.845,-2.0791,-2.2224,-2.2909,-2.3618,-2.4858,-2.6542,-2.5869,-2.5701,-2.6052,-2.4281,-2.2746,-2.1421,-2.26,-2.3392,-2.4162,-2.6628,-2.8498,-2.996,-3.1344,-3.2328,-3.3359,-3.6998,-3.8937,-3.9974,-4.1325,-4.1612,-4.1612,-4.2731,-4.3266,-4.3353,-4.3261,-4.4121,-4.5147,-4.5305,-4.6555,-4.8044,-4.8991,-4.8494,-4.7856,-4.8094,-4.8935,-4.9542,-4.899,-4.8977,-4.899,-4.8807,-4.8954,-4.9239,-4.9646,-4.998,-5.0634,-5.1856,-5.2799,-5.3754,-5.4795,-5.5856,-5.6475,-5.6446,-5.6503,-5.6511,-5.6432,-5.4366,-5.2949,-5.2607,-5.1549,-5.1241,-5.1876,-5.12,-5.0625,-5.016,-5.038,-5.0485,-5.049,-5.0488,-5.049,-5.0505,-4.9768,-4.9335,-4.9103,-4.7657,-4.736,-4.7822,-4.7146,-4.7235,-4.7774,-4.7808,-4.8334,-4.8986,-4.8541,-4.837,-4.8249,3.3481,2.7247,1.9098,0.6719,0.3339,-0.0721,-0.9767,-0.8178,-0.6987,-1.0254,-1.0024,-1.0409,-1.2659,-1.4404,-1.5868,-1.7044,-1.7225,-1.7412,-1.7956,-1.8126,-1.8126,-1.7863,-1.8972,-1.9812,-2.0019,-2.1952,-2.3066,-2.3345,-2.5144,-2.6337,-2.686,-2.6974,-2.6674,-2.5904,-2.4552,-2.3266,-2.2094,-2.2853,-2.3471,-2.4115,-2.6286,-2.7892,-2.9198,-3.0824,-3.1346,-3.1853,-3.6091,-3.836,-3.9483,-4.0511,-4.1376,-4.2171,-4.3241,-4.3834,-4.4137,-4.4586,-4.4534,-4.4562,-4.5606,-4.6517,-4.7172,-4.7268,-4.7095,-4.693,-4.7127,-4.7172,-4.7093,-4.6768,-4.6601,-4.6666,-4.7242,-4.762,-4.8253,-4.9485,-5.0038,-5.0713,-5.1997,-5.1606,-5.2464,-5.584,-5.6395,-5.6513,-5.6562,-5.6421,-5.6407,-5.6556,-5.3161,-5.1664,-5.2955,-5.1838,-5.1491,-5.2204,-5.1373,-5.0738,-5.0452,-5.0425,-5.0416,-5.0396,-5.0339,-5.0183,-4.991,-4.9683,-4.8827,-4.7514,-4.7269,-4.6756,-4.6127,-4.7223,-4.7776,-4.8081,-4.921,-4.9796,-4.9983,-4.9606,-4.907,-4.8567,2.5743,2.0252,1.3763,0.4639,0.1523,-0.1403,-0.6898,-0.5801,-0.5193,-0.7768,-0.8719,-1.0073,-1.2583,-1.5371,-1.7419,-1.8417,-1.8241,-1.8342,-1.8912,-1.8896,-1.8611,-1.8164,-1.9728,-2.0472,-2.0059,-2.2443,-2.3877,-2.4382,-2.6224,-2.7325,-2.7777,-2.81,-2.781,-2.7127,-2.6143,-2.4911,-2.3668,-2.4944,-2.5271,-2.5043,-2.8228,-2.9967,-3.0864,-3.2778,-3.3718,-3.451,-3.7951,-3.9591,-4.0404,-4.2228,-4.3117,-4.3708,-4.523,-4.5847,-4.5907,-4.5258,-4.5851,-4.6691,-4.6379,-4.7361,-4.8512,-4.8532,-4.7653,-4.6791,-4.6719,-4.5709,-4.5123,-4.6186,-4.6702,-4.7058,-4.7416,-4.8081,-4.8877,-4.9746,-4.9993,-5.0382,-5.1299,-5.1101,-5.1881,-5.4669,-5.5918,-5.6554,-5.653,-5.6401,-5.5346,-5.3041,-5.1597,-5.1852,-5.4265,-5.2314,-5.1286,-5.1573,-5.1059,-5.0625,-5.027,-5.0225,-5.0076,-4.9891,-5.0057,-4.9925,-4.9567,-4.8993,-4.8187,-4.7165,-4.6495,-4.6249,-4.6336,-4.6795,-4.728,-4.785,-4.8707,-4.9394,-4.9884,-5.0038,-4.9797,-4.9295]}]]